[[{"header":{"parameterUnit":"m.s-1","parameterCategory":1,"la1":30.6,"la2":28.766,"lo1":-90.7593,"lo2":-88.6598,"dy":0.0162,"dx":0.0183,"nx":116,"ny":114,"refTime":"2023-05-10T00:00:00:Z","depth":0,"parameterNumber":2,"parameterNumberName":"U-component_of_WINDS"},"data":[0.0,0.0,0.0,0.0,0.0,0.0,0.0,0.0,0.0,0.0,0.0,0.0,0.0,0.0,0.0,0.0,0.0,0.0,0.0,0.0,0.0,0.0,0.0,0.0,0.0,0.0,0.0,0.0,0.0,0.0,0.0,0.0,0.0,0.0,0.0,0.0,0.0,0.0,0.0,0.0,0.0,0.0,0.0,0.0,0.0,0.0,0.0,0.0,0.0,0.0,0.0,0.0,0.0,0.0,0.0,0.0,0.0,0.0,0.0,0.0,0.0,0.0,0.0,0.0,0.0,0.0,0.0,0.0,0.0,0.0,0.0,0.0,0.0,0.0,0.0,0.0,0.0,0.0,0.0,0.0,0.0,0.0,0.0,0.0,0.0,0.0,0.0,0.0,0.0,0.0,0.0,0.0,0.0,0.0,0.0,0.0,0.0,0.0,0.0,0.0,0.0,0.0,0.0,0.0,0.0,0.0,0.0,0.0,0.0,0.0,0.0,0.0,0.0,0.0,0.0,0.0,0.0,0.0,0.0,0.0,0.0,0.0,0.0,0.0,0.0,0.0,0.0,0.0,0.0,0.0,0.0,0.0,0.0,0.0,0.0,0.0,0.0,0.0,0.0,0.0,0.0,0.0,0.0,0.0,0.0,0.0,0.0,0.0,0.0,0.0,0.0,0.0,0.0,0.0,0.0,0.0,0.0,0.0,0.0,0.0,0.0,0.0,0.0,0.0,0.0,0.0,0.0,0.0,0.0,0.0,0.0,0.0,0.0,0.0,0.0,0.0,0.0,0.0,0.0,0.0,0.0,0.0,0.0,0.0,0.0,0.0,0.0,0.0,0.0,0.0,0.0,0.0,0.0,0.0,0.0,0.0,0.0,0.0,0.0,0.0,0.0,0.0,0.0,0.0,0.0,0.0,0.0,0.0,0.0,0.0,0.0,0.0,0.0,0.0,0.0,0.0,0.0,0.0,0.0,0.0,0.0,0.0,0.0,0.0,0.0,0.0,0.0,0.0,0.0,0.0,0.0,0.0,0.0,0.0,0.0,0.0,0.0,0.0,0.0,0.0,0.0,0.0,0.0,0.0,0.0,0.0,0.0,0.0,0.0,0.0,0.0,0.0,0.0,0.0,0.0,0.0,0.0,0.0,0.0,0.0,0.0,0.0,0.0,0.0,0.0,0.0,0.0,0.0,0.0,0.0,0.0,0.0,0.0,0.0,0.0,0.0,0.0,0.0,0.0,0.0,0.0,0.0,0.0,0.0,0.0,0.0,0.0,0.0,0.0,0.0,0.0,0.0,0.0,0.0,0.0,0.0,0.0,0.0,0.0,0.0,0.0,0.0,0.0,0.0,0.0,0.0,0.0,0.0,0.0,0.0,0.0,0.0,0.0,0.0,0.0,0.0,0.0,0.0,0.0,0.0,0.0,0.0,0.0,0.0,0.0,0.0,0.0,0.0,0.0,0.0,0.0,0.0,0.0,0.0,0.0,0.0,0.0,0.0,0.0,0.0,0.0,0.0,0.0,0.0,0.0,0.0,0.0,0.0,0.0,0.0,0.0,0.0,0.0,0.0,0.0,0.0,0.0,0.0,0.0,0.0,0.0,0.0,0.0,0.0,0.0,0.0,0.0,0.0,0.0,0.0,0.0,0.0,0.0,0.0,0.0,0.0,0.0,0.0,0.0,0.0,0.0,0.0,0.0,0.0,0.0,0.0,0.0,0.0,0.0,0.0,0.0,0.0,0.0,0.0,0.0,0.0,0.0,0.0,0.0,0.0,0.0,0.0,0.0,0.0,0.0,0.0,0.0,0.0,0.0,0.0,0.0,0.0,0.0,0.0,0.0,0.0,0.0,0.0,0.0,0.0,0.0,0.0,0.0,0.0,0.0,0.0,0.0,0.0,0.0,0.0,0.0,0.0,0.0,0.0,0.0,0.0,0.0,0.0,0.0,0.0,0.0,0.0,0.0,0.0,0.0,0.0,0.0,0.0,0.0,0.0,0.0,0.0,0.0,0.0,0.0,0.0,0.0,0.0,0.0,0.0,0.0,0.0,0.0,0.0,0.0,0.0,0.0,0.0,0.0,0.0,0.0,0.0,0.0,0.0,0.0,0.0,0.0,0.0,0.0,0.0,0.0,0.0,0.0,0.0,0.0,0.0,0.0,0.0,0.0,0.0,0.0,0.0,0.0,0.0,0.0,0.0,0.0,0.0,0.0,0.0,0.0,0.0,0.0,0.0,0.0,0.0,0.0,0.0,0.0,0.0,0.0,0.0,0.0,0.0,0.0,0.0,0.0,0.0,0.0,0.0,0.0,0.0,0.0,0.0,0.0,0.0,0.0,0.0,0.0,0.0,0.0,0.0,0.0,0.0,0.0,0.0,0.0,0.0,0.0,0.0,0.0,0.0,0.0,0.0,0.0,0.0,0.0,0.0,0.0,0.0,0.0,0.0,0.0,0.0,0.0,0.0,0.0,0.0,0.0,0.0,0.0,0.0,0.0,0.0,0.0,0.0,0.0,0.0,0.0,0.0,0.0,0.0,0.0,0.0,0.0,0.0,0.0,0.0,0.0,0.0,0.0,0.0,0.0,0.0,0.0,0.0,0.0,0.0,0.0,0.0,0.0,0.0,0.0,0.0,0.0,0.0,0.0,0.0,0.0,0.0,0.0,0.0,0.0,0.0,0.0,0.0,0.0,0.0,0.0,0.0,0.0,0.0,0.0,0.0,0.0,0.0,0.0,0.0,0.0,0.0,0.0,0.0,0.0,0.0,0.0,0.0,0.0,0.0,0.0,0.0,0.0,0.0,0.0,0.0,0.0,0.0,0.0,0.0,0.0,0.0,0.0,0.0,0.0,0.0,0.0,0.0,0.0,0.0,0.0,0.0,0.0,0.0,0.0,0.0,0.0,0.0,0.0,0.0,0.0,0.0,0.0,0.0,0.0,0.0,0.0,0.0,0.0,0.0,0.0,0.0,0.0,0.0,0.0,0.0,0.0,0.0,0.0,0.0,0.0,0.0,0.0,0.0,0.0,0.0,0.0,0.0,0.0,0.0,0.0,0.0,0.0,0.0,0.0,0.0,0.0,0.0,0.0,0.0,0.0,0.0,0.0,0.0,0.0,0.0,0.0,0.0,0.0,0.0,0.0,0.0,0.0,0.0,0.0,0.0,0.0,0.0,0.0,0.0,0.0,0.0,0.0,0.0,0.0,0.0,0.0,0.0,0.0,0.0,0.0,0.0,0.0,0.0,0.0,0.0,0.0,0.0,0.0,0.0,0.0,0.0,0.0,0.0,0.0,0.0,0.0,0.0,0.0,0.0,0.0,0.0,0.0,0.0,0.0,0.0,0.0,0.0,0.0,0.0,0.0,0.0,0.0,0.0,0.0,0.0,0.0,0.0,0.0,0.0,0.0,0.0,0.0,0.0,0.0,0.0,0.0,0.0,0.0,0.0,0.0,0.0,0.0,0.0,0.0,0.0,0.0,0.0,0.0,0.0,0.0,0.0,0.0,0.0,0.0,0.0,0.0,0.0,0.0,0.0,0.0,0.0,0.0,0.0,0.0,0.0,0.0,0.0,0.0,0.0,0.0,0.0,0.0,0.0,0.0,0.0,0.0,0.0,0.0,0.0,0.0,0.0,0.0,0.0,0.0,0.0,0.0,0.0,0.0,0.0,0.0,0.0,0.0,0.0,0.0,0.0,0.0,0.0,0.0,0.0,0.0,0.0,0.0,0.0,0.0,0.0,0.0,0.0,0.0,0.0,0.0,0.0,0.0,0.0,0.0,0.0,0.0,0.0,0.0,0.0,0.0,0.0,0.0,0.0,0.0,0.0,0.0,0.0,0.0,0.0,0.0,0.0,0.0,0.0,0.0,0.0,0.0,0.0,0.0,0.0,0.0,0.0,0.0,0.0,0.0,0.0,0.0,0.0,0.0,0.0,0.0,0.0,0.0,0.0,0.0,0.0,0.0,0.0,0.0,0.0,0.0,0.0,0.0,0.0,0.0,0.0,0.0,0.0,0.0,0.0,0.0,0.0,0.0,0.0,0.0,0.0,0.0,0.0,0.0,0.0,0.0,0.0,0.0,0.0,0.0,0.0,0.0,0.0,0.0,0.0,0.0,0.0,0.0,0.0,0.0,0.0,0.0,0.0,0.0,0.0,0.0,0.0,0.0,0.0,0.0,0.0,0.0,0.0,0.0,0.0,0.0,0.0,0.0,0.0,0.0,0.0,0.0,0.0,0.0,0.0,0.0,0.0,0.0,0.0,0.0,0.0,0.0,0.0,0.0,0.0,0.0,0.0,0.0,0.0,0.0,0.0,0.0,0.0,0.0,0.0,0.0,0.0,0.0,0.0,0.0,0.0,0.0,0.0,0.0,0.0,0.0,0.0,0.0,0.0,0.0,0.0,0.0,0.0,0.0,0.0,0.0,0.0,0.0,0.0,0.0,0.0,0.0,0.0,0.0,0.0,0.0,0.0,0.0,0.0,0.0,0.0,0.0,0.0,0.0,0.0,0.0,0.0,0.0,0.0,0.0,0.0,0.0,0.0,0.0,0.0,0.0,0.0,0.0,0.0,0.0,0.0,0.0,0.0,0.0,0.0,0.0,0.0,0.0,0.0,0.0,0.0,0.0,0.0,0.0,0.0,0.0,0.0,0.0,0.0,0.0,0.0,0.0,0.0,0.0,0.0,0.0,0.0,0.0,0.0,0.0,0.0,0.0,0.0,0.0,0.0,0.0,0.0,0.0,0.0,0.0,0.0,0.0,0.0,0.0,0.0,0.0,0.0,0.0,0.0,0.0,0.0,0.0,0.0,0.0,0.0,0.0,0.0,0.0,0.0,0.0,0.0,0.0,0.0,0.0,0.0,0.0,0.0,0.0,0.0,0.0,0.0,0.0,0.0,0.0,0.0,0.0,0.0,0.0,0.0,0.0,0.0,0.0,0.0,0.0,0.0,0.0,0.0,0.0,0.0,0.0,0.0,0.0,0.0,0.0,0.0,0.0,0.0,0.0,0.0,0.0,0.0,0.0,0.0,0.0,0.0,0.0,0.0,0.0,0.0,0.0,0.0,0.0,0.0,0.0,0.0,0.0,0.0,0.0,0.0,0.0,0.0,0.0,0.0,0.0,0.0,0.0,0.0,0.0,0.0,0.0,0.0,0.0,0.0,0.0,0.0,0.0,0.0,0.0,0.0,0.0,0.0,0.0,0.0,0.0,0.0,0.0,0.0,0.0,0.0,0.0,0.0,0.0,0.0,0.0,0.0,0.0,0.0,0.0,0.0,0.0,0.0,0.0,0.0,0.0,0.0,0.0,0.0,0.0,0.0,0.0,0.0,0.0,0.0,0.0,0.0,0.0,0.0,0.0,0.0,0.0,0.0,0.0,0.0,0.0,0.0,0.0,0.0,0.0,0.0,0.0,0.0,0.0,0.0,0.0,0.0,0.0,0.0,0.0,0.0,0.0,0.0,0.0,0.0,0.0,0.0,0.0,0.0,0.0,0.0,0.0,0.0,0.0,0.0,0.0,0.0,0.0,0.0,0.0,0.0,0.0,0.0,0.0,0.0,0.0,0.0,0.0,0.0,0.0,0.0,0.0,0.0,0.0,0.0,0.0,0.0,0.0,0.0,0.0,0.0,0.0,0.0,0.0,0.0,0.0,0.0,0.0,0.0,0.0,0.0,0.0,0.0,0.0,0.0,0.0,0.0,0.0,0.0,0.0,0.0,0.0,0.0,0.0,0.0,0.0,0.0,0.0,0.0,0.0,0.0,0.0,0.0,0.0,0.0,0.0,0.0,0.0,0.0,0.0,0.0,0.0,0.0,0.0,0.0,0.0,0.0,0.0,0.0,0.0,0.0,0.0,0.0,0.0,0.0,0.0,0.0,0.0,0.0,0.0,0.0,0.0,0.0,0.0,0.0,0.0,0.0,0.0,0.0,0.0,0.0,0.0,0.0,0.0,0.0,0.0,0.0,0.0,0.0,0.0,0.0,0.0,0.0,0.0,0.0,0.0,0.0,0.0,0.0,0.0,0.0,0.0,0.0,0.0,0.0,0.0,0.0,0.0,0.0,0.0,0.0,0.0,0.0,0.0,0.0,0.0,0.0,0.0,0.0,-4.1917,0.0,0.0,0.0,0.0,0.0,0.0,0.0,0.0,0.0,0.0,0.0,0.0,0.0,0.0,0.0,0.0,0.0,0.0,0.0,0.0,0.0,0.0,0.0,0.0,0.0,0.0,0.0,0.0,0.0,0.0,0.0,0.0,0.0,0.0,0.0,0.0,0.0,0.0,-2.8734,-2.8923,-2.9391,-3.0211,-3.1478,-3.3002,-3.4738,0.0,0.0,0.0,0.0,0.0,0.0,0.0,0.0,0.0,0.0,0.0,0.0,0.0,0.0,0.0,0.0,0.0,0.0,0.0,0.0,0.0,0.0,0.0,0.0,0.0,0.0,0.0,0.0,0.0,0.0,0.0,0.0,0.0,0.0,0.0,0.0,0.0,0.0,0.0,0.0,0.0,0.0,0.0,0.0,0.0,0.0,0.0,0.0,0.0,0.0,0.0,0.0,0.0,0.0,0.0,0.0,0.0,0.0,0.0,0.0,0.0,0.0,0.0,0.0,0.0,0.0,0.0,0.0,0.0,0.0,0.0,-4.1545,0.0,0.0,0.0,0.0,0.0,0.0,0.0,0.0,0.0,0.0,0.0,0.0,0.0,0.0,0.0,0.0,0.0,0.0,0.0,0.0,0.0,0.0,0.0,-2.4506,-2.4648,-2.4182,-2.4613,-2.4933,0.0,0.0,0.0,0.0,0.0,0.0,-2.643,-2.6747,-2.7159,-2.7723,-2.8415,-2.9411,-3.0697,-3.0862,-3.1934,-3.3722,-3.3919,0.0,0.0,0.0,0.0,0.0,0.0,0.0,0.0,0.0,0.0,0.0,0.0,0.0,0.0,0.0,0.0,0.0,0.0,0.0,0.0,0.0,0.0,0.0,0.0,0.0,0.0,0.0,0.0,0.0,0.0,0.0,0.0,0.0,0.0,0.0,0.0,0.0,0.0,0.0,0.0,0.0,0.0,0.0,0.0,0.0,0.0,0.0,0.0,0.0,0.0,0.0,0.0,0.0,0.0,0.0,0.0,0.0,0.0,0.0,0.0,0.0,0.0,0.0,-4.4097,-4.4214,-4.4471,-4.4471,-4.4518,-4.4554,-4.3123,-4.2537,-4.2483,-4.1304,0.0,0.0,0.0,0.0,0.0,0.0,0.0,0.0,0.0,0.0,0.0,0.0,0.0,0.0,0.0,0.0,0.0,0.0,0.0,0.0,0.0,-2.3415,-2.3599,-2.429,-2.3977,-2.394,-2.447,0.0,0.0,0.0,0.0,0.0,-2.4213,-2.489,-2.5311,-2.5508,-2.7265,-2.8813,-3.0201,-3.1133,-3.1949,-3.2624,-3.307,-3.3135,-3.3071,0.0,0.0,0.0,0.0,0.0,0.0,0.0,0.0,0.0,0.0,0.0,0.0,0.0,0.0,0.0,0.0,0.0,0.0,0.0,0.0,0.0,0.0,0.0,0.0,0.0,0.0,0.0,0.0,0.0,0.0,0.0,0.0,0.0,0.0,0.0,0.0,0.0,0.0,0.0,0.0,0.0,-3.8132,-3.8712,0.0,0.0,0.0,0.0,0.0,0.0,0.0,0.0,0.0,0.0,0.0,0.0,0.0,-4.3756,-4.3763,-4.3967,-4.4372,-4.494,-4.494,-4.5291,-4.5923,-4.5923,-4.5947,-4.5919,-4.5175,0.0,-4.3669,-4.3359,0.0,0.0,0.0,0.0,0.0,0.0,0.0,0.0,0.0,0.0,0.0,0.0,0.0,0.0,0.0,0.0,0.0,0.0,0.0,0.0,0.0,-2.2118,-2.2376,-2.2587,-2.2736,-2.2804,-2.2723,-2.2926,0.0,0.0,0.0,-2.2889,-2.3293,-2.4272,-2.5339,-2.6449,-2.7313,-2.8503,-2.9938,-3.0419,-3.0987,-3.1664,-3.2579,-3.286,-3.2661,-3.324,0.0,0.0,0.0,0.0,0.0,0.0,0.0,0.0,0.0,0.0,0.0,0.0,0.0,0.0,0.0,0.0,0.0,0.0,0.0,0.0,0.0,0.0,0.0,0.0,0.0,0.0,0.0,0.0,0.0,0.0,0.0,0.0,0.0,0.0,0.0,0.0,0.0,0.0,0.0,-3.8211,-3.8512,-3.8164,-3.8921,-3.9611,0.0,0.0,0.0,0.0,0.0,0.0,0.0,0.0,0.0,-4.3657,-4.423,-4.4523,-4.4452,-4.5016,-4.5444,-4.5705,-4.5705,-4.5929,-4.6301,-4.6301,-4.6301,-4.6308,-4.6022,-4.5646,-4.5116,-4.4095,-4.331,-4.2668,0.0,0.0,0.0,0.0,-3.9367,-3.887,0.0,0.0,0.0,0.0,0.0,0.0,0.0,0.0,0.0,0.0,0.0,0.0,-2.0236,-2.0564,-2.0825,-2.0871,-2.1371,-2.1574,-2.1449,-2.1868,-2.1912,-2.1411,-2.1588,-2.1977,-2.2648,-2.3966,-2.5564,-2.742,-2.737,-2.8114,-2.9577,-2.9491,-2.9832,-3.0572,-3.1658,-3.2197,-3.233,-3.2401,-3.2551,-3.2741,0.0,0.0,0.0,0.0,0.0,0.0,0.0,0.0,0.0,0.0,0.0,0.0,0.0,0.0,0.0,0.0,0.0,0.0,0.0,0.0,0.0,0.0,0.0,0.0,0.0,0.0,0.0,0.0,0.0,0.0,0.0,0.0,0.0,0.0,0.0,0.0,0.0,-3.8364,-3.8674,-3.7766,-3.8904,-3.9821,0.0,0.0,0.0,0.0,0.0,0.0,-4.2632,-4.3083,-4.3483,-4.3858,-4.453,-4.4968,-4.5127,-4.5768,-4.6097,-4.6097,-4.6097,-4.6147,-4.6253,-4.6253,-4.6253,-4.6253,-4.6284,-4.6235,-4.6046,-4.4836,-4.4157,-4.3852,-4.3602,-4.2866,-4.1887,-4.1397,-4.0635,-3.9875,0.0,0.0,0.0,0.0,0.0,0.0,0.0,0.0,0.0,0.0,0.0,-1.9197,-1.9182,-1.8693,-1.882,-1.9943,-1.9918,-2.0298,-2.1435,-2.1132,-2.0792,-2.0573,-2.0312,-2.0749,-2.1944,-2.3701,-2.5423,-2.7106,-2.7078,-2.7735,-2.9023,-2.8689,-2.8811,-2.9295,-2.9747,-3.027,-3.0934,-3.2744,-3.2645,-3.1396,-3.2402,0.0,0.0,0.0,0.0,0.0,0.0,0.0,0.0,0.0,0.0,0.0,0.0,0.0,0.0,0.0,0.0,0.0,0.0,0.0,0.0,0.0,0.0,0.0,0.0,0.0,0.0,0.0,0.0,0.0,0.0,0.0,0.0,0.0,0.0,0.0,0.0,0.0,0.0,-3.7589,-3.8864,0.0,0.0,0.0,0.0,-4.0856,-4.1365,-4.1983,-4.2741,-4.2819,-4.3462,-4.48,-4.4895,-4.5171,-4.5743,-4.5811,-4.5829,-4.5821,-4.5821,-4.5821,-4.5821,-4.5821,-4.5821,-4.5846,-4.5963,-4.6013,-4.5995,-4.6063,-4.5399,-4.4355,-4.4341,-4.3531,-4.2406,-4.275,-4.2363,-4.1768,0.0,0.0,0.0,0.0,0.0,0.0,0.0,0.0,-1.7357,-1.7598,-1.7755,-1.7976,-1.846,-1.8318,-1.8479,-1.919,-1.917,-1.9204,-1.9408,-1.9937,-1.9859,-1.9039,-2.0145,-2.132,-2.2587,-2.3539,-2.4591,-2.5685,-2.6016,-2.6631,-2.7586,-2.7829,-2.8269,-2.8888,-2.9341,-2.9816,-3.0309,-3.1066,-3.122,-3.0908,-3.0976,-3.0713,0.0,0.0,0.0,0.0,0.0,0.0,0.0,0.0,0.0,0.0,0.0,0.0,0.0,0.0,0.0,0.0,0.0,0.0,0.0,0.0,0.0,0.0,0.0,0.0,0.0,0.0,0.0,0.0,0.0,0.0,0.0,0.0,0.0,0.0,0.0,0.0,0.0,-3.8871,-3.9692,0.0,-4.0241,-4.0511,-4.0955,-4.1575,-4.2006,-4.2376,-4.2668,-4.2954,-4.3335,-4.3864,-4.3831,-4.4102,-4.4766,-4.4858,-4.5108,-4.5546,-4.5546,-4.5598,-4.5675,-4.5675,-4.5667,-4.5667,-4.5718,-4.5675,-4.5615,-4.5667,-4.5648,-4.5541,-4.5541,-4.4929,-4.4024,-4.4185,-4.3664,-4.2847,0.0,0.0,0.0,0.0,0.0,0.0,0.0,0.0,-1.6026,-1.6384,-1.631,-1.6479,-1.7109,-1.7007,-1.716,-1.7843,-1.7873,-1.8062,-1.8419,-1.8928,-1.8968,-1.8448,-1.9842,-2.1184,-2.2234,-2.2844,-2.342,-2.4048,-2.4698,-2.5275,-2.5751,-2.6398,-2.701,-2.7568,-2.8215,-2.8714,-2.9082,-2.9335,-2.9898,-3.0599,-3.0334,-3.0058,-2.9842,0.0,0.0,0.0,0.0,0.0,0.0,0.0,0.0,0.0,0.0,0.0,0.0,0.0,0.0,0.0,0.0,0.0,0.0,0.0,0.0,0.0,0.0,0.0,0.0,0.0,0.0,0.0,0.0,0.0,0.0,0.0,0.0,0.0,0.0,0.0,-3.9793,-3.8979,-4.0099,-4.0943,-4.0944,-4.0944,-4.1212,-4.1884,-4.2126,-4.2269,-4.2269,-4.2569,-4.2818,-4.3064,-4.2892,-4.318,-4.3877,-4.3889,-4.4118,-4.4601,-4.4601,-4.4756,-4.5072,-4.5125,-4.5249,-4.5459,-4.5511,-4.5476,-4.5397,-4.5397,-4.5615,-4.593,-4.593,-4.5583,-4.5065,-4.5065,-4.451,-4.362,0.0,0.0,0.0,0.0,0.0,0.0,0.0,-1.4228,-1.453,-1.4991,-1.4729,-1.4652,-1.5107,-1.4656,-1.4787,-1.5956,-1.608,-1.6835,-1.8596,-1.8163,-1.8141,-1.8773,-1.941,-2.0089,-2.0787,-2.1578,-2.208,-2.2332,-2.3217,-2.3633,-2.3642,-2.447,-2.4981,-2.5284,-2.6312,-2.6914,-2.7206,-2.7685,-2.8838,-3.0398,-3.0586,-3.0222,-2.9613,0.0,0.0,0.0,0.0,0.0,0.0,0.0,0.0,0.0,0.0,0.0,0.0,0.0,0.0,0.0,0.0,0.0,0.0,0.0,0.0,0.0,0.0,0.0,0.0,0.0,0.0,0.0,0.0,0.0,0.0,0.0,0.0,0.0,-3.6393,-3.7933,-3.8732,-3.7831,-3.9984,-4.127,-4.0623,-4.1177,-4.1555,-4.1555,-4.1555,-4.1555,-4.1555,-4.1555,-4.1867,-4.2522,-4.2222,-4.2428,-4.3246,-4.2925,-4.2831,-4.2982,-4.2982,-4.333,-4.398,-4.4078,-4.449,-4.5123,-4.5247,-4.53,-4.53,-4.531,-4.531,-4.5344,-4.5397,-4.5397,-4.5397,-4.5397,-4.4923,-4.4052,0.0,0.0,0.0,0.0,0.0,0.0,-1.2868,-1.3021,-1.3264,-1.3611,-1.3704,-1.3956,-1.4496,-1.4763,-1.5004,-1.5366,-1.55,-1.5762,-1.6183,-1.6587,-1.7536,-1.9079,-1.9124,-1.9654,-2.0877,-2.1071,-2.1218,-2.132,-2.1963,-2.2173,-2.1988,-2.3393,-2.3949,-2.3899,-2.4952,-2.5771,-2.6358,-2.6866,-2.7483,-2.812,-2.9206,-2.9865,-3.0289,0.0,0.0,0.0,0.0,0.0,0.0,0.0,0.0,0.0,0.0,0.0,0.0,0.0,0.0,0.0,0.0,0.0,0.0,0.0,0.0,0.0,0.0,0.0,0.0,0.0,0.0,0.0,0.0,0.0,0.0,0.0,-3.5585,-3.6142,-3.7113,-3.7971,-3.8426,-3.8161,-3.9183,-3.9853,-3.9671,-4.0355,-4.0799,-4.0799,-4.0799,-4.0799,-4.0799,-4.0665,-4.0786,-4.1274,-4.0833,-4.1024,-4.1997,-4.1673,-4.182,-4.2473,-4.2473,-4.2738,-4.3122,-4.3029,-4.3133,-4.3386,-4.3264,-4.3218,-4.3215,-4.3218,-4.3523,-4.4112,-4.5042,-4.5397,-4.5397,-4.5397,-4.4518,-4.3271,0.0,0.0,0.0,0.0,0.0,0.0,-1.2547,-1.2391,-1.246,-1.2889,-1.2816,-1.2992,-1.3699,-1.4158,-1.4538,-1.4764,-1.466,-1.4757,-1.5127,-1.5475,-1.6184,-1.7435,-1.7307,-1.77,-1.879,-1.8805,-1.8805,-1.8805,-1.9819,-2.0231,-2.0099,-2.1777,-2.2735,-2.3135,-2.3759,-2.4599,-2.5577,-2.5771,-2.6142,-2.6744,-2.7655,-2.8685,-2.975,-3.0063,-3.0148,-3.0069,-3.0241,-3.011,-2.9878,-2.9753,0.0,0.0,0.0,0.0,0.0,0.0,0.0,0.0,0.0,0.0,0.0,0.0,0.0,0.0,0.0,0.0,0.0,0.0,0.0,0.0,0.0,0.0,0.0,0.0,-3.5347,-3.5836,-3.6689,-3.739,-3.778,-3.7629,-3.834,-3.8977,-3.926,-3.9733,-4.013,-4.0455,-4.0489,-4.0489,-4.0489,-4.037,-4.0439,-4.0662,-4.0281,-4.0355,-4.0959,-4.0718,-4.0854,-4.1327,-4.1327,-4.1575,-4.2046,-4.1965,-4.2141,-4.2487,-4.2423,-4.2407,-4.2406,-4.24,-4.2632,0.0,0.0,0.0,0.0,0.0,-4.3995,-4.2584,0.0,0.0,0.0,0.0,0.0,0.0,-1.2492,-1.2025,-1.1861,-1.2507,-1.2141,-1.2118,-1.3007,-1.3302,-1.3594,-1.403,-1.3531,-1.3663,-1.4595,-1.4471,-1.4496,-1.4925,-1.4951,-1.5305,-1.5879,-1.5891,-1.5891,-1.5891,-1.7397,-1.8126,-1.8126,-1.9738,-2.1167,-2.2324,-2.2475,-2.3194,-2.4322,-2.4322,-2.4845,-2.5635,-2.6041,-2.71,-2.8509,-2.8437,-2.897,-2.9632,-2.9447,-2.9559,-2.9786,-2.9747,0.0,0.0,0.0,0.0,0.0,0.0,0.0,0.0,0.0,0.0,0.0,0.0,0.0,0.0,0.0,0.0,0.0,0.0,0.0,0.0,0.0,0.0,0.0,0.0,-3.5331,-3.571,-3.571,-3.6452,-3.6894,-3.6503,-3.7401,-3.8288,-3.8883,-3.9079,-3.9484,-4.0196,-4.0316,-4.0385,-4.0385,0.0,0.0,0.0,0.0,-4.0111,-4.0196,-4.0016,-3.9925,-3.996,-3.996,-4.0281,-4.0873,-4.101,-4.1363,-4.1917,-4.2013,-4.2061,-4.2045,-4.2075,-4.2106,-4.2276,-4.2994,-4.3682,-4.4271,-4.4214,-4.3278,-4.199,0.0,0.0,0.0,0.0,0.0,0.0,-1.1332,-1.1352,-1.1484,-1.1859,-1.211,-1.249,-1.3044,-1.3033,-1.2879,-1.2547,-1.1987,-1.1757,-1.2112,-1.2455,-1.3209,-1.4378,-1.478,-1.5258,-1.5891,-1.5891,-1.5891,-1.5891,-1.6205,-1.6358,-1.6411,-1.7601,-1.8314,-1.862,-1.9966,-2.059,-2.0751,-2.2484,-2.3185,-2.3276,-2.4402,-2.6124,-2.8099,-2.847,-2.9218,-3.0034,-2.9796,-3.0,-3.0368,-2.9917,-2.9791,-2.982,-2.9642,-3.0044,0.0,0.0,0.0,0.0,0.0,0.0,0.0,0.0,0.0,0.0,0.0,0.0,0.0,0.0,0.0,0.0,0.0,0.0,0.0,-3.5425,-3.5642,-3.571,-3.571,-3.5871,-3.5897,-3.5656,-3.6096,-3.6503,-3.6621,-3.7729,-3.8486,-3.8634,-3.925,-3.9625,-3.9625,-3.9625,-3.9768,-4.0101,-3.9732,-3.9696,-4.0031,-3.9711,-3.9604,-3.9768,0.0,0.0,-4.0191,-4.0056,-4.0076,-4.02,-4.0045,-3.9975,-3.9964,-3.9982,-4.0381,-4.1134,-4.219,-4.2664,-4.2764,-4.2565,-4.1945,-4.118,0.0,0.0,0.0,0.0,0.0,0.0,-1.1187,-1.123,-1.1391,-1.1666,-1.1908,-1.2237,-1.2711,-1.2415,-1.2094,-1.1934,-1.1266,-1.0684,-1.0502,-1.0959,-1.1628,-1.2466,-1.2734,-1.3014,-1.328,-1.328,-1.3604,-1.4153,-1.4471,-1.4905,-1.5464,-1.6299,-1.6969,-1.7542,-1.8366,-1.9147,-1.9878,-2.0853,-2.1371,-2.1633,-2.2953,-2.4119,-2.515,-2.6615,-2.7751,-2.8637,-2.8509,-2.869,-2.9014,-2.8731,-2.9004,-2.937,-2.9281,-2.9799,-3.0197,0.0,0.0,0.0,0.0,0.0,0.0,0.0,0.0,0.0,0.0,0.0,0.0,0.0,0.0,-3.3498,-3.3661,0.0,-3.4848,-3.5588,-3.571,-3.571,-3.571,-3.571,-3.5642,-3.544,-3.5588,-3.5803,-3.6096,-3.6741,-3.7285,-3.7668,-3.7956,-3.8144,-3.8144,-3.8144,-3.8435,-3.9068,-3.8885,-3.9068,-3.9676,-3.9496,-3.9445,-3.9553,-3.9553,-3.9589,-3.9711,-3.9589,-3.9553,-3.9553,-3.9445,-3.9388,-3.9394,-3.939,-3.9711,-4.0256,-4.0839,-4.1479,-4.2061,-4.1852,-4.1101,-4.0188,0.0,0.0,0.0,0.0,0.0,0.0,0.0,-1.1305,-1.1391,-1.1666,-1.1741,-1.1839,-1.2031,-1.162,-1.1197,-1.0955,-1.0036,-0.9341,-0.9106,-0.9531,-0.9987,-1.0491,-1.0503,-1.0558,-1.0726,-1.0726,-1.116,-1.2091,-1.2783,-1.3604,-1.4493,-1.525,-1.6033,-1.6863,-1.6962,-1.7745,-1.9043,-1.9154,-1.9531,-2.0218,-2.1422,-2.1979,-2.2291,-2.406,-2.5605,-2.6785,-2.6785,-2.708,-2.7411,-2.7374,-2.7934,-2.8642,-2.8585,-2.8936,-2.9183,-2.8473,-2.8526,0.0,0.0,0.0,0.0,0.0,0.0,0.0,0.0,-3.1222,-3.1679,-3.1262,-3.2146,-3.3116,-3.3463,-3.3953,-3.4572,-3.5461,-3.5585,-3.5598,-3.5817,-3.5764,-3.5683,-3.5533,-3.5426,-3.5588,-3.6084,-3.6056,-3.6334,-3.6972,-3.6958,-3.6958,-3.6958,-3.6919,-3.7204,-3.791,-3.7947,-3.8263,-3.8907,-3.8907,-3.8907,-3.8907,-3.9068,-3.9156,-3.9156,-3.9352,-3.9388,-3.9388,-3.9301,-3.9265,-3.9301,-3.9337,-3.9445,-3.961,-3.9717,-4.0459,-4.1442,-4.1276,-4.0397,-3.9251,0.0,0.0,0.0,0.0,0.0,0.0,0.0,0.0,-1.1391,-1.1666,-1.1927,-1.1733,-1.0882,-1.0985,-1.0189,-0.7939,-0.6749,-0.6426,-0.7167,-0.7637,-0.8478,-0.9834,-0.9889,-1.0167,-1.0672,-1.0726,-1.0781,-1.0891,-1.1978,-1.2575,-1.2743,-1.3851,-1.4455,-1.4617,-1.5089,-1.5405,-1.5666,-1.7127,-1.8067,-1.87,-1.9576,-2.0818,-2.2072,-2.1869,-2.3425,-2.577,-2.577,-2.6376,-2.7117,-2.6958,-2.6979,-2.7026,-2.6778,-2.6502,-2.6362,-2.6645,-2.6516,-2.6379,-2.6843,-2.7817,-2.874,-2.8623,-2.9116,-2.95,0.0,-2.984,-3.0789,-3.1154,-3.2133,-3.3158,-3.3576,-3.3711,-3.411,-3.5078,-3.5116,-3.5274,-3.62,-3.6064,-3.5858,-3.5858,-3.5598,-3.544,-3.5467,-3.5964,-3.6294,-3.6373,-3.6869,-3.7165,-3.7165,-3.6996,-3.6919,-3.7049,-3.7049,-3.7088,-3.7204,-3.7204,-3.7204,-3.7204,-3.7947,-3.8315,-3.8352,-3.9068,-3.9388,-3.9388,-3.9017,-3.887,-3.887,-3.9068,-3.9141,-3.9213,-3.9747,-4.0066,-4.0191,-4.0156,-3.956,-3.877,0.0,0.0,0.0,0.0,0.0,0.0,0.0,0.0,0.0,-1.0641,-1.0283,-0.9732,-0.9026,-0.8371,-0.7352,-0.5882,-0.5349,-0.5284,-0.5679,-0.6076,-0.6586,-0.7193,-0.7249,-0.7415,-0.7864,-0.7864,-0.8192,-0.8903,-0.9728,-1.0714,-1.191,-1.2748,-1.3527,-1.4196,-1.4401,-1.4724,-1.5035,-1.5767,-1.6399,-1.7035,-1.8387,-1.9583,-2.0723,-2.131,-2.2531,-2.3895,-2.3602,-2.3992,0.0,-2.4524,-2.4948,-2.5599,-2.5711,-2.5781,-2.5791,-2.571,-2.6002,-2.6637,-2.7837,-2.8362,-2.8726,-2.9625,-2.9997,-3.0176,-3.0222,-3.0467,-3.0806,-3.0963,-3.1422,-3.1985,-3.2745,-3.2873,-3.3186,-3.4193,-3.4251,-3.4297,-3.4555,-3.5015,-3.5123,-3.4632,-3.4969,-3.5279,-3.5235,-3.5087,-3.5032,-3.5032,-3.5128,-3.5142,-3.5142,-3.5061,-3.521,-3.5547,-3.5547,-3.5734,-3.6065,-3.6251,-3.6344,-3.6344,-3.6827,-3.7035,-3.7035,-3.7367,-3.7482,-3.7367,-3.7031,-3.6863,-3.6901,-3.6979,-3.7405,-3.7988,-3.7981,-3.8574,-3.9481,-3.9604,-3.8937,-3.7977,0.0,0.0,0.0,0.0,0.0,0.0,0.0,0.0,0.0,0.0,-0.8803,-0.8089,-0.7596,-0.6189,-0.5181,-0.4924,-0.4678,-0.4535,-0.4531,-0.4754,-0.4934,-0.5146,-0.5148,-0.5316,-0.5708,-0.5708,-0.6093,-0.6972,-0.7747,-0.8844,-1.0315,-1.1583,-1.2635,-1.3467,-1.397,-1.4407,-1.4773,-1.4773,-1.5095,-1.5779,-1.6975,-1.8067,-1.9147,-2.0417,-2.1345,-2.201,-2.1987,-2.2221,-2.2514,-2.2417,-2.3018,-2.3851,-2.4121,-2.4345,-2.4441,-2.4359,-2.4996,-2.6106,-2.793,-2.8177,-2.8355,-3.015,-3.0474,-3.0468,-3.0741,-3.0685,-3.0621,-3.0754,-3.0836,-3.1151,-3.1968,-3.2087,-3.2412,-3.3397,-3.3444,-3.3397,-3.3467,-3.401,-3.4144,-3.3498,-3.4117,-3.4551,-3.4533,-3.4321,-3.4202,-3.4202,-3.3937,-3.381,-3.381,-3.3755,-3.3911,-3.4361,-3.4361,-3.4541,-3.4994,-3.5224,-3.5305,-3.5305,-3.5694,-3.5854,-3.5894,-3.6093,-3.6079,-3.588,-3.5587,-3.5386,-3.5332,-3.5332,-3.5841,-3.6551,-3.637,-3.727,-3.8642,-3.8494,-3.7992,-3.7396,0.0,0.0,0.0,0.0,0.0,0.0,0.0,0.0,0.0,0.0,0.0,0.0,0.0,-0.5356,-0.4607,-0.5317,-0.4423,-0.3881,-0.3922,-0.3659,-0.3792,-0.4474,-0.4536,-0.4814,-0.5371,-0.5427,-0.5427,-0.5483,-0.6586,-0.7193,-0.7304,-1.0206,-1.1574,-1.1688,-1.3413,-1.4196,-1.4191,-1.4191,-1.4563,-1.5035,-1.5089,-1.608,-1.7666,-1.8461,-1.9451,-2.0494,-2.1634,-2.195,-2.1804,-2.1526,-2.1478,-2.1518,-2.1487,-2.1294,-2.1226,-2.2116,-2.2763,-2.3717,-2.6017,-2.6712,-2.7232,-2.9311,-2.9813,-2.9774,-2.9582,-2.9708,-2.9975,-3.0439,-3.0726,-3.1068,-3.1538,-3.1626,-3.1971,-3.3055,-3.2767,-3.2805,-3.3836,-3.3464,-3.3075,-3.3004,-3.3042,-3.3068,0.0,-3.3849,-3.4397,-3.4397,-3.4202,-3.4076,-3.4076,-3.3852,-3.3713,-3.3713,-3.3713,-3.3755,-3.3755,-3.3755,-3.3755,-3.3797,-3.4622,-3.502,-3.5061,-3.5854,-3.6079,-3.5894,-3.548,-3.5156,-3.4939,-3.4939,-3.4939,-3.5021,-3.5586,-3.6549,-3.7429,-3.6408,-3.6509,-3.7193,0.0,0.0,0.0,0.0,0.0,0.0,0.0,0.0,0.0,0.0,0.0,0.0,0.0,0.0,0.0,0.0,-0.4049,-0.374,-0.3592,-0.3607,-0.3695,-0.3793,-0.3877,-0.4091,-0.4482,-0.4482,-0.4482,-0.4482,-0.526,-0.5924,-0.6528,-0.8731,-1.0378,-1.1574,-1.297,-1.3807,-1.4196,-1.4196,-1.4299,-1.4509,-1.488,-1.5653,-1.6756,-1.7237,-1.816,-1.9204,0.0,-2.038,-2.1195,-2.1101,-2.1062,-2.1105,-2.1336,-2.1251,-2.1232,-2.1952,-2.2447,-2.3164,-2.4979,-2.57,-2.6478,-2.8819,-2.9415,-2.9661,-3.0669,-3.0947,-3.103,-3.1193,-3.0826,-3.0493,-3.0657,-3.069,-3.0778,-3.1162,-3.1606,-3.1874,-3.1874,-3.2314,-3.2354,-3.1609,-3.1871,0.0,0.0,0.0,0.0,-3.3539,-3.3454,-3.3454,-3.3454,-3.3368,-3.3227,-3.3043,-3.3056,-3.297,-3.2853,-3.297,-3.3056,-3.3043,-3.3501,-3.3755,-3.3755,-3.3843,-3.383,-3.3746,-3.3475,-3.3318,-3.3232,-3.3232,-3.3602,-3.4098,-3.3847,-3.4674,-3.5905,-3.4758,-3.4612,-3.5082,0.0,0.0,0.0,0.0,0.0,0.0,0.0,0.0,0.0,0.0,0.0,0.0,0.0,0.0,0.0,0.0,0.0,-0.3804,-0.3665,-0.3642,-0.3609,-0.3503,-0.3473,-0.3515,-0.373,-0.3732,-0.3732,-0.3732,-0.416,-0.4675,-0.5271,-0.7535,-0.9171,-1.0315,-1.2368,-1.3537,-1.3916,-1.3992,-1.4062,-1.4104,-1.4336,-1.4815,-1.5351,-1.5916,-1.6639,0.0,-1.8115,-1.9036,-1.9948,-2.0382,-2.053,-2.0619,-2.1036,-2.1081,-2.114,-2.1645,-2.1889,-2.2418,-2.4353,-2.5041,-2.5835,-2.8256,-2.8847,-2.9135,-3.0172,-3.0722,-3.0991,-3.0991,-3.0565,-3.0209,-3.0209,-3.0209,-3.01,-2.9751,-3.0406,-3.0824,-3.0491,-3.0965,-3.1155,-3.0734,-3.104,-3.1083,0.0,0.0,0.0,-3.2077,-3.2351,-3.2568,-3.2568,-3.2896,-3.3025,-3.2853,-3.2853,-3.2766,-3.2649,-3.2766,-3.2853,-3.2853,-3.3025,-3.3124,-3.3068,-3.2939,-3.281,-3.2667,-3.255,-3.2475,-3.24,-3.24,-3.2723,-3.3177,-3.2769,-3.3521,-3.4696,-3.3394,-3.3159,-3.3544,0.0,0.0,0.0,0.0,0.0,0.0,0.0,0.0,0.0,0.0,0.0,0.0,0.0,0.0,0.0,0.0,0.0,0.0,-0.4071,-0.3664,-0.3489,-0.3569,-0.3379,-0.323,-0.323,-0.323,-0.323,-0.318,-0.3346,-0.3405,-0.3568,-0.6513,-0.7987,-0.8268,-1.1679,-1.328,-1.3324,-1.3636,-1.3803,-1.3782,-1.3566,-1.347,-1.3585,-1.4521,-1.49,-1.5187,-1.7156,-1.7894,-1.8133,-1.9455,-1.9899,-2.0007,-2.0525,-2.0715,-2.0739,-2.1104,-2.1066,-2.1458,-2.404,-2.473,-2.5247,-2.755,-2.8116,-2.8106,-2.815,-2.8989,-2.9776,-2.9724,-2.9884,-2.9992,-2.997,-3.0052,-2.9838,-2.8957,-2.9428,-2.9904,-2.9854,-2.9646,-2.9717,-3.0338,-3.0439,-3.0345,-3.0079,-3.0057,0.0,-3.0034,0.0,-3.1536,-3.1536,-3.2438,-3.2939,-3.2939,-3.2939,-3.2982,-3.3025,-3.3068,-3.3068,-3.3025,-3.3025,-3.3025,-3.3025,-3.3025,-3.2896,-3.2711,-3.2711,-3.2593,-3.2444,-3.2444,-3.2444,-3.2431,-3.2431,-3.3031,-3.3795,-3.239,-3.2209,-3.2673,0.0,0.0,0.0,0.0,0.0,0.0,0.0,0.0,0.0,0.0,0.0,0.0,0.0,0.0,0.0,0.0,0.0,0.0,-0.3732,-0.3703,-0.3639,-0.3482,-0.3628,-0.3632,-0.3484,-0.3484,-0.3383,-0.318,-0.3211,-0.3708,-0.4533,-0.6242,-0.7886,-0.9565,-1.1383,-1.2663,-1.3445,-1.3536,-1.3566,-1.3561,-1.3502,-1.3367,-1.324,-1.3469,-1.373,-1.4093,-1.5771,-1.6608,-1.7232,-1.9058,-1.9845,-2.0102,-2.0518,-2.0609,-2.0674,-2.0957,-2.1087,-2.1495,-2.3074,-2.3608,-2.4212,-2.6416,-2.6952,-2.7084,-2.7717,-2.8058,-2.8078,-2.7471,-2.7385,-2.7337,-2.7073,-2.8197,-2.9088,-2.8836,-3.0117,-3.1066,-3.0874,-3.0761,-3.0756,-3.0692,-3.0234,-2.9724,-2.9324,-2.88,0.0,0.0,-2.9624,-3.0576,-3.0576,-3.08,-3.0935,-3.0935,-3.0935,-3.1258,-3.1989,-3.2711,-3.2711,-3.1989,-3.1989,-3.1989,-3.1989,-3.1989,-3.2351,-3.2995,-3.2995,-3.2995,-3.2909,-3.2909,-3.2909,-3.2909,-3.268,-3.2927,-3.3144,-3.181,-3.1483,-3.1599,0.0,0.0,0.0,0.0,0.0,0.0,0.0,0.0,0.0,0.0,0.0,0.0,0.0,0.0,0.0,0.0,0.0,0.0,0.0,-0.3575,-0.3481,-0.3342,-0.3414,-0.3408,-0.3315,-0.3697,-0.3647,-0.3074,-0.3948,-0.4493,-0.4738,-0.6481,-0.8077,-0.9595,-1.1142,-1.2282,-1.3105,-1.326,-1.3313,0.0,0.0,-1.3082,-1.2953,-1.2953,-1.3073,-1.3437,-1.5188,-1.6651,-1.8,-1.9288,-2.0079,-2.0514,-2.0722,-2.0692,-2.0677,-2.0988,-2.103,-2.1269,-2.2317,-2.2922,-2.3611,-2.4798,-2.5286,-2.5523,-2.5666,-2.6046,-2.6267,-2.5666,-2.5571,-2.5599,-2.5548,-2.6967,-2.8121,-2.7804,-2.958,-3.0906,-3.0615,-3.0604,-3.0654,-3.0785,-3.0248,-2.9621,-2.9037,-2.8478,-2.7883,-2.734,-2.8678,-2.9532,-2.9532,-2.9943,-3.0215,-3.0215,-3.0215,-3.0441,-3.0991,-3.1536,-3.1524,-3.0991,-3.0991,-3.0991,-3.0991,-3.0991,-3.1303,-3.1845,-3.1845,-3.1845,-3.1845,-3.1845,-3.1845,-3.1845,-3.1889,-3.1989,-3.1998,-3.102,-3.0741,-3.0663,0.0,0.0,0.0,0.0,0.0,0.0,0.0,0.0,0.0,0.0,-0.5791,-0.4567,0.0,0.0,0.0,0.0,0.0,0.0,0.0,0.0,-0.3583,-0.3583,-0.3452,-0.3365,-0.332,-0.4121,-0.4121,-0.3275,-0.5002,-0.5561,-0.5016,-0.7103,-0.8488,-0.9315,-1.1032,-1.2052,-1.2603,-1.2936,-1.306,-1.3039,-1.2894,-1.2813,-1.2813,0.0,-1.2856,-1.3244,-1.5276,-1.7428,-1.9415,-1.9749,-2.033,-2.092,-2.0913,-2.0736,-2.0606,-2.0875,-2.0844,-2.0911,-2.1735,-2.2497,-2.3061,-2.313,-2.3557,-2.3858,-2.3107,-2.3732,-2.4391,-2.3947,-2.4023,-2.4302,-2.4644,-2.6034,-2.7008,-2.6671,-2.8567,-3.0084,-2.9962,-2.9951,-3.0192,-3.0732,-3.0414,-2.9846,-2.9087,-2.8638,-2.8101,-2.7351,-2.8034,-2.8491,-2.8491,-2.936,-2.9806,-2.9806,-2.9943,-2.9988,-2.9988,-3.0068,-3.0022,-2.9886,-2.9841,-2.9795,-2.9795,-2.9795,-2.9886,-2.9977,-2.9977,-3.0022,-3.0068,-3.0022,-3.0022,-3.0113,-3.0474,-3.0609,-3.0538,-2.9922,-2.9725,-2.957,0.0,0.0,0.0,0.0,0.0,0.0,0.0,0.0,0.0,0.0,-0.7592,-0.5602,0.0,0.0,0.0,0.0,0.0,0.0,0.0,0.0,0.0,-0.5581,-0.5716,-0.5719,-0.5539,-0.5714,-0.5583,-0.523,-0.5581,-0.6322,-0.7471,-0.7923,-0.9106,-1.0918,-1.1431,-1.192,-1.2464,-1.271,-1.2872,-1.2867,-1.2829,-1.2813,-1.2813,-1.2813,0.0,0.0,-1.6311,-1.7893,-1.9161,-1.9701,-2.0157,-2.0502,-2.0327,-2.0209,-2.0174,-2.0236,-2.0279,-2.0511,-2.1357,-2.1727,-2.1978,-2.217,-2.2699,-2.2936,-2.2144,-2.2477,-2.2704,-2.1704,-2.2112,-2.2713,-2.2787,-2.4283,-2.5877,-2.7117,-2.8593,-2.9789,-3.053,-3.0839,-3.0944,-3.0817,-3.0535,-2.998,-2.9079,-2.8734,0.0,0.0,-2.7441,-2.7536,-2.7536,-2.7715,-2.7809,-2.7809,-2.8538,-2.8945,-2.8945,-2.9326,-2.9131,-2.8287,-2.7934,-2.7699,-2.7699,-2.7699,-2.8136,-2.8892,-2.8892,0.0,-2.9498,-2.9041,-2.9144,-2.9498,-2.9133,-2.8984,-2.8908,-2.8033,-2.7688,-2.7543,0.0,0.0,0.0,0.0,0.0,0.0,0.0,-1.1252,-1.099,-1.0219,-0.8985,-0.7694,-0.6281,-0.6018,-0.5885,0.0,0.0,0.0,0.0,0.0,0.0,0.0,-0.6071,-0.5985,-0.5894,-0.6381,-0.6425,-0.6068,0.0,-0.783,-0.8342,-0.8935,-0.9899,-1.1151,-1.1374,-1.1755,-1.2242,-1.2479,-1.2581,-1.2592,-1.2764,-1.2813,-1.2813,0.0,0.0,0.0,-1.6781,-1.8136,-1.9241,-1.9399,-1.985,-2.0406,-2.0346,-2.0189,-2.0078,-1.9931,-1.9925,-2.006,-2.0484,-2.0964,-2.1316,-2.1293,-2.1732,-2.1921,-2.0969,-2.1164,-2.1307,-2.0437,-2.0787,-2.1368,-2.1766,-2.3202,-2.4727,-2.5924,-2.748,-2.8756,-2.9529,-2.9485,-2.9743,-3.0505,-2.9963,-2.929,-2.869,-2.8347,-2.772,-2.6547,-2.6476,-2.6716,-2.7262,-2.7023,-2.688,-2.688,-2.7183,-2.7363,-2.7363,-2.7579,-2.7426,-2.6962,-2.658,-2.6446,-2.6446,-2.6446,-2.6665,-2.7101,-2.7101,-2.7253,-2.7453,-2.7206,-2.7253,-2.7463,-2.7489,-2.7537,-2.7421,-2.6713,-2.6453,-2.6315,0.0,0.0,0.0,0.0,0.0,0.0,-1.1536,-1.1687,-1.1449,-1.0328,-1.0254,-0.9792,-0.8629,-0.7977,-0.7474,0.0,0.0,0.0,0.0,0.0,0.0,0.0,0.0,0.0,-0.6383,0.0,0.0,-0.6943,-0.8524,0.0,0.0,0.0,0.0,0.0,-1.1774,-1.2135,-1.2621,-1.288,-1.301,0.0,0.0,-1.3426,0.0,0.0,0.0,0.0,0.0,-1.8286,-1.9178,-1.9091,-1.9524,-2.0134,-2.0237,-2.0138,-1.9928,-1.9678,-1.9658,-1.9713,-1.9713,-2.0262,-2.0749,-2.0416,-2.0746,-2.0956,-1.9935,-2.0111,-2.0246,-1.9565,-1.9737,-2.0239,-2.103,-2.2215,-2.3374,-2.4303,-2.5844,-2.7156,-2.788,-2.7574,-2.7859,-2.9398,-2.8668,-2.7953,-2.7722,-2.7258,0.0,-2.5508,-2.5441,-2.5887,-2.6918,-2.6534,-2.6342,-2.64,-2.6197,-2.6149,-2.6197,-2.6091,-2.5994,-2.5994,-2.5693,-2.5557,-2.5557,-2.5557,-2.5557,-2.5557,-2.5557,-2.5596,-2.5693,-2.5606,-2.5548,-2.5645,-2.5926,-2.5963,-2.5785,-2.5344,-2.5118,-2.4972,0.0,0.0,0.0,0.0,0.0,0.0,-1.1742,-1.2065,-1.2072,-1.1273,-1.1336,-1.1265,-1.0771,-0.9177,-0.8017,0.0,0.0,0.0,0.0,0.0,0.0,0.0,0.0,0.0,0.0,0.0,0.0,-0.8683,-0.9078,0.0,0.0,0.0,0.0,0.0,0.0,-1.3877,-1.425,-1.4799,0.0,0.0,0.0,0.0,0.0,0.0,0.0,0.0,0.0,-1.8628,-1.8668,-1.917,-1.9257,-1.9168,-1.947,-1.9598,-1.96,-1.9333,-1.9265,-1.9375,-1.9375,-1.961,-1.9832,-1.9501,-1.9828,-2.0043,-1.9247,-1.9527,-1.9766,-1.9017,-1.892,-1.9228,-2.0207,-2.0717,-2.1482,-2.3091,-2.3881,-2.4793,-2.6039,-2.5947,-2.5997,-2.6769,-2.6309,-2.5882,-2.5839,-2.495,-2.4401,-2.4597,-2.459,-2.4992,-2.579,-2.579,-2.5897,-2.6149,-2.6091,-2.6197,-2.6448,-2.5994,-2.5742,-2.5742,-2.5216,-2.4981,-2.4981,-2.4981,-2.4981,-2.4981,-2.4981,-2.5265,0.0,-2.5167,-2.5128,-2.5284,-2.4824,-2.4296,-2.3731,-2.3334,-2.2927,-2.2583,0.0,0.0,0.0,0.0,0.0,0.0,-1.2677,-1.2638,-1.2525,-1.2242,-1.2267,-1.2056,-1.1312,-1.0348,-0.9591,-0.9167,0.0,0.0,0.0,0.0,0.0,0.0,0.0,0.0,0.0,0.0,-0.9601,-0.9843,-1.0465,0.0,0.0,0.0,0.0,0.0,0.0,-1.3851,-1.417,-1.4614,0.0,0.0,0.0,0.0,0.0,0.0,0.0,0.0,0.0,0.0,-1.8897,-1.887,-1.9052,-1.9209,-1.8949,-1.9064,-1.921,-1.9217,-1.9225,-1.9272,-1.9272,-1.9419,-1.9492,-1.9308,-1.9332,-1.921,-1.8699,-1.8885,-1.8994,-1.8466,-1.8596,-1.9025,-1.9645,-2.0159,-2.0712,-2.1393,-2.2213,-2.3065,-2.3974,-2.3834,-2.4176,-2.5496,-2.4711,-2.4079,-2.4132,0.0,-2.2627,-2.2375,-2.2333,-2.2534,-2.3044,-2.3989,-2.4747,-2.5372,-2.4922,-2.4922,-2.5518,-2.547,-2.547,-2.547,-2.5079,-2.4883,-2.4883,-2.4883,-2.4883,-2.4883,-2.4883,-2.503,0.0,-2.4981,-2.4981,-2.5039,-2.4833,-2.4335,-2.3694,-2.3278,-2.2769,-2.2217,0.0,0.0,0.0,0.0,0.0,-1.3691,-1.336,-1.3117,-1.2933,-1.2721,-1.2664,-1.2354,-1.1484,-1.1041,-1.0723,-1.0352,-0.9724,0.0,0.0,0.0,0.0,0.0,0.0,0.0,0.0,0.0,-1.0458,-1.0777,-1.1409,-1.2169,0.0,0.0,-1.3606,-1.4493,0.0,0.0,0.0,0.0,0.0,0.0,0.0,0.0,0.0,0.0,0.0,0.0,0.0,0.0,0.0,0.0,0.0,-1.9263,-1.8737,-1.8769,-1.898,-1.9068,-1.9062,-1.9069,-1.9243,-1.9302,-1.9279,-1.9279,-1.903,-1.8701,-1.8379,-1.8342,-1.8253,-1.7914,-1.8125,-1.8512,-1.8941,-1.9447,-1.982,-1.9881,-2.0624,-2.1406,-2.196,-2.1836,-2.225,-2.3759,-2.2792,-2.2161,-2.2421,-2.1711,-2.088,-1.9975,-2.0372,-2.0731,-2.0834,-2.2038,-2.3144,-2.4016,-2.352,-2.352,-2.4165,-2.4372,-2.447,-2.447,-2.4273,-2.4372,-2.4667,-2.4313,-2.4372,-2.4677,-2.4322,-2.4174,0.0,-2.4174,-2.4115,-2.4057,-2.3947,-2.3508,-2.2868,-2.2501,-2.1965,-2.1461,0.0,0.0,0.0,0.0,0.0,0.0,-1.3582,-1.3485,-1.325,-1.2489,-1.2409,-1.214,-1.1386,-1.1138,-1.1016,-1.107,-0.9647,0.0,0.0,0.0,0.0,0.0,0.0,0.0,0.0,0.0,-1.1382,-1.1382,-1.1611,-1.2487,-1.397,-1.397,-1.5014,-1.6839,0.0,0.0,0.0,0.0,0.0,0.0,0.0,0.0,0.0,0.0,0.0,0.0,0.0,0.0,0.0,0.0,0.0,0.0,0.0,-1.8781,-1.8806,-1.8863,-1.8834,-1.879,-1.9104,-1.9228,-1.9279,-1.9279,-1.903,-1.8701,-1.8379,-1.805,-1.7721,-1.7391,-1.7333,-1.7522,-1.8077,-1.8439,-1.8657,-1.869,-1.9219,-1.9755,-2.0158,-1.9979,-2.0154,-2.1063,-2.039,-2.0028,-2.0597,-2.0083,-1.9153,-1.774,-1.9198,0.0,-1.9732,-2.0233,-2.1038,-2.2089,-2.2139,-2.224,-2.2534,-2.2542,-2.2542,-2.2542,-2.2542,-2.3085,-2.4088,-2.2994,-2.3085,-2.4038,-2.2994,-2.2534,0.0,-2.2534,-2.2391,-2.2106,-2.1752,-2.1243,-2.057,-2.0254,-1.989,-1.9675,0.0,0.0,0.0,0.0,0.0,0.0,-1.4064,-1.3909,-1.3673,-1.345,-1.3292,-1.2935,-1.2277,-1.2015,-1.1729,-1.1356,-1.0573,0.0,0.0,0.0,0.0,0.0,0.0,0.0,0.0,-1.1821,-1.23,-1.2412,-1.3547,-1.4426,-1.5045,-1.5295,-1.595,-1.6895,-1.7143,-1.7523,0.0,0.0,0.0,0.0,0.0,0.0,-2.0155,0.0,0.0,0.0,0.0,0.0,0.0,0.0,0.0,0.0,0.0,0.0,0.0,-1.9388,-1.9099,-1.8814,-1.8719,-1.8958,-1.9062,-1.8647,-1.8464,-1.8304,-1.8047,-1.7721,-1.741,-1.7301,-1.7279,-1.7355,-1.7551,-1.7988,-1.8278,-1.8093,-1.8763,-1.9318,-1.9227,-1.9707,-2.0175,-2.0434,-2.0081,-1.9625,-1.9132,0.0,-1.8632,-1.816,-1.8632,-1.9004,-1.9175,-1.9324,-2.0138,-2.1759,-2.1446,-2.1582,-2.224,-2.2391,-2.2484,-2.2484,-2.2484,-2.2685,-2.2985,-2.2634,-2.2693,-2.2994,-2.2643,-2.2484,-2.2484,-2.2484,-2.2442,-2.2374,-2.2264,-2.1793,-2.1211,-2.1094,-2.0682,-2.0233,0.0,0.0,0.0,0.0,0.0,0.0,-1.4298,-1.4075,-1.387,-1.3773,-1.3441,-1.2973,-1.2293,-1.2237,-1.2138,-1.1863,-1.1846,0.0,0.0,0.0,0.0,0.0,0.0,0.0,-1.2027,-1.2872,-1.3346,-1.3462,-1.4636,-1.5407,-1.5814,-1.636,-1.6944,-1.755,-1.7928,-1.8297,0.0,0.0,0.0,0.0,0.0,0.0,-2.0428,0.0,0.0,0.0,0.0,0.0,0.0,0.0,0.0,0.0,0.0,0.0,0.0,0.0,-1.9404,-1.913,-1.8885,-1.9028,-1.9059,-1.8434,-1.8263,-1.8137,-1.7812,-1.7526,-1.7279,-1.7279,-1.7279,-1.7279,-1.7279,-1.7628,-1.7816,-1.7633,-1.8218,-1.8703,-1.8803,-1.9418,-1.9872,-1.9872,-1.9704,-1.9309,0.0,-1.8411,-1.8422,-1.8422,-1.8534,-1.8698,-1.8869,-1.9026,-1.9583,-2.0755,-2.049,-2.0534,-2.1038,-2.1183,-2.1285,-2.1285,-2.1285,-2.1489,-2.1887,-2.1489,-2.1532,-2.1887,-2.1489,-2.1285,0.0,-2.1285,-2.1285,-2.1269,-2.1131,-2.0853,-2.0452,-2.0366,-2.0035,-1.9706,0.0,0.0,0.0,0.0,0.0,0.0,0.0,-1.4057,-1.3791,-1.3589,-1.3183,-1.2623,-1.1884,-1.216,-1.2479,-1.2728,-1.3251,0.0,0.0,0.0,0.0,0.0,0.0,0.0,-1.4093,-1.4317,-1.4441,-1.4501,-1.5059,-1.5718,-1.6453,-1.7206,-1.7976,-1.8648,-1.9042,-1.9427,0.0,0.0,0.0,0.0,0.0,0.0,0.0,0.0,0.0,0.0,0.0,0.0,0.0,0.0,0.0,0.0,0.0,0.0,0.0,0.0,0.0,0.0,0.0,-1.9351,-1.9258,-1.8607,-1.8308,-1.8073,-1.7759,-1.749,0.0,-1.7279,-1.7333,-1.7326,-1.7279,-1.7333,-1.7326,-1.7279,-1.7604,-1.8035,-1.8664,-1.9074,-1.9368,-1.9368,-1.9314,-1.9084,-1.8505,-1.8462,-1.8475,-1.8475,-1.8757,-1.8928,-1.8928,-1.9175,-1.9279,-1.9279,-1.9279,-1.9279,-1.9279,-1.9279,-1.9279,-1.9279,-1.9279,-1.9828,-2.0731,-1.9724,-1.9828,0.0,-1.9732,-1.9324,-1.9331,-1.9331,-1.9316,-1.9265,-1.8906,-1.8774,-1.8716,-1.8416,-1.8299,-1.8454,0.0,0.0,0.0,0.0,0.0,0.0,0.0,0.0,0.0,0.0,-1.396,-1.3776,-1.3952,-1.4194,-1.4287,0.0,0.0,0.0,0.0,0.0,0.0,0.0,0.0,0.0,-1.4093,-1.4389,-1.4848,-1.545,-1.6146,-1.6885,-1.7615,-1.8114,-1.8623,-1.905,-1.9436,-1.9821,0.0,0.0,0.0,0.0,0.0,0.0,0.0,0.0,0.0,0.0,-2.0337,-2.0292,0.0,0.0,0.0,0.0,0.0,0.0,0.0,0.0,-2.0164,-2.009,-1.9808,0.0,-1.9054,-1.8161,-1.799,-1.785,0.0,-1.7249,-1.7224,-1.7282,-1.7481,-1.7527,-1.7333,-1.7481,-1.7527,-1.7326,-1.7604,-1.7955,-1.8357,-1.9125,-1.9705,-1.9705,-1.9665,-1.9453,-1.8753,-1.8927,-1.9116,-1.9116,-1.9175,-1.9227,-1.9227,-1.9279,-1.9279,-1.9279,-1.9279,-1.9279,-1.9279,-1.9279,-1.9279,-1.9279,-1.9279,-1.9428,-1.968,-1.9428,-1.9428,-1.968,-1.9428,-1.9428,-1.9576,-1.9376,-1.928,-1.9189,-1.892,-1.8635,-1.8408,-1.8328,-1.8299,-1.8385,0.0,0.0,0.0,0.0,0.0,0.0,0.0,0.0,0.0,0.0,-1.4708,-1.4392,-1.4291,-1.4623,-1.4668,0.0,0.0,0.0,0.0,0.0,0.0,0.0,0.0,-1.4418,-1.4966,-1.4991,-1.5494,-1.6437,-1.693,-1.7466,-1.8017,-1.8776,-1.923,-1.9453,-1.9829,-2.0103,0.0,0.0,0.0,0.0,-2.0292,0.0,0.0,0.0,0.0,0.0,-2.0292,-2.0292,0.0,-2.0292,-2.0292,-2.0292,0.0,0.0,0.0,0.0,-2.0292,-2.0246,-2.011,-1.9882,-1.9426,-1.8261,-1.8257,-1.8273,-1.7467,-1.7372,-1.7459,-1.749,-1.7481,-1.738,-1.6904,-1.7092,-1.7055,-1.6231,-1.6967,-1.7825,-1.8446,-1.869,-1.8992,-1.9482,-1.9595,-1.9456,0.0,-1.9169,-1.9279,-1.9279,-1.9279,-1.9279,-1.9279,-1.9279,-1.9279,-1.9279,-1.9279,-1.9279,-1.9279,-1.9279,-1.9279,-1.9279,-1.9279,-1.9279,-1.9279,-1.9279,-1.9279,-1.9279,-1.9279,-1.9428,-1.9665,-1.9214,-1.9096,-1.9171,-1.8721,-1.846,-1.8299,-1.8299,-1.8299,-1.8328,0.0,0.0,0.0,0.0,0.0,0.0,0.0,0.0,0.0,0.0,0.0,0.0,0.0,0.0,0.0,0.0,0.0,0.0,0.0,0.0,0.0,0.0,-1.4927,-1.5374,-1.6044,-1.5798,-1.6225,-1.7406,-1.7485,-1.7757,-1.8282,-1.9247,-1.9725,-1.9802,-2.0155,-2.0292,-2.0292,0.0,0.0,0.0,-2.0292,0.0,0.0,0.0,0.0,0.0,0.0,0.0,0.0,-2.0292,-2.0292,-2.0292,-2.0292,0.0,0.0,0.0,0.0,0.0,-2.011,-2.0053,-1.9637,-1.8394,-1.8531,-1.8654,-1.7307,-1.7244,-1.7416,-1.7318,-1.7145,-1.6824,-1.6204,-1.6399,-1.6265,-1.4986,-1.6099,-1.7415,-1.8279,-1.7832,-1.7832,-1.89,-1.9063,0.0,-1.9206,-1.925,-1.9279,-1.9279,-1.9279,-1.9279,-1.9279,-1.9279,-1.9279,-1.9279,-1.9279,-1.9279,-1.9279,-1.9279,-1.9279,-1.9279,-1.9279,-1.9279,-1.9279,-1.9279,-1.9279,-1.9279,-1.9279,0.0,-1.9657,-1.9074,-1.8904,-1.9074,-1.8449,-1.8196,-1.8152,-1.8152,-1.8054,-1.79,0.0,0.0,0.0,0.0,0.0,0.0,0.0,0.0,0.0,0.0,0.0,0.0,0.0,0.0,0.0,0.0,0.0,0.0,0.0,0.0,0.0,-1.4864,-1.5463,-1.5948,-1.6263,-1.635,-1.7054,-1.839,-1.7795,-1.816,-1.9443,-1.9614,-1.9862,-2.0215,-2.0266,-2.0292,-2.0292,-2.0292,0.0,0.0,-2.0292,0.0,0.0,0.0,0.0,0.0,0.0,0.0,0.0,-2.0292,-2.0292,-2.0292,-2.0292,0.0,0.0,0.0,0.0,0.0,-1.9371,-1.887,-1.8206,-1.7719,-1.7828,-1.7536,-1.572,-1.5735,-1.6042,-1.557,-1.5622,-1.5653,-1.5515,-1.5577,-1.5573,-1.5339,-1.5569,-1.6024,-1.659,-1.6368,-1.6605,-1.774,0.0,-1.8116,-1.8789,-1.9111,-1.9279,-1.9279,-1.9279,-1.9279,-1.9279,-1.9279,-1.9279,-1.9279,-1.9279,-1.9279,-1.9279,-1.9279,-1.9279,-1.9279,-1.9279,-1.9279,-1.9279,-1.9279,-1.9279,-1.9279,0.0,-1.9428,-1.9657,-1.9074,-1.8771,-1.8731,-1.811,-1.7721,-1.7432,-1.7432,-1.6897,-1.617,0.0,0.0,0.0,0.0,0.0,0.0,0.0,0.0,0.0,0.0,0.0,0.0,0.0,0.0,0.0,0.0,0.0,0.0,0.0,0.0,-1.5621,-1.6053,-1.68,-1.7145,-1.7051,-1.6862,-1.7575,-1.9184,-1.8635,-1.8813,-1.97,-1.9905,-2.0129,-2.0292,-2.0292,-2.0292,-2.0292,-2.0292,-2.0292,0.0,0.0,0.0,0.0,0.0,0.0,0.0,0.0,0.0,0.0,0.0,-2.0292,-2.0292,-2.0292,0.0,0.0,0.0,0.0,0.0,-1.9188,-1.821,-1.7101,-1.6704,-1.7019,-1.712,-1.5791,-1.5763,-1.5905,-1.5544,-1.5425,-1.5327,-1.5009,-1.5192,-1.5442,-1.5757,-1.466,-1.4293,-1.5811,-1.5158,-1.5018,0.0,0.0,-1.6658,-1.7199,-1.7377,-1.7457,-1.7457,-1.8048,-1.8377,-1.8377,-1.8959,-1.9279,-1.9279,-1.9279,-1.9011,-1.8377,-1.9011,-1.9279,-1.9279,-1.9279,-1.9279,-1.9279,-1.9279,-1.9279,-1.9279,0.0,-1.9324,-1.9381,-1.8758,-1.8172,-1.7539,-1.6937,-1.6306,-1.5704,-1.5704,-1.5365,-1.4984,0.0,0.0,0.0,0.0,0.0,0.0,0.0,0.0,0.0,0.0,0.0,0.0,0.0,0.0,0.0,0.0,0.0,0.0,0.0,-1.6289,-1.6655,-1.7341,-1.7828,-1.7997,-1.7838,-1.767,-1.8252,-1.9564,-1.9346,-1.9442,-1.9836,-2.0163,-2.0292,-2.0292,-2.0292,-2.0292,-2.0292,-2.0292,-2.0292,0.0,0.0,0.0,0.0,0.0,0.0,0.0,0.0,0.0,0.0,0.0,0.0,0.0,0.0,0.0,0.0,-2.0192,-1.96,-1.895,-1.8581,-1.7308,-1.5945,-1.5456,-1.6052,-1.6518,-1.5622,-1.5575,-1.5657,-1.5382,-1.5171,-1.4912,-1.4567,-1.4727,-1.5053,-1.5493,-1.3827,-1.3107,-1.5059,-1.4145,-1.3784,-1.5164,-1.524,-1.5428,-1.5949,-1.5914,-1.5914,-1.5914,-1.6776,-1.7259,-1.7206,-1.816,-1.8639,-1.8579,-1.8579,-1.816,-1.7312,-1.8101,-1.8639,-1.8907,-1.9168,-1.9279,-1.9272,-1.9011,-1.8907,-1.89,-1.8632,-1.8558,-1.8644,-1.7875,-1.7204,-1.6539,-1.5762,-1.4984,-1.4274,-1.4051,-1.413,-1.4268,0.0,0.0,0.0,0.0,0.0,0.0,0.0,0.0,0.0,0.0,0.0,0.0,0.0,0.0,0.0,0.0,0.0,0.0,0.0,-1.712,-1.7351,-1.8099,-1.7862,-1.7862,-1.8166,-1.9097,-1.9443,-1.9137,-1.956,-1.9918,-2.0249,-2.0283,-2.0292,-2.0292,-2.0292,-2.0292,-2.0292,-2.0292,-2.0292,-2.0292,-2.0292,0.0,0.0,0.0,0.0,0.0,0.0,0.0,0.0,0.0,0.0,0.0,0.0,0.0,-2.0763,-1.9849,-1.9034,-1.8149,-1.6796,-1.5621,-1.4709,-1.4147,-1.4704,-1.5036,-1.3948,-1.4188,-1.451,-1.4043,-1.3923,-1.4004,-1.4201,-1.4034,-1.384,-1.3713,-1.3278,-1.3186,-1.3745,-1.3329,-1.3475,-1.4877,-1.4818,-1.5091,-1.6187,-1.6074,-1.5914,-1.5914,-1.6187,-1.6293,-1.6021,-1.6564,-1.6776,-1.6511,-1.6511,-1.6452,-1.6399,-1.6234,-1.6664,-1.774,-1.8795,-1.9279,-1.9272,-1.822,-1.774,-1.7687,-1.6611,-1.6558,-1.7166,-1.5846,-1.5712,-1.6213,-1.49,-1.4364,-1.4202,-1.338,-1.3607,-1.4172,0.0,0.0,0.0,0.0,0.0,0.0,0.0,0.0,0.0,0.0,0.0,0.0,0.0,0.0,0.0,0.0,0.0,0.0,0.0,-1.7909,-1.8378,-1.9629,-1.9336,-1.9627,-2.0654,-1.9772,-1.9601,-2.0212,-2.0144,-2.0174,-2.0292,-2.0292,-2.0292,-2.0292,-2.0292,-2.0292,-2.0292,-2.0292,-2.0292,-2.0292,-2.0292,0.0,0.0,0.0,0.0,0.0,0.0,0.0,0.0,0.0,-2.0871,-2.0772,-2.0221,-2.0085,-1.9903,-1.8904,-1.7878,-1.6889,-1.6332,-1.511,-1.3954,-1.391,-1.3901,-1.3881,-1.3719,-1.3874,-1.3973,-1.3702,-1.3717,-1.3846,-1.3943,-1.4126,-1.4191,-1.3965,-1.3672,-1.3488,-1.3684,-1.3369,-1.3364,-1.39,-1.3846,-1.3948,-1.4379,-1.4326,-1.4272,-1.4272,-1.5013,-1.5441,-1.5334,-1.6193,-1.6677,-1.6571,-1.6571,-1.6193,-1.5494,-1.608,-1.6246,-1.5974,-1.6823,-1.7193,-1.7193,-1.6717,-1.6558,-1.6505,-1.6074,-1.5882,-1.5833,-1.5322,-1.4769,-1.4135,-1.3152,-1.2727,-1.2687,-1.2374,-1.2451,-1.2656,0.0,0.0,0.0,0.0,0.0,0.0,0.0,0.0,0.0,0.0,0.0,0.0,0.0,0.0,0.0,0.0,0.0,0.0,-1.9218,-1.9537,-2.029,-2.1638,-2.1483,-2.1945,-2.3164,-2.1514,-2.091,-2.1428,-2.0989,-2.06,-2.0292,-2.0292,-2.0292,-2.0292,-2.0292,-2.0292,-2.0292,-2.0292,-2.0292,-2.0292,-2.0292,-2.0292,0.0,0.0,0.0,0.0,0.0,0.0,0.0,0.0,-2.0673,-2.0484,-1.9575,-1.9301,-1.9072,-1.7924,-1.7055,-1.6273,-1.5665,-1.4545,-1.3629,-1.3763,-1.3444,-1.3233,-1.3697,-1.382,-1.382,-1.3814,-1.3938,-1.4024,-1.3954,-1.4207,-1.4352,-1.4116,-1.3868,-1.3753,-1.3862,-1.3591,-1.3478,-1.3591,-1.3483,-1.3423,-1.3423,-1.3369,-1.3315,-1.3315,-1.4116,-1.4535,-1.4482,-1.5399,-1.5885,-1.5773,-1.5773,-1.5399,-1.4595,-1.5286,-1.5232,-1.4482,-1.4852,-1.5441,-1.6133,-1.5755,-1.5595,-1.5595,-1.5227,-1.499,-1.4773,-1.4468,-1.3668,-1.2616,-1.2146,-1.1936,-1.1882,-1.1955,-1.1936,-1.1803,0.0,0.0,0.0,0.0,0.0,0.0,0.0,0.0,0.0,0.0,0.0,0.0,0.0,0.0,0.0,0.0,0.0,0.0,-2.074,-2.2152,-2.3302,-2.3979,-2.42,-2.4615,-2.5294,-2.4676,-2.3759,-2.2625,-2.2011,-2.1212,-2.0292,-2.0292,-2.0292,-2.0292,-2.0292,-2.0292,-2.0292,-2.0292,-2.0292,-2.0292,-2.0292,-2.0292,-2.0337,0.0,0.0,0.0,0.0,0.0,0.0,0.0,-1.9894,-1.9749,-1.9018,-1.8788,-1.8465,-1.6962,-1.6661,-1.6462,-1.4438,-1.391,-1.3829,-1.3569,-1.3292,-1.3238,-1.3712,-1.382,-1.3954,-1.4378,-1.4475,-1.4405,-1.4229,-1.4191,-1.411,-1.3857,-1.3757,-1.3807,-1.4137,-1.3921,-1.3807,-1.4142,-1.3921,-1.3699,-1.3699,-1.3478,-1.3315,-1.3315,-1.3537,-1.3591,-1.3315,-1.3867,-1.4029,-1.3699,-1.3699,-1.3699,-1.3699,-1.3423,-1.3315,-1.3315,-1.3315,-1.4493,-1.6624,-1.5494,-1.4959,-1.4905,-1.3792,-1.3636,-1.4117,-1.3049,-1.238,-1.2006,-1.2238,-1.2188,-1.2016,-1.2243,-1.2183,-1.1937,0.0,0.0,0.0,0.0,0.0,0.0,0.0,0.0,0.0,0.0,0.0,0.0,0.0,0.0,0.0,0.0,0.0,0.0,-2.2495,-2.2681,-2.3232,-2.4164,-2.4441,-2.5147,-2.6384,-2.6671,-2.5572,-2.303,-2.1814,-2.1212,-2.1257,-2.06,-2.0292,-2.0292,-2.0292,-2.0292,-2.0292,-2.0292,-2.0292,-2.0292,-2.0292,-2.0292,-2.0292,0.0,0.0,0.0,0.0,0.0,0.0,0.0,0.0,0.0,-1.8064,-1.749,-1.6962,-1.5859,-1.5158,-1.4642,-1.384,-1.3735,-1.3751,-1.3332,-1.3416,-1.3647,-1.3787,-1.382,-1.3911,-1.4229,-1.4153,-1.4013,-1.3943,-1.4078,-1.411,-1.3857,-1.3923,-1.4083,-1.4191,-1.4083,-1.4083,-1.4191,-1.4083,-1.4029,-1.4029,-1.3975,-1.3921,-1.3921,-1.4029,-1.4029,-1.3921,-1.4083,-1.4137,-1.4029,-1.4029,-1.4029,-1.4029,-1.3975,-1.3921,-1.3921,-1.3921,-1.4072,-1.4277,-1.3954,-1.3792,-1.3792,-1.3478,-1.3217,-1.3038,-1.2583,-1.2339,-1.2243,-1.241,-1.2455,-1.2456,-1.2475,-1.2251,-1.1817,0.0,0.0,0.0,0.0,0.0,0.0,0.0,0.0,0.0,0.0,-2.3163,0.0,0.0,0.0,0.0,0.0,0.0,0.0,-2.3991,-2.4276,-2.4798,-2.5624,-2.6,-2.6626,-2.751,-2.758,-2.678,-2.5053,-2.3059,-2.1854,-2.1392,-2.0645,-2.0292,-2.0292,-2.0292,-2.0292,-2.0292,-2.0292,-2.0292,-2.0292,-2.0292,-2.0292,-2.0292,0.0,0.0,0.0,0.0,0.0,0.0,0.0,0.0,0.0,-1.681,-1.6197,-1.5784,-1.4866,-1.4282,-1.3872,-1.3674,-1.3636,-1.3658,-1.3561,-1.368,-1.3846,-1.3943,-1.397,-1.4013,-1.4164,-1.4073,-1.397,-1.397,-1.4094,-1.4148,-1.3992,-1.4094,-1.4196,-1.4196,-1.4196,-1.4196,-1.4196,-1.4196,-1.4196,-1.4196,-1.4196,-1.4196,-1.4196,-1.4196,-1.4196,-1.4196,-1.4196,-1.4196,-1.4196,-1.4196,-1.4196,-1.4196,-1.4196,-1.4196,-1.4196,-1.4196,-1.4029,-1.3645,-1.3645,-1.3645,-1.3635,-1.3454,-1.3215,-1.2931,-1.2615,-1.2485,-1.2501,-1.263,-1.2682,-1.2682,-1.2682,-1.2329,-1.1805,0.0,0.0,0.0,0.0,0.0,0.0,0.0,0.0,0.0,0.0,-2.4284,-2.4106,0.0,0.0,0.0,0.0,0.0,0.0,0.0,-2.6398,-2.7277,-2.7639,-2.8182,-2.851,-2.851,-2.7725,-2.7482,-2.7841,-2.5147,-2.3003,-2.1338,-2.0772,-2.0464,-2.0419,-2.0337,-2.0292,-2.0292,-2.0292,-2.0292,-2.0292,-2.0292,-2.0292,-2.0382,-2.0609,0.0,0.0,0.0,0.0,0.0,0.0,0.0,0.0,-1.5506,-1.5035,-1.4792,-1.406,-1.3861,-1.3841,-1.3746,-1.3653,-1.3642,-1.4056,-1.4008,-1.3916,-1.4143,-1.4196,-1.4196,-1.4196,-1.4196,-1.4196,-1.4196,-1.4196,-1.4196,-1.4196,-1.4196,-1.4196,-1.4196,-1.4196,-1.4196,-1.4196,-1.4196,-1.4196,-1.4196,-1.4196,-1.4196,-1.4196,-1.4196,-1.4196,-1.4196,-1.4196,-1.4196,-1.4196,-1.4196,-1.4196,-1.4196,-1.4196,-1.4196,-1.4196,-1.4196,-1.4196,-1.4196,-1.4196,-1.4196,-1.4169,-1.3685,-1.348,-1.3443,-1.3007,-1.2813,-1.2813,-1.2813,-1.2813,-1.2813,-1.2764,-1.237,-1.1834,0.0,0.0,0.0,0.0,0.0,0.0,0.0,0.0,0.0,0.0,0.0,0.0,0.0,0.0,0.0,0.0,0.0,0.0,0.0,-2.6804,-2.7199,-2.7433,-2.8143,-2.851,-2.851,-2.8311,-2.7926,-2.736,-2.563,-2.4607,-2.418,-2.261,-2.1702,-2.1392,-2.0645,-2.0292,-2.0292,-2.0292,-2.0292,-2.0292,-2.0292,-2.0428,-2.0609,-2.0699,-2.097,0.0,0.0,0.0,0.0,0.0,0.0,0.0,-1.5178,-1.4502,-1.3792,-1.3656,-1.3601,-1.3531,-1.3337,-1.3642,-1.4019,-1.3922,-1.4008,-1.4126,-1.4186,-1.4196,-1.4196,-1.4196,-1.4196,-1.4196,-1.4196,-1.4196,-1.4196,-1.4196,-1.4196,-1.4196,-1.4196,-1.4196,-1.4196,-1.4196,-1.4196,-1.4196,-1.4196,-1.4196,-1.4196,-1.4196,-1.4196,-1.4196,-1.4196,-1.4196,-1.4196,-1.4196,-1.4196,-1.4196,-1.4196,-1.4196,-1.4196,-1.4196,-1.4196,-1.4196,-1.4196,-1.4196,-1.4196,-1.4169,-1.3685,-1.348,-1.3443,-1.3007,-1.2813,-1.2813,-1.2813,-1.2813,-1.2764,-1.2322,-1.1829,-1.1189,0.0,0.0,0.0,0.0,0.0,0.0,0.0,0.0,0.0,0.0,0.0,0.0,0.0,0.0,0.0,0.0,0.0,0.0,0.0,0.0,-2.7616,-2.7893,-2.8275,-2.851,-2.851,-2.851,-2.8259,-2.7805,-2.6659,-2.5557,-2.4457,-2.3231,-2.2199,-2.1347,-2.0862,-2.051,-2.0292,-2.0292,-2.0292,-2.0292,-2.0292,-2.0382,-2.0518,-2.0654,-2.0925,-2.1239,-2.1347,0.0,0.0,0.0,0.0,0.0,0.0,0.0,-1.3465,-1.3334,-1.3226,-1.3179,-1.3389,-1.3647,-1.3879,-1.3976,-1.4094,-1.4196,-1.4196,-1.4196,-1.4196,-1.4196,-1.4196,-1.4196,-1.4196,-1.4196,-1.4196,-1.4196,-1.4196,-1.4196,-1.4196,-1.4196,-1.4196,-1.4196,-1.4196,-1.4196,-1.4196,-1.4196,-1.4196,-1.4196,-1.4196,-1.4196,-1.4196,-1.4196,-1.4196,-1.4196,-1.4196,-1.4196,-1.4196,-1.4196,-1.4196,-1.4196,-1.4196,-1.4196,-1.4196,-1.4196,-1.4126,-1.3997,-1.3636,-1.341,-1.327,-1.2959,-1.2813,-1.2813,-1.2813,-1.2813,-1.2764,-1.2224,-1.1336,-1.0288,0.0,0.0,0.0,0.0,0.0,0.0,0.0,0.0,0.0,0.0,0.0,0.0,0.0,0.0,0.0,0.0,0.0,0.0,0.0,0.0,0.0,-2.8471,-2.851,-2.851,-2.851,-2.851,-2.8431,-2.8271,-2.7551,-2.608,-2.393,-2.3444,-2.257,-2.1347,-2.1177,-2.0871,-2.0419,-2.0419,-2.0382,-2.0292,-2.0292,-2.0337,-2.0473,-2.0654,-2.0871,-2.1096,-2.1338,-2.0275,-1.875,-1.8788,0.0,0.0,0.0,0.0,-1.3337,-1.3089,-1.2937,-1.2953,-1.3534,-1.362,-1.359,-1.381,-1.3916,-1.3862,-1.364,-1.3532,-1.3532,-1.3532,-1.3862,-1.4196,-1.4196,-1.4029,-1.3916,-1.3916,-1.3694,-1.364,-1.3862,-1.3916,-1.397,-1.4191,-1.4196,-1.4196,-1.4196,-1.4196,-1.4196,-1.4196,-1.4196,-1.4196,-1.4196,-1.4196,-1.4196,-1.4196,-1.4196,-1.4196,-1.4196,-1.4196,-1.4196,-1.4196,-1.4196,-1.4196,-1.4196,-1.4196,-1.4056,-1.3809,-1.3577,-1.3335,-1.3087,-1.2856,-1.2813,-1.2813,-1.2813,-1.2613,-1.2316,-1.1775,-1.0583,-0.9091,0.0,0.0,0.0,0.0,0.0,0.0,0.0,0.0,0.0,0.0,-2.719,0.0,0.0,0.0,0.0,0.0,0.0,0.0,0.0,0.0,0.0,-2.8471,-2.851,-2.851,-2.851,-2.851,-2.8139,-2.7389,-2.7267,-2.6257,-2.4413,-2.393,-2.34,-2.279,-2.1989,-2.1365,-2.0907,-2.0907,-2.069,-2.0292,-2.0292,-2.0555,-2.0907,-2.0952,-2.1105,-2.1392,-2.1562,-2.0266,-1.8473,-1.8703,-1.6828,0.0,0.0,0.0,-1.2867,-1.2845,-1.2926,-1.3077,-1.3173,-1.348,-1.3572,-1.2852,-1.2639,-1.2363,-1.1383,-1.0945,-1.0726,-1.0726,-1.2595,-1.4196,-1.4196,-1.3359,-1.2639,-1.2639,-1.1819,-1.1492,-1.2472,-1.2639,-1.3029,-1.4083,-1.4196,-1.4196,-1.4196,-1.4196,-1.4196,-1.4196,-1.4196,-1.4196,-1.4196,-1.4196,-1.4196,-1.4196,-1.4196,-1.4196,-1.4196,-1.4196,-1.4196,-1.4196,-1.4196,-1.4196,-1.4196,-1.4196,-1.4056,-1.3809,-1.3577,-1.3335,-1.3087,-1.2856,-1.2813,-1.2813,-1.2813,-1.196,-1.0667,-1.0132,-0.8894,-0.7307,0.0,0.0,0.0,0.0,0.0,0.0,0.0,0.0,0.0,0.0,0.0,-2.719,0.0,0.0,0.0,0.0,0.0,0.0,0.0,0.0,0.0,-2.7606,-2.787,-2.8065,-2.8065,-2.7865,-2.7592,-2.7185,-2.6174,-2.5295,-2.4498,-2.3767,-2.3159,-2.2677,-2.2255,-2.182,-2.1365,-2.1132,-2.0862,-2.069,-2.0564,-2.0785,-2.1142,-2.1041,-2.132,-2.1735,-2.1599,-2.0275,-1.8657,-1.8742,-1.6781,-1.4298,-1.4298,0.0,0.0,0.0,-1.2883,-1.2821,-1.242,-1.2351,-1.2095,-1.1159,-1.0815,-1.0483,-0.983,-0.972,-0.972,-0.972,-1.0651,-1.1529,-1.1705,-1.1319,-1.0933,-1.0933,-1.0664,-1.0613,-1.1105,-1.1324,-1.1655,-1.2155,-1.2812,-1.3192,-1.3192,-1.3802,-1.4196,-1.4196,-1.4196,-1.4196,-1.4196,-1.4196,-1.4196,-1.4196,-1.4196,-1.4196,-1.4196,-1.4196,-1.4196,-1.4196,-1.4196,-1.4196,-1.4196,-1.4196,-1.3986,-1.3626,-1.3523,-1.3108,-1.2407,-1.1751,-1.1619,-1.1829,-1.093,-1.048,-1.0284,-0.9099,-0.7862,-0.6567,0.0,0.0,0.0,0.0,0.0,0.0,0.0,0.0,0.0,0.0,0.0,0.0,0.0,0.0,0.0,0.0,0.0,0.0,0.0,0.0,0.0,-2.6922,-2.727,-2.7469,-2.7355,-2.7127,-2.6844,-2.6505,-2.5168,-2.437,-2.4112,-2.344,-2.2916,-2.2574,-2.2574,-2.2309,-2.1865,-2.1499,-2.1311,-2.1186,-2.1076,-2.1251,-2.1545,-2.1424,-2.1714,-2.2115,-2.168,-2.0557,-1.9192,-1.8827,-1.6922,-1.4627,-1.4394,-1.3624,0.0,0.0,0.0,-1.2704,-1.1938,-1.1516,-1.0993,-0.983,-0.9221,-0.8845,-0.8339,-0.8345,-0.8394,-0.8394,-0.8342,-0.84,-0.8627,-0.9068,-0.934,-0.934,-0.9295,-0.9299,-0.9515,-0.99,-1.0229,-1.0449,-1.1378,-1.2087,-1.2363,-1.3192,-1.3862,-1.4191,-1.4196,-1.4196,-1.4196,-1.4196,-1.4196,-1.4196,-1.4196,-1.4196,-1.4196,-1.4196,-1.4196,-1.4196,-1.4196,-1.4196,-1.4196,-1.4196,-1.3821,-1.3111,-1.3111,-1.2536,-1.1521,-1.0427,-1.0132,-1.0288,-0.9201,-0.9053,-0.9251,-0.8018,-0.6825,-0.5677,0.0,0.0,0.0,0.0,0.0,0.0,0.0,0.0,0.0,0.0,0.0,0.0,-2.719,-2.719,-2.719,-2.719,-2.719,0.0,0.0,0.0,0.0,-2.6922,-2.6922,0.0,-2.6455,-2.6462,-2.5832,-2.4627,-2.4541,-2.4026,-2.3178,-2.3135,-2.3101,-2.3047,-2.3047,-2.2784,-2.2353,-2.2344,-2.2087,-2.1679,-2.188,-2.2043,-2.2272,-2.2451,-2.2548,-2.2521,-2.2133,-2.1287,-2.0195,-1.8868,-1.7203,-1.5561,-1.458,-1.3624,-1.2813,0.0,0.0,0.0,-1.2104,-1.1711,-1.1041,-0.9211,-0.8376,-0.7711,-0.6689,-0.6212,-0.5986,-0.5986,-0.5768,-0.5603,-0.5603,-0.6982,-0.8085,-0.8085,-0.721,-0.6768,-0.7633,-0.8244,-0.8906,-0.9724,-1.039,-1.1219,-1.2304,-1.2472,-1.297,-1.4137,-1.4196,-1.4196,-1.4196,-1.4196,-1.4196,-1.4196,-1.4196,-1.4196,-1.4196,-1.4196,-1.4196,-1.4196,-1.4196,-1.4196,-1.4196,-1.4196,-1.3386,-1.1953,-1.1953,-1.1401,-1.0418,-0.9341,-0.8598,-0.8188,-0.8651,-0.7912,-0.6623,-0.652,-0.5477,-0.4033,0.0,0.0,0.0,0.0,0.0,0.0,0.0,0.0,0.0,0.0,0.0,0.0,0.0,-2.719,-2.726,-2.7371,-2.7545,0.0,0.0,0.0,0.0,-2.6922,-2.67,-2.6519,-2.6388,-2.559,-2.4956,-2.4498,-2.3907,-2.344,-2.3091,-2.3091,-2.3091,-2.3091,-2.3091,-2.3003,-2.2828,-2.253,-2.2309,-2.2169,-2.2171,-2.2391,-2.2675,-2.2633,-2.286,-2.3128,-2.2586,-2.1664,-2.0581,-1.945,0.0,0.0,0.0,-1.3823,-1.3201,-1.305,-1.305,-1.2807,-1.1435,-1.0466,-0.9348,-0.739,-0.6376,-0.5734,-0.5174,-0.5115,-0.5208,-0.5208,-0.5154,-0.5156,-0.5382,-0.5935,-0.632,-0.632,-0.6158,-0.61,-0.6427,-0.6818,-0.7263,-0.7756,-0.8692,-0.9841,-1.116,-1.1978,-1.2916,-1.4083,-1.4196,-1.4196,-1.4196,-1.4196,-1.4196,-1.4196,-1.4196,-1.4196,-1.4196,-1.4196,-1.4196,-1.4196,-1.4196,-1.4196,-1.4191,-1.3329,-1.2552,-1.1845,-1.0326,-0.9528,-0.9255,-0.7862,-0.7369,-0.7369,-0.6176,-0.5779,-0.5782,-0.5131,-0.4481,-0.3932,0.0,0.0,0.0,0.0,0.0,0.0,0.0,0.0,0.0,-2.719,0.0,0.0,0.0,0.0,-2.7383,-2.7615,-2.78,-2.7778,-2.743,-2.7394,-2.7245,-2.6922,-2.6391,-2.6058,-2.5926,-2.4816,-2.4173,-2.4026,-2.3396,-2.3091,-2.3091,-2.3091,-2.3091,-2.3091,-2.3091,-2.3091,-2.3091,-2.2784,-2.2618,-2.2621,-2.2729,-2.2843,-2.2926,-2.2844,-2.3069,-2.3395,-2.27,-2.2182,-2.1522,-1.9948,0.0,0.0,0.0,0.0,-1.3443,-1.3104,-1.3098,-1.2937,-1.1454,-1.0271,-0.8993,-0.7318,-0.6001,-0.5112,-0.4905,-0.496,-0.5008,-0.5037,-0.5043,-0.5156,-0.5382,-0.5382,-0.5382,-0.5382,-0.5547,-0.5601,-0.5487,-0.588,-0.6158,-0.6267,-0.7204,-0.8416,-0.9845,-1.1105,-1.2313,-1.3527,-1.397,-1.4196,-1.4196,-1.4196,-1.4196,-1.4196,-1.3807,-1.3581,-1.3581,-1.3202,-1.3202,-1.3581,-1.3197,-1.3256,-1.3576,-1.2326,-1.1476,-1.0858,-0.9343,-0.852,-0.8124,-0.6628,-0.6032,-0.5984,-0.4636,-0.4535,-0.4985,-0.4284,-0.4033,-0.4034,0.0,0.0,0.0,0.0,0.0,0.0,0.0,0.0,-2.7144,-2.7144,0.0,0.0,0.0,0.0,0.0,-2.7881,-2.7933,-2.7789,-2.7454,-2.7418,-2.7269,-2.692,0.0,0.0,-2.4998,-2.4127,-2.3473,-2.3091,-2.3091,-2.3091,-2.3091,-2.3091,-2.3091,-2.3091,-2.3091,-2.3091,-2.3091,-2.3091,-2.3091,-2.3135,-2.3553,-2.3455,-2.3024,-2.3215,-2.3381,-2.3414,-2.2584,-2.2787,-2.3087,-2.0451,0.0,0.0,0.0,0.0,0.0,0.0,0.0,-1.3249,0.0,0.0,0.0,-0.9152,-0.7373,-0.5851,-0.595,-0.5619,-0.5269,-0.5359,-0.538,-0.5382,-0.5382,-0.5382,-0.5382,-0.5382,-0.5382,-0.5268,-0.4987,-0.5431,-0.571,-0.5427,-0.6154,-0.7152,-0.8416,-0.9845,-1.116,-1.2309,-1.3472,-1.4142,-1.4142,-1.4137,-1.4137,-1.4137,-1.2975,-1.2363,-1.2363,-1.1273,-1.1273,-1.2363,-1.1273,-1.1328,-1.2354,-1.1295,-1.0155,-0.8996,-0.9083,-0.8409,-0.7074,-0.5737,-0.4738,-0.4033,-0.4288,-0.4236,-0.3982,-0.3982,-0.4185,-0.4338,0.0,0.0,0.0,0.0,0.0,-2.6168,-2.6297,-2.6336,-2.6336,0.0,0.0,0.0,-2.6953,-2.7594,-2.8059,-2.8111,-2.8271,-2.8291,-2.8215,-2.8215,-2.7854,-2.7144,-2.6224,-2.542,-2.464,-2.3715,-2.3191,-2.3091,-2.3091,-2.3091,-2.3091,-2.3091,-2.3091,-2.3091,-2.3091,-2.3091,-2.3091,-2.3091,-2.3091,-2.3169,-2.39,-2.395,-2.3578,-2.4208,-2.4223,-2.3969,-2.3712,-2.3596,-2.3278,0.0,-2.0565,-1.9069,0.0,0.0,0.0,0.0,0.0,0.0,-1.2452,0.0,0.0,0.0,0.0,0.0,-0.5922,-0.5843,-0.5687,-0.5332,-0.5335,-0.5382,-0.5382,-0.5382,-0.5382,-0.5382,-0.5382,-0.5382,-0.5268,-0.538,-0.5545,-0.5654,-0.6267,-0.7265,-0.8644,-0.9578,-1.0785,0.0,-1.2495,-1.2604,-1.3207,-1.2659,-1.2332,-1.2332,-1.2001,-1.1837,-1.1837,-1.1505,-1.1505,-1.1837,-1.1505,-1.1509,-1.1769,-1.0416,-0.962,-0.9246,-0.8204,-0.7316,-0.6581,-0.5787,-0.5135,-0.4533,-0.4234,-0.4083,-0.3982,-0.3982,-0.4033,-0.4085,0.0,0.0,0.0,0.0,-2.5888,-2.6035,-2.5981,-2.6171,-2.6256,0.0,0.0,0.0,-2.6663,-2.747,-2.7893,-2.7666,-2.7771,-2.7945,-2.8162,-2.7818,-2.7502,-2.7214,-2.5955,-2.5031,-2.4498,-2.356,-2.3091,-2.3091,-2.3091,-2.3057,-2.2969,-2.2969,-2.2969,-2.2969,-2.2969,-2.3013,-2.3101,-2.3232,-2.3188,-2.3169,-2.3936,-2.3902,-2.3484,-2.4123,-2.4149,-2.3904,-2.3806,-2.381,-2.3648,-2.2589,-2.0933,0.0,0.0,0.0,0.0,0.0,0.0,0.0,0.0,0.0,-1.0912,-1.052,0.0,0.0,-0.7382,-0.6898,-0.6439,-0.5772,-0.5509,-0.5382,-0.5382,-0.5382,-0.5382,-0.5382,-0.5382,-0.5382,-0.5382,-0.5382,-0.5437,-0.5603,-0.627,-0.7046,-0.7873,-0.9082,-1.0292,-1.1505,-1.1618,-1.1841,-1.2332,-1.1896,-1.1623,-1.1623,-1.1122,-1.0848,-1.0848,-1.0355,-1.0355,-1.0848,-1.0355,-1.0355,-1.0781,-0.9413,-0.8793,-0.8776,-0.7658,-0.6886,-0.6337,-0.5834,-0.5286,-0.4734,-0.4334,-0.4085,-0.3982,-0.3982,-0.4085,-0.4185,0.0,0.0,-2.5973,-2.5724,-2.6081,-2.632,-2.6082,-2.6434,-2.6589,0.0,-2.6391,-2.6491,-2.6584,-2.7251,-2.7474,-2.6946,-2.6898,-2.7052,-2.7442,-2.6753,-2.6462,-2.6746,-2.5218,-2.4332,-2.4298,-2.3448,-2.3052,-2.3003,-2.3003,-2.2882,-2.2671,-2.2671,-2.2715,-2.2759,-2.2759,-2.2882,-2.3135,-2.3363,-2.3349,-2.3227,-2.3806,-2.3683,-2.3117,-2.3548,-2.368,-2.3563,-2.3378,-2.3703,-2.4053,-2.2878,-2.0848,0.0,0.0,0.0,0.0,0.0,-1.3744,0.0,0.0,0.0,0.0,0.0,-1.1551,0.0,-0.9488,-0.8473,-0.7455,-0.666,-0.6003,-0.5518,-0.5462,-0.5462,-0.5462,-0.5351,-0.5359,-0.5369,-0.538,-0.5382,-0.5382,-0.5382,-0.6158,-0.6659,-0.6768,-0.8478,-0.9688,-0.9853,-1.0848,-1.1404,-1.1295,-1.1295,-1.1295,-1.1295,-1.0241,-0.9688,-0.9688,-0.865,-0.865,-0.9691,-0.8595,-0.8647,-0.9677,-0.8565,-0.801,-0.7944,-0.7405,-0.6886,-0.6287,-0.5787,-0.5286,-0.4784,-0.4537,-0.4286,-0.4083,-0.4083,-0.4236,-0.4438,0.0,-2.63,-2.6112,-2.5702,-2.5726,-2.5927,-2.6422,-2.6552,-2.6614,-2.6546,-2.6901,-2.7047,-2.6619,-2.7251,-2.7474,-2.6946,-2.6898,-2.6657,-2.6128,-2.5935,-2.5256,-2.4041,-2.3646,-2.3299,-2.2916,-2.2712,-2.2587,-2.253,-2.253,-2.2309,-2.1909,-2.1909,-2.2132,-2.2485,-2.2485,-2.2706,-2.3091,-2.3144,-2.3394,-2.3717,-2.4207,-2.4082,-2.3634,-2.426,-2.4322,-2.4082,-2.4042,-2.4088,-2.4053,-2.2878,-2.2019,-2.0933,0.0,0.0,0.0,-1.4751,0.0,0.0,0.0,0.0,0.0,0.0,-1.1755,0.0,-1.0321,-0.9353,-0.845,-0.7888,-0.7056,-0.6338,-0.5857,-0.5803,-0.5643,-0.5215,-0.5224,-0.5298,-0.5371,-0.5382,-0.5382,-0.5382,-0.5989,-0.6543,-0.7043,-0.7875,-0.8871,-1.0029,-1.0359,-1.0143,-0.9485,-0.943,-0.943,-0.943,-0.921,-0.9099,-0.9099,-0.8826,-0.8826,-0.9099,-0.8823,-0.8826,-0.9034,-0.8621,-0.8164,-0.7728,-0.7354,-0.6637,-0.5734,-0.5634,-0.5286,-0.4784,-0.4734,-0.4684,-0.4634,-0.4634,-0.4684,-0.4736,-2.6196,-2.5867,-2.5689,-2.5591,-2.5802,-2.6099,-2.6536,-2.6835,-2.6945,-2.6771,-2.7227,-2.7358,-2.6794,-2.7327,-2.7474,-2.6946,-2.6898,-2.6584,-2.5735,-2.5271,-2.4489,-2.3264,-2.2788,-2.2517,-2.25,-2.251,-2.2457,-2.2397,-2.2397,-2.2087,-2.1571,-2.1651,-2.1931,-2.2331,-2.2269,-2.2599,-2.3225,-2.3135,-2.3218,-2.3506,-2.4161,-2.4283,-2.407,-2.4612,-2.4557,-2.4202,-2.4202,-2.4202,-2.4102,-2.3538,-2.2644,0.0,-1.9582,-1.8425,-1.7337,0.0,-1.4845,-1.4593,0.0,0.0,0.0,-1.2942,0.0,0.0,0.0,-1.0993,-1.0281,-0.9556,-0.8408,-0.7419,-0.7156,-0.6424,-0.5794,-0.553,-0.5345,-0.519,-0.5245,-0.5324,-0.5382,-0.5382,-0.5933,-0.6541,-0.7154,-0.7712,-0.8432,-0.9485,-0.9541,-0.9375,-0.8937,-0.8885,-0.8885,-0.8885,-0.8885,-0.8885,-0.8885,-0.8885,-0.8885,-0.8885,-0.8885,-0.8885,-0.8875,-0.8703,-0.8289,-0.7676,-0.7169,-0.6443,-0.5584,-0.5336,-0.5035,-0.4784,-0.4784,-0.4784,-0.4784,-0.4784,-0.4784,-0.4784,-2.5992,-2.5552,-2.5397,-2.5809,-2.6148,-2.6529,-2.6921,-2.7314,-2.7511,-2.7258,-2.7666,-2.7786,-2.7258,-2.7511,-2.7489,-2.6966,-2.6753,-2.6271,-2.5379,-2.4572,-2.3828,-2.3114,-2.2247,-2.2031,-2.2617,-2.2549,-2.2414,-2.2264,-2.2264,-2.1909,-2.1257,-2.1428,-2.1771,-2.2199,-2.2141,-2.2528,-2.3185,-2.3104,-2.3134,-2.327,-2.4004,-2.4122,-2.3966,-2.4467,-2.4354,-2.399,-2.4146,-2.4202,-2.4192,-2.411,-2.3098,-2.1717,-2.0794,-1.9478,0.0,0.0,0.0,0.0,0.0,0.0,0.0,0.0,0.0,-1.3785,0.0,0.0,0.0,-1.1165,-0.9864,-0.8836,-0.8733,-0.7648,-0.6719,-0.6566,-0.6083,-0.575,-0.5615,-0.5656,-0.555,-0.5384,-0.5799,-0.6424,-0.7122,-0.7729,-0.8352,-0.8881,-0.8854,-0.8851,-0.8881,-0.8885,-0.8885,-0.8885,-0.8885,-0.8885,-0.8885,-0.8885,-0.8885,-0.8885,-0.8885,-0.8885,-0.8878,-0.8781,-0.8264,-0.7507,-0.6966,-0.6228,-0.5466,-0.5031,-0.4827,-0.4859,-0.4792,-0.4784,-0.4784,-0.4784,-0.4784,-0.4784,-2.6261,-2.6021,-2.6153,-2.6668,-2.6812,-2.7172,-2.8146,-2.8338,-2.8362,-2.833,-2.8799,-2.8919,-2.839,-2.7994,-2.7582,-2.7036,-2.6162,-2.5161,-2.4012,-2.3492,-2.3053,-2.2581,-2.175,-2.1814,-2.3003,-2.2705,-2.2241,-2.1776,-2.1776,-2.1419,-2.0789,-2.0789,-2.1176,-2.1769,-2.2116,-2.236,-2.2527,-2.2884,-2.3235,-2.3632,-2.3727,-2.3311,-2.27,-2.3503,-2.3523,-2.3133,-2.3895,-2.4202,-2.4146,0.0,-2.345,-2.3009,0.0,-2.0482,-1.9748,-1.8463,0.0,0.0,0.0,0.0,0.0,0.0,-1.44,0.0,-1.4142,0.0,-1.2337,-1.2217,0.0,-1.0744,-1.0237,0.0,0.0,-0.8958,-0.8234,-0.7715,-0.75,-0.6959,-0.6204,-0.5245,-0.5336,-0.5899,-0.6948,-0.7973,-0.8682,-0.8871,-0.8811,-0.8794,-0.8875,-0.8885,-0.8885,-0.8885,-0.8885,-0.8885,-0.8885,-0.8885,-0.8885,-0.8885,-0.8885,-0.8885,-0.8878,-0.8781,-0.8104,-0.7053,-0.6884,-0.6138,-0.5066,-0.5043,-0.5028,-0.4949,-0.4867,-0.4784,-0.4784,-0.4784,-0.4784,-0.4784,-2.6487,-2.5929,-2.5667,-2.6484,-2.6379,-2.6464,-2.7163,-2.7466,-2.7558,-2.7558,-2.7789,-2.763,-2.6964,-2.714,-2.7001,-2.6378,-2.6329,-2.5622,-2.3878,-2.3846,-2.3175,-2.1456,-2.1533,-2.1865,-2.2402,-2.2182,-2.1938,-2.1696,-2.1419,-2.1006,-2.0473,-2.0609,-2.1048,-2.1643,-2.1989,-2.2419,-2.2915,-2.3083,-2.3109,-2.3,-2.3502,-2.2957,-2.2067,-2.358,-2.3938,-2.3694,-2.4082,-2.4202,-2.4174,0.0,-2.3584,0.0,0.0,0.0,0.0,-1.9272,0.0,0.0,0.0,0.0,0.0,0.0,0.0,0.0,-1.4581,0.0,-1.3565,0.0,0.0,0.0,0.0,0.0,0.0,0.0,-0.943,-0.8751,-0.8012,-0.775,-0.7211,-0.6165,-0.6088,-0.6526,-0.7402,-0.8295,-0.8814,-0.8878,-0.8824,-0.8814,-0.8878,-0.8885,-0.8885,-0.8885,-0.8885,-0.8885,-0.8885,-0.8885,-0.8885,-0.8885,-0.8885,-0.8885,-0.8881,-0.8485,-0.7807,-0.697,-0.655,-0.588,-0.5053,-0.5092,-0.5086,-0.5047,-0.5008,-0.4961,-0.4914,-0.4914,-0.4879,-0.4834,-2.572,-2.5261,-2.4932,-2.5729,-2.5559,-2.5474,-2.5837,-2.6105,-2.6256,-2.6256,-2.6385,-2.6225,-2.567,-2.6193,-2.6409,-2.585,-2.6335,-2.5948,-2.429,-2.4133,-2.3451,-2.1877,-2.1897,-2.2109,-2.2568,-2.2174,-2.1886,-2.1696,-2.132,-2.0916,-2.051,-2.0789,-2.1112,-2.1463,-2.1762,-2.2254,-2.2862,-2.2973,-2.2889,-2.2783,-2.3392,-2.3065,-2.2351,-2.3575,-2.4098,-2.4202,-2.4202,-2.4202,-2.4183,-2.4073,-2.3602,0.0,-2.273,-2.1762,-2.0674,0.0,0.0,0.0,-1.8246,0.0,0.0,0.0,0.0,0.0,0.0,0.0,0.0,0.0,-1.3992,0.0,0.0,0.0,0.0,0.0,0.0,-1.0029,-0.9209,-0.8755,-0.8085,-0.675,-0.6783,-0.7115,-0.7669,-0.8368,-0.8832,-0.8817,-0.8821,-0.8841,-0.8881,-0.8885,-0.8885,-0.8885,-0.8885,-0.8885,-0.8885,-0.8885,-0.8885,-0.8885,-0.8885,-0.8885,-0.8881,-0.8269,-0.7659,-0.7021,-0.6426,-0.5771,-0.5147,-0.5171,-0.5167,-0.5147,-0.5173,-0.5126,-0.5041,-0.499,-0.4775,-0.4463,-2.34,-2.387,-2.427,-2.4432,-2.446,-2.4449,-2.4539,-2.4568,-2.4596,-2.4596,-2.5043,-2.533,-2.533,-2.569,-2.593,-2.5882,-2.5799,-2.5555,-2.5104,-2.3873,-2.3672,-2.492,-2.2969,-2.2656,-2.4297,-2.3044,-2.2167,-2.1696,-2.1482,-2.1248,-2.0997,-2.1248,-2.1273,-2.1119,-2.1531,-2.1723,-2.1796,-2.2181,-2.2786,-2.3483,-2.351,-2.3739,-2.4027,0.0,-2.3474,-2.4202,-2.4202,0.0,0.0,-2.3703,-2.3499,0.0,0.0,0.0,0.0,0.0,0.0,0.0,0.0,0.0,0.0,-1.8163,0.0,0.0,0.0,0.0,-1.5839,0.0,0.0,0.0,0.0,0.0,0.0,0.0,0.0,0.0,0.0,-1.031,-0.8485,-0.6645,-0.7062,-0.7507,-0.7589,-0.818,-0.8557,-0.8706,-0.8716,-0.8781,-0.8875,-0.8885,-0.8885,-0.8885,-0.8885,-0.8885,-0.8885,-0.8885,-0.8885,-0.8885,-0.8885,-0.8885,-0.8881,-0.8269,-0.7709,-0.7149,-0.6536,-0.587,-0.5192,-0.5337,-0.532,-0.5194,-0.5339,-0.5316,-0.516,-0.5037,-0.4348,-0.3407,-2.2301,-2.2065,-2.2125,-2.3071,-2.3202,-2.3396,-2.3897,-2.3711,-2.3717,-2.4233,-2.4734,-2.5031,-2.5115,-2.5951,-2.6184,-2.5458,-2.5805,-2.5701,-2.4715,-2.3965,-2.3499,-2.3338,-2.2659,-2.226,-2.2236,-2.222,-2.1651,-2.0494,-2.0509,-2.0289,-1.9809,-1.9905,-1.9999,-2.0091,-2.0631,-2.1284,-2.1935,-2.2473,-2.2858,-2.3105,-2.3105,-2.3343,-2.3749,0.0,-2.3914,-2.4202,-2.4202,-2.4202,0.0,-2.4045,-2.3767,-2.3517,-2.3703,-2.3118,-2.2437,-2.2868,-2.2325,-2.1573,0.0,0.0,-2.0442,-1.9618,0.0,0.0,0.0,0.0,0.0,0.0,0.0,0.0,0.0,0.0,0.0,0.0,0.0,0.0,0.0,-1.0489,-0.8772,-0.7587,-0.7819,-0.8032,-0.8082,-0.8414,0.0,-0.8706,-0.8804,-0.8828,-0.8881,-0.8885,-0.8885,-0.8885,-0.8885,-0.8885,-0.8885,-0.8885,-0.8885,-0.8885,-0.8885,-0.8716,-0.8269,-0.7712,-0.7154,-0.6596,-0.5989,-0.5584,-0.5337,-0.5369,-0.5363,-0.5339,-0.5369,-0.4856,-0.415,-0.4054,-0.3751,-0.3254,-2.0705,-2.038,-2.0449,-2.15,-2.152,-2.1577,-2.2043,-2.2143,-2.2442,-2.3276,-2.394,-2.4405,-2.4749,-2.5741,-2.6084,-2.5369,-2.6048,-2.5994,-2.4744,-2.422,-2.3643,-2.2841,-2.2568,-2.2271,-2.197,-2.2006,-2.1516,-2.0509,-2.0316,-2.0009,-1.9506,-1.9488,-1.9504,-1.964,-2.0076,-2.0882,-2.2042,-2.2388,-2.2893,-2.3382,0.0,-2.3538,0.0,0.0,-2.411,-2.395,0.0,-2.4202,-2.4202,-2.4202,-2.3978,-2.3804,-2.4119,-2.3746,-2.3226,-2.3499,-2.3235,-2.2856,-2.2616,-2.2316,0.0,-2.0937,-2.0485,0.0,-1.9371,0.0,-1.8169,0.0,0.0,0.0,0.0,0.0,0.0,0.0,0.0,0.0,0.0,-1.0636,-0.9316,-0.8137,-0.813,-0.8211,-0.8316,-0.8442,-0.8598,-0.8703,-0.8801,-0.8824,-0.8878,-0.8885,-0.8885,-0.8885,-0.8885,-0.8885,-0.8885,-0.8885,-0.8885,-0.8885,-0.866,-0.838,-0.7989,-0.721,-0.6652,-0.6262,-0.5656,-0.5382,-0.5382,-0.5382,-0.5382,-0.5382,-0.4931,-0.4311,-0.3572,-0.3512,-0.3,-0.2139,-1.8732,-1.8946,-1.9401,-1.9902,-1.9644,-1.9338,-1.9356,-2.0096,-2.0964,-2.1883,-2.2756,-2.3643,-2.4482,-2.5304,-2.5801,-2.5791,-2.6582,-2.6514,-2.5292,-2.4641,-2.4108,-2.3673,-2.2714,-2.2573,-2.3395,-2.2432,-2.1777,-2.152,-2.0775,-2.0316,-2.0027,-1.9927,-1.9844,-1.9768,-1.9768,-2.0597,-2.1978,-2.2024,-2.2853,-2.4202,-2.4202,-2.4192,-2.4174,-2.4192,-2.3895,-2.3544,-2.4005,-2.4202,-2.4202,-2.4202,-2.4202,-2.4202,-2.4202,-2.4202,-2.4202,-2.4202,-2.4202,-2.402,-2.3401,-2.3196,-2.3,-2.2061,-2.1822,0.0,0.0,0.0,-1.958,0.0,0.0,0.0,0.0,0.0,0.0,0.0,0.0,0.0,0.0,0.0,-1.0096,-0.8283,-0.8045,-0.8106,-0.8245,-0.8323,-0.8397,-0.8679,-0.8706,-0.8777,-0.8875,-0.8875,-0.8875,-0.8885,-0.8885,-0.8885,-0.8885,-0.8885,-0.8885,-0.8881,-0.8325,-0.7989,-0.7934,-0.6821,-0.6318,-0.6209,-0.5656,-0.5382,-0.5382,-0.5382,-0.5382,-0.5268,-0.4086,-0.3525,-0.3405,-0.3347,-0.2052,-0.0213,-1.9237,-1.9516,-1.9769,-1.9895,-1.9829,-1.9902,-2.0361,-2.0924,-2.1813,-2.3085,-2.4193,-2.5418,-2.6738,-2.7314,-2.751,-2.7197,-2.7373,-2.7217,-2.6562,-2.513,-2.4359,-2.4501,-2.3033,-2.211,-2.1926,-2.1832,-2.1185,-2.0027,-2.0015,-1.9726,-1.92,-1.934,-1.9384,-1.9341,-1.9504,-2.0413,-2.1803,-2.1932,-2.2853,-2.4202,-2.4202,-2.3969,-2.373,0.0,-2.3895,-2.3544,-2.4005,-2.4202,-2.4202,-2.4202,-2.4202,-2.4202,-2.4202,-2.4202,-2.4152,-2.3954,-2.3904,-2.3827,-2.343,-2.3354,-2.3166,-2.2425,-2.2231,-2.2087,0.0,0.0,0.0,0.0,0.0,0.0,0.0,0.0,0.0,0.0,0.0,0.0,0.0,0.0,-1.0109,-0.9019,-0.8488,-0.818,-0.8106,-0.8299,-0.8459,-0.8533,-0.8645,-0.8777,-0.8875,-0.8832,-0.8821,-0.8878,-0.8885,-0.8885,-0.8885,-0.8885,-0.8885,-0.8885,-0.8716,-0.8214,-0.7376,-0.7099,-0.649,-0.5603,-0.5493,-0.5382,-0.5382,-0.5382,-0.5382,-0.5268,-0.4086,-0.2519,-0.0894,-0.0879,-0.0272,0.0596,-1.9956,-1.9917,-1.9974,-2.0238,-2.051,-2.0748,-2.0905,-2.1098,-2.1788,-2.3326,-2.4431,-2.5554,-2.6768,-2.7656,-2.8033,-2.7791,-2.7887,-2.7545,-2.6575,-2.5415,-2.4548,-2.4067,-2.2987,-2.2228,-2.195,-2.1946,0.0,-2.0318,-2.0132,-1.9736,-1.9181,-1.9026,-1.9061,-1.9218,-1.9425,-2.0228,-2.1424,-2.2182,-2.2976,-2.3815,-2.4079,-2.4064,0.0,-2.411,-2.4055,-2.384,-2.4119,-2.4202,-2.4202,-2.4202,-2.4202,-2.4202,-2.4202,-2.4202,-2.4152,-2.3904,-2.3805,-2.3755,-2.3447,-2.3397,-2.3294,-2.2784,-2.2682,-2.2478,-2.1804,-2.0916,-2.0173,0.0,-1.8726,-1.7576,0.0,0.0,0.0,0.0,0.0,0.0,0.0,0.0,0.0,-0.9316,-0.861,-0.8136,-0.7998,-0.8309,-0.8482,-0.8482,-0.856,-0.8648,-0.8733,-0.872,-0.875,-0.8835,-0.8848,-0.8885,-0.8885,-0.8885,-0.8885,-0.8881,-0.838,-0.7823,-0.721,-0.6657,-0.6047,-0.5382,-0.5382,-0.5382,-0.5382,-0.4817,-0.4592,-0.4424,-0.2686,-0.0896,0.0784,0.061,0.0719,0.0883,-2.0802,-2.0392,-2.0291,-2.086,-2.1428,-2.1748,-2.1543,-2.1392,-2.1861,-2.3399,-2.4328,-2.5194,-2.6017,-2.7146,-2.7853,-2.7853,-2.8077,-2.7602,-2.6174,-2.5619,-2.4765,-2.343,-2.2874,-2.2594,-2.2594,-2.2371,-2.1964,-2.1384,-2.0701,-2.007,-1.9428,-1.8944,-1.883,-1.9071,-1.9239,-1.9886,-2.0891,-2.2262,-2.2952,-2.3179,-2.3759,-2.4053,-2.4202,-2.4202,-2.4202,-2.4202,-2.4202,-2.4202,-2.4202,-2.4202,-2.4202,-2.4202,-2.4202,-2.4202,-2.4152,-2.3854,-2.3755,-2.3696,-2.3397,-2.3297,-2.3247,-2.2996,-2.2946,-2.2818,-2.2191,-2.1296,-2.0382,-1.9729,-1.8606,-1.7677,-1.7592,0.0,0.0,0.0,0.0,0.0,0.0,0.0,0.0,0.0,-0.8528,0.0,-0.7992,-0.8292,-0.8455,-0.8455,-0.8455,-0.8472,-0.8509,0.0,-0.8699,-0.8737,-0.8814,-0.8885,-0.8885,-0.8885,-0.8881,-0.8771,-0.7768,-0.721,-0.7043,-0.5991,-0.5491,-0.5382,-0.5382,-0.5382,-0.5324,-0.4086,-0.3413,-0.291,-0.084,0.0729,0.1739,0.1402,0.1121,0.0895,-2.1893,-2.149,-2.1257,-2.1635,-2.2094,-2.2702,-2.3542,-2.3786,-2.4203,-2.4935,-2.5718,-2.6456,-2.7088,-2.7337,-2.7485,-2.7485,-2.7539,-2.7444,-2.7163,-2.5841,0.0,-2.4699,-2.3353,-2.2594,-2.2594,-2.2071,-2.1622,0.0,-2.0668,-1.9904,-1.8991,-1.891,-1.8645,-1.8276,-1.8339,-1.887,-1.983,-2.0548,0.0,-2.2641,-2.2752,-2.3338,-2.4202,-2.4202,-2.4202,-2.4202,-2.4202,-2.4202,-2.4202,-2.4202,-2.4202,-2.4202,-2.4202,-2.4202,-2.4102,-2.3596,-2.3447,-2.3347,-2.2846,-2.2745,-2.2745,-2.2695,-2.2695,-2.2627,-2.2517,-2.1095,-1.981,-1.9987,-1.8556,-1.7297,-1.7248,0.0,0.0,0.0,0.0,0.0,0.0,0.0,0.0,0.0,0.0,-0.8309,-0.8012,-0.8204,-0.8357,-0.8357,-0.8357,-0.8414,-0.8659,0.0,-0.8638,0.0,-0.8868,-0.8885,0.0,0.0,-0.866,-0.8156,-0.7934,-0.7376,-0.6429,-0.6265,-0.588,-0.5382,-0.5382,-0.5382,-0.5324,-0.4086,-0.2407,-0.0616,-0.0168,0.0729,0.1739,0.1402,0.1121,0.0841,-2.2006,-2.1758,-2.1633,-2.211,-2.2799,-2.3534,-2.4218,-2.4834,-2.5192,-2.519,-2.5534,-2.5878,-2.6153,-2.6791,-2.7206,-2.7206,-2.7323,-2.7323,-2.7206,-2.5812,-2.4945,-2.4788,-2.3364,-2.2594,-2.2594,-2.2341,-2.1867,-2.1281,0.0,-2.0274,-1.8912,-1.8987,-1.8591,-1.783,-1.8103,-1.8495,-1.9036,0.0,-2.0548,-2.1177,-2.1525,-2.2316,-2.3338,-2.3338,-2.3338,-2.3388,-2.4003,-2.3438,-2.2669,-2.3795,-2.4202,-2.4202,-2.4202,-2.4102,-2.3895,-2.3497,-2.3297,-2.3097,-2.2695,-2.2594,-2.2594,-2.2594,-2.2594,-2.2644,-2.2795,-2.1302,-1.996,-2.0233,-1.8781,-1.7344,-1.7208,-1.6813,0.0,0.0,0.0,0.0,0.0,0.0,-1.1447,0.0,0.0,0.0,0.0,-0.8153,-0.8184,-0.8316,-0.8323,-0.8364,-0.8581,0.0,-0.8584,0.0,0.0,0.0,-0.8885,0.0,-0.8602,-0.7989,-0.7712,-0.7154,-0.6262,-0.5989,-0.5656,-0.5382,-0.5382,-0.5043,-0.4311,-0.2464,-0.0672,0.0953,0.0953,0.1177,0.1514,0.1177,0.1009,0.0841,-2.2171,-2.1995,-2.1999,-2.2622,-2.3391,-2.4059,-2.4464,-2.5173,-2.5575,-2.5226,-2.5145,-2.5145,-2.5145,-2.6125,-2.6826,-2.6826,-2.7053,-2.7161,-2.6944,-2.5653,-2.485,-2.4683,-2.31,-2.2283,-2.2333,-2.2021,-2.1545,0.0,0.0,0.0,-1.8584,-1.8603,-1.8165,-1.734,-1.7711,-1.798,0.0,0.0,-1.9489,-1.9783,-2.0307,-2.1191,-2.2165,-2.2165,-2.2165,-2.2266,-2.3179,-2.2367,-2.1191,-2.2929,-2.3488,-2.3538,-2.3795,-2.3538,-2.3188,-2.3347,-2.3097,-2.2644,-2.2333,-2.2291,-2.2291,-2.2021,-2.2021,-2.2131,-2.2333,-2.1046,-1.9872,-2.0122,-1.8774,-1.7548,-1.7253,-1.7007,0.0,0.0,0.0,0.0,0.0,0.0,-1.2115,0.0,0.0,0.0,-0.8371,-0.8204,-0.8184,-0.8306,-0.834,-0.8385,-0.8476,0.0,0.0,0.0,0.0,-0.8834,-0.8834,0.0,-0.8546,-0.7823,-0.7376,-0.6821,-0.6098,-0.5603,-0.5382,-0.5382,-0.5156,-0.4199,-0.2686,-0.084,0.0617,0.1683,0.1627,0.1458,0.1177,0.0897,0.0785,0.0729,-2.3112,-2.2854,-2.2788,-2.3284,-2.3782,-2.4202,-2.4447,-2.5173,-2.5652,-2.5645,-2.5627,-2.5627,-2.5627,-2.5972,-2.6172,-2.6172,-2.6464,-2.6636,-2.6636,-2.5396,-2.4736,-2.4945,-2.2458,-2.1191,-2.1446,-2.0158,-1.947,0.0,0.0,-1.8291,0.0,-1.7116,-1.6729,-1.6436,0.0,0.0,0.0,-1.7429,-1.8159,-1.9287,-1.9317,-2.0055,-2.1038,-2.1038,-2.1038,-2.1038,-2.1191,-2.1089,-2.0936,-2.114,-2.1191,-2.1395,-2.2367,-2.1962,-2.1446,-2.2937,-2.2636,-2.1725,-2.12,-2.1259,-2.1157,-2.0151,-2.0115,-2.0336,-2.0388,-1.9606,-1.893,-1.893,-1.8206,-1.7548,-1.7253,-1.7393,-1.7415,0.0,0.0,0.0,0.0,0.0,-1.3464,-1.0141,0.0,0.0,-0.858,-0.8448,-0.8445,-0.8462,-0.8395,-0.8385,-0.8476,0.0,0.0,-0.8706,-0.8723,-0.873,-0.873,-0.8814,-0.838,-0.7265,-0.721,-0.6601,-0.5491,-0.5437,-0.5382,-0.5326,-0.4254,-0.2463,-0.0336,-0.0336,0.0336,0.1346,0.1065,0.0953,0.0897,0.0561,0.0449,0.0393,-2.3395,-2.3173,-2.3132,-2.3722,-2.4025,-2.43,-2.465,-2.4945,-2.5145,-2.5145,-2.5467,-2.5688,-2.5688,-2.5798,-2.5852,-2.5852,-2.6136,-2.63,-2.63,-2.456,-2.3648,-2.3754,-2.125,-1.9952,-2.0048,-1.9487,-1.9067,0.0,0.0,0.0,0.0,0.0,0.0,0.0,0.0,-1.6978,-1.7213,-1.7387,-1.773,-1.8251,-1.8251,-1.8923,-1.9901,-1.9901,-1.9901,-1.9952,-2.0672,-2.0055,-1.9027,-1.9642,-2.0202,-2.0708,-2.1336,-2.0979,-2.0503,-2.1395,-2.1208,-2.0696,-2.049,-2.049,-2.049,-2.0019,-2.0019,-2.013,-2.0285,-1.9554,-1.8826,-1.9027,-1.8251,-1.7549,-1.7481,-1.7414,-1.7393,-1.7454,0.0,0.0,0.0,0.0,0.0,-1.1062,0.0,-0.9219,-0.8678,-0.8537,-0.8482,-0.8482,-0.8428,-0.8421,0.0,0.0,0.0,-0.871,0.0,-0.8849,-0.8849,-0.8854,-0.8325,-0.721,-0.7379,-0.6715,-0.5382,-0.4817,-0.4143,-0.3415,-0.2184,-0.1233,-0.0505,0.0112,0.0673,0.1065,0.0953,0.0785,0.0561,0.0449,0.028,0.0168,-2.3246,-2.32,-2.3237,-2.3394,-2.3507,-2.3654,-2.3975,-2.4016,-2.4016,-2.4016,-2.4398,-2.4723,-2.5008,-2.4889,-2.4778,-2.4778,-2.5,-2.5165,-2.5046,-2.3349,-2.2346,-2.2338,-2.0039,0.0,-1.8864,-1.8447,-1.8133,-1.797,-1.8067,0.0,0.0,0.0,0.0,0.0,-1.7105,-1.7246,-1.734,-1.7495,-1.7582,-1.7582,-1.7582,-1.8042,-1.8715,-1.8715,-1.8715,-1.8819,-1.9642,-1.8923,-1.774,-1.8454,-1.9065,-1.9576,-2.021,-1.9893,-1.9428,-2.0269,-2.0122,-1.9717,-1.9613,-1.9665,-1.9665,-1.9302,-1.9302,-1.9406,-1.9598,-1.9034,-1.8513,-1.8662,-1.8146,-1.7582,-1.7582,-1.7467,-1.7393,-1.7549,0.0,0.0,0.0,-1.4829,0.0,-1.1521,-1.0062,-0.9083,-0.871,-0.8611,-0.855,-0.855,-0.8591,0.0,0.0,0.0,0.0,0.0,0.0,0.0,-0.8982,-0.9027,-0.8491,-0.7432,-0.7265,-0.649,-0.5098,-0.4088,-0.2967,-0.1793,-0.0897,-0.0505,-0.0336,0.0449,0.0729,0.0729,0.0673,0.0505,0.028,0.028,0.0168,0.0,-2.2654,-2.3025,-2.3066,-2.2235,-2.2127,-2.2135,-2.2135,-2.2135,-2.2135,-2.2135,-2.2135,-2.2467,-2.3303,-2.291,-2.2515,-2.2515,-2.2862,-2.291,-2.254,-2.1641,-2.1102,0.0,0.0,-1.7733,-1.7989,-1.6677,-1.6051,-1.6318,0.0,0.0,-1.6304,0.0,-1.6621,-1.7199,-1.7199,-1.736,-1.7582,-1.7582,-1.7582,-1.7582,-1.7582,-1.7635,-1.7635,-1.7635,-1.7635,-1.7635,-1.7635,-1.7635,-1.7582,-1.7635,-1.743,-1.749,-1.8819,-1.8506,-1.7996,-1.9968,-1.9709,-1.8774,-1.8475,-1.8624,-1.8572,-1.749,-1.743,-1.7635,-1.7635,-1.7635,-1.7635,-1.7635,-1.7635,-1.7582,-1.7582,-1.7582,-1.7582,-1.7582,0.0,0.0,0.0,-1.5215,0.0,-1.0918,-1.0473,-0.9992,-0.8817,-0.871,-0.8706,-0.8706,0.0,0.0,0.0,0.0,0.0,-0.871,-0.8713,0.0,-0.9198,-0.9355,-0.8933,-0.7989,-0.6866,-0.5699,-0.4479,-0.3248,-0.2073,-0.0897,-0.0897,-0.0224,0.0841,0.0561,0.0393,0.0393,0.0112,0.0,0.0,0.0,0.0,0.0,-2.2292,-2.2233,-2.2061,-2.1771,-2.1544,-2.1422,-2.1422,-2.1608,-2.1737,-2.1737,-2.1231,-2.106,-2.1509,-2.1957,-2.2248,0.0,-2.2467,-2.2628,0.0,-2.0918,-1.9946,-1.9939,-1.7655,-1.6471,-1.6571,-1.6318,-1.6217,-1.6324,0.0,0.0,0.0,-1.6901,-1.7116,-1.7442,-1.7442,-1.7495,-1.7582,-1.7582,-1.7582,-1.7582,-1.7582,-1.7582,-1.7582,-1.7582,-1.7582,-1.7582,-1.7582,-1.7582,-1.7582,-1.7582,-1.7529,-1.7536,-1.7996,-1.774,-1.7483,-1.8311,-1.8258,-1.7943,-1.7898,-1.7891,-1.7898,-1.7536,-1.7529,-1.7582,-1.7582,-1.7582,-1.7582,-1.7582,-1.7582,-1.7582,-1.7582,-1.7747,-1.7852,-1.7852,-1.8286,0.0,-1.5601,0.0,-1.3557,-1.0933,-0.9898,-0.9246,-0.8866,-0.8811,-0.8821,-0.8716,0.0,0.0,0.0,0.0,0.0,0.0,-0.9029,0.0,-0.9359,-0.9127,-0.8706,-0.7989,-0.6589,-0.4693,-0.2295,-0.1737,-0.0953,0.0,0.0,0.0112,0.028,0.0168,0.0112,0.0112,0.0056,0.0,0.0,0.0,0.0,0.0,-2.1402,-2.1288,-2.1002,-2.0651,-2.0408,-2.0228,-2.0113,-2.0242,-2.0422,-2.0422,-1.9917,-1.9635,-1.9802,-2.0364,0.0,-2.106,-2.1224,-2.1281,-2.1152,-1.9703,-1.8766,-1.8596,-1.707,-1.6155,-1.6057,-1.6318,0.0,-1.6477,-1.6623,-1.6847,-1.7218,-1.7218,-1.7363,-1.7582,-1.7582,-1.7582,-1.7582,-1.7582,-1.7582,-1.7582,-1.7582,-1.7582,-1.7582,-1.7582,-1.7582,-1.7582,-1.7582,-1.7582,-1.7582,-1.7582,-1.7582,-1.7582,-1.7582,-1.7483,-1.7378,-1.7529,-1.7582,-1.7582,-1.7582,-1.7582,-1.7582,-1.7582,-1.7582,-1.7582,-1.7582,-1.7582,-1.7582,-1.7582,-1.7582,-1.7582,-1.7582,-1.7799,-1.8016,-1.8016,-1.8496,-1.8069,-1.5713,0.0,-1.3224,0.0,0.0,-0.8797,0.0,-0.8797,-0.8835,0.0,0.0,0.0,0.0,0.0,-0.889,-0.8961,-0.9274,-0.9489,-0.971,-0.8865,-0.8143,-0.7648,-0.5361,-0.3075,-0.0784,-0.0617,-0.028,0.0224,0.0224,0.0168,0.0,0.0,0.0,0.0,0.0,0.0,0.0,0.0,0.0,0.0,-2.0097,-2.0097,-1.9802,-1.8933,-1.87,-1.859,-1.824,-1.824,-1.8298,-1.8298,-1.8357,-1.8421,-1.8421,-1.8421,-1.8713,-1.9366,0.0,0.0,-1.8881,-1.8333,-1.7767,-1.7266,-1.693,-1.6603,-1.633,-1.6577,-1.673,-1.6783,-1.6783,-1.6895,-1.7232,-1.7232,-1.7384,-1.7582,-1.7582,-1.7582,-1.7582,-1.7582,-1.7582,-1.7582,-1.7582,-1.7582,-1.7582,-1.7582,-1.7582,-1.7582,-1.7582,-1.7582,-1.7582,-1.7582,-1.7635,-1.7635,-1.7635,-1.7635,-1.7635,-1.7635,-1.7582,-1.7582,-1.7582,-1.7582,-1.7582,-1.7582,-1.7582,-1.7582,-1.7582,-1.7582,-1.7582,-1.7582,-1.7582,-1.7635,-1.7635,-1.7852,-1.8016,-1.8069,-1.8496,-1.801,-1.5713,-1.4556,-1.3125,-1.072,0.0,0.0,-0.8726,-0.8726,-0.8781,0.0,0.0,0.0,0.0,0.0,-0.894,-0.9372,-0.9434,-0.9706,-1.0143,-0.8413,-0.7301,-0.6692,-0.3353,-0.1176,0.0,0.0,0.0,0.0,0.0,0.0,0.0,0.0,0.0,0.0,0.0,0.0,0.0,0.0,0.0,0.0,0.0,0.0,-1.7695,-1.7467,-1.6885,-1.636,-1.6242,-1.6885,-1.7349,-1.7349,-1.7948,-1.8473,-1.8765,-1.8765,-1.8946,-1.9366,-1.8952,-1.8596,-1.8532,-1.8218,-1.7824,-1.7496,-1.7254,-1.6914,-1.6636,-1.6902,-1.7166,-1.7371,-1.7371,-1.7424,-1.7536,-1.7536,-1.7529,-1.7582,-1.7582,-1.7582,-1.7582,-1.7582,-1.7582,-1.7582,-1.7582,-1.7582,-1.7582,-1.7582,-1.7582,-1.7582,-1.7582,-1.7582,-1.7582,-1.7582,-1.7747,-1.7911,-1.7911,-1.7911,-1.7852,-1.7635,-1.7582,-1.7582,-1.7582,-1.7582,-1.7582,-1.7582,-1.7582,-1.7582,-1.7582,-1.7582,-1.7582,-1.7582,-1.7582,-1.7635,-1.7852,-1.8115,-1.8377,-1.866,-1.8227,-1.7252,-1.537,-1.3745,-1.2109,0.0,-0.9322,-0.8828,-0.8828,-0.8828,-0.8797,0.0,0.0,-0.8872,-0.9143,-0.9108,-0.9161,-0.9372,-0.9871,-0.9702,-0.8927,-0.7808,-0.5802,-0.3018,-0.2182,-0.1176,0.0,0.0,0.0,0.0,0.0,0.0,0.0,0.0,0.0,0.0,0.0,0.0,0.0,0.0,0.0,0.0,-1.7707,-1.7114,-1.6585,-1.6585,-1.6177,-1.5774,-1.5596,-1.6005,-1.6414,-1.6585,-1.7003,-1.7473,-1.7766,-1.7824,-1.7883,-1.8064,-1.8538,-1.8713,-1.8421,-1.8101,-1.7665,-1.7049,-1.7098,-1.6823,-1.6158,-1.6955,-1.7325,-1.7213,-1.6948,-1.6948,-1.7213,-1.7213,-1.7318,-1.7582,-1.7582,-1.7582,-1.7582,-1.7582,-1.7582,-1.7582,-1.7582,-1.7582,-1.7582,-1.7582,-1.7582,-1.7582,-1.7582,-1.7582,-1.7582,-1.7582,-1.7799,-1.7964,-1.7859,-1.7905,-1.7964,-1.7687,-1.7582,-1.7582,-1.7582,-1.7582,-1.7582,-1.7582,-1.7582,-1.7582,-1.7582,-1.7582,-1.7635,-1.7747,-1.7799,-1.7852,-1.8115,-1.8429,-1.8489,-1.8167,-1.7507,-1.6401,-1.4486,-1.2905,-1.1387,-0.9966,-0.9268,-0.8885,-0.8885,-0.8885,-0.8848,-0.8821,-0.8924,0.0,-0.9305,-0.9573,-0.9723,-0.9812,-1.0147,-0.9757,-0.8702,-0.6581,-0.3964,-0.0953,-0.0953,-0.0616,0.0,0.0,0.0,0.0,0.0,0.0,0.0,0.0,0.0,0.0,0.0,0.0,0.0,0.0,0.0,0.0,-1.6703,-1.629,-1.5882,-1.5882,-1.5822,-1.5645,-1.5418,-1.5477,-1.5655,-1.6005,-1.6177,-1.6295,-1.6537,-1.6596,-1.6655,-1.6655,-1.8188,-1.8836,-1.8188,-1.7877,-1.7365,-1.6378,-1.6818,-1.6612,-1.563,-1.6755,-1.71,-1.6577,-1.6099,-1.6152,-1.6577,-1.6577,-1.6836,-1.7318,-1.7318,-1.7318,-1.7318,-1.7318,-1.7318,-1.7318,-1.7318,-1.7371,-1.7477,-1.7477,-1.7477,-1.7477,-1.7582,-1.7529,-1.7477,-1.7582,-1.7799,-1.8016,-1.7747,-1.7852,-1.8016,-1.7747,-1.7582,-1.7477,-1.7582,-1.7582,-1.7582,-1.7582,-1.7582,-1.7635,-1.7635,-1.7635,-1.7747,-1.8016,-1.8069,-1.8174,-1.8429,-1.8489,-1.8199,-1.7187,-1.6365,-1.5193,-1.3247,0.0,-1.0717,-0.9798,-0.9213,-0.8885,-0.8885,-0.8885,-0.894,-0.8995,-0.9213,-0.9434,-0.9544,-1.0036,-1.0257,-1.0088,-1.0088,-0.9475,-0.8137,-0.4853,-0.2125,0.0,0.0,0.0,0.0,0.0,0.0,0.0,0.0,0.0,0.0,0.0,0.0,0.0,0.0,0.0,0.0,0.0,0.0,0.0,-1.5833,-1.5289,-1.4808,-1.4808,-1.4396,-1.4167,-1.4411,-1.4823,-1.5294,-1.5655,-1.6354,-1.6879,-1.6938,-1.7179,-1.7367,-1.7367,-1.7602,-1.7537,-1.6832,-1.6997,-1.6978,-1.6568,-1.6684,-1.6525,-1.6108,-1.6161,-1.6099,-1.6045,-1.5939,-1.5939,-1.6045,-1.6045,-1.6045,-1.6152,-1.6152,-1.6152,-1.6152,-1.6152,-1.6152,-1.6152,-1.6152,-1.6418,-1.6836,-1.6836,-1.6836,-1.6889,-1.7424,-1.7265,-1.6942,-1.7424,-1.795,-1.8265,-1.8016,-1.8115,-1.8272,-1.8016,-1.743,-1.6942,-1.7477,-1.7582,-1.7582,-1.7582,-1.7582,-1.7641,-1.7911,-1.7964,-1.8016,-1.8272,-1.8318,-1.8429,-1.8757,-1.7674,-1.6674,-1.6594,-1.459,-1.2724,-1.1732,0.0,-0.9783,-0.9099,-0.894,-0.8885,-0.8885,-0.8885,-0.8995,-0.9323,-0.9379,-0.9599,-1.0147,-1.0257,-0.9923,-0.9144,-0.9144,-0.7578,-0.4463,-0.2349,-0.0897,0.0,0.0,0.0,0.0,0.0,0.0,0.0,0.0,0.0,0.0,0.0,0.0,0.0,0.0,0.0,0.0,0.0,0.0,0.0,-1.5294,-1.4818,-1.4401,-1.458,-1.4346,-1.4232,-1.4411,-1.465,-1.4942,-1.5299,-1.5704,-1.6059,-1.6236,-1.636,-1.6484,-1.6484,-1.6484,-1.6366,-1.6011,-1.6473,-1.6482,-1.5889,-1.6023,-1.6145,-1.6018,-1.5367,-1.5148,-1.541,-1.5148,-1.5148,-1.541,-1.541,-1.5571,-1.5891,-1.5891,-1.5891,-1.5891,-1.5891,-1.5891,-1.5891,-1.6051,-1.6264,-1.6477,-1.663,-1.6677,-1.673,-1.6995,-1.6842,-1.653,-1.6796,-1.7047,-1.7199,-1.6948,-1.7054,-1.7199,-1.6948,-1.6789,-1.6677,-1.6683,-1.6683,-1.6683,-1.6683,-1.6796,-1.6955,-1.7067,-1.7219,-1.7378,-1.7694,-1.7252,-1.6863,-1.718,-1.605,-1.4933,-1.4389,-1.2874,-1.1491,-1.0604,-0.974,-0.9115,-0.893,-0.8885,-0.8885,-0.8885,-0.9047,-0.9213,-0.9379,-0.9706,-0.9981,-1.0312,-1.0421,-1.0029,-0.892,-0.7362,-0.5579,-0.3629,-0.1791,-0.0617,0.0,0.0,0.0,0.0,0.0,0.0,0.0,0.0,0.0,0.0,0.0,0.0,0.0,0.0,0.0,0.0,0.0,0.0,0.0,-1.4937,-1.4585,-1.4356,-1.4535,-1.4595,-1.4655,-1.4709,-1.4709,-1.4823,-1.5175,-1.5235,-1.5294,-1.5601,-1.5601,-1.5601,-1.5601,-1.5601,-1.5601,-1.5601,-1.6011,-1.5987,-1.5338,-1.5436,-1.5511,-1.5558,-1.4645,-1.4407,-1.4826,-1.4407,-1.4407,-1.4826,-1.4826,-1.5041,-1.5517,-1.5517,-1.5517,-1.5618,-1.5618,-1.5618,-1.5731,-1.5891,-1.6057,-1.6217,-1.6418,-1.6465,-1.6465,-1.6577,-1.6365,-1.6105,-1.6271,-1.6311,-1.6352,-1.6099,-1.6152,-1.6246,-1.5992,-1.6099,-1.6258,-1.5992,-1.5945,-1.5998,-1.5998,-1.6211,-1.6318,-1.6152,-1.6252,-1.6405,-1.6458,-1.5749,-1.5139,-1.5399,-1.4373,-1.318,-1.2274,0.0,-1.0447,-0.9632,-0.9084,-0.8808,-0.8868,-0.8885,-0.8885,-0.8885,-0.9213,-0.9434,-0.9489,-0.9761,-1.0033,-1.0366,-1.008,-0.9306,-0.8143,-0.5637,-0.3911,-0.3186,-0.1512,-0.0449,0.0,0.0,0.0,0.0,0.0,0.0,0.0,0.0,0.0,0.0,0.0,0.0,0.0,0.0,0.0,0.0,0.0,0.0,0.0,-1.4655,-1.4595,-1.4595,-1.4595,-1.4595,-1.4709,-1.4997,-1.5051,-1.5175,-1.5537,-1.5537,-1.5601,-1.5601,-1.5601,-1.5601,-1.5601,-1.5601,-1.5601,-1.5601,-1.5661,-1.565,-1.5575,-1.5185,-1.4879,-1.4624,-1.4358,-1.4191,-1.4245,-1.4191,-1.4191,-1.4245,-1.4245,-1.4299,-1.4353,-1.4353,-1.4455,-1.4713,-1.4713,-1.4821,-1.5095,-1.5089,-1.541,-1.5945,-1.5945,-1.5779,-1.5666,-1.6158,-1.5998,-1.5618,-1.6105,-1.6477,-1.6624,-1.6377,-1.6258,-1.6246,-1.5992,-1.5517,-1.525,-1.5785,-1.6105,-1.6271,-1.6271,-1.6477,-1.6458,-1.5636,-1.547,-1.5251,-1.4491,-1.4271,-1.4212,-1.4212,-1.2812,-1.1625,-1.1398,0.0,0.0,-0.8798,-0.8838,-0.8871,-0.8881,-0.8885,-0.8885,-0.8885,-0.9213,-0.9489,-0.9761,-0.9037,-0.9203,-1.0582,-0.8582,-0.6864,-0.5704,-0.4357,-0.3131,-0.1963,-0.0673,-0.0056,0.0,0.0,0.0,0.0,0.0,0.0,0.0,0.0,0.0,0.0,0.0,0.0,0.0,0.0,0.0,0.0,0.0,0.0,0.0,-1.4883,-1.4883,-1.5002,-1.5186,-1.5245,-1.5245,-1.5418,-1.5418,-1.5477,-1.5596,-1.5601,-1.5601,-1.5601,-1.5601,-1.5601,-1.5601,-1.5601,-1.5601,-1.5601,-1.5601,-1.5537,-1.5333,-1.5063,-1.4772,-1.4486,-1.4309,-1.4196,-1.4196,-1.4196,-1.4196,-1.4196,-1.4196,-1.4196,-1.4196,-1.3645,-1.3856,-1.4546,-1.4002,-1.4277,-1.5041,-1.5208,-1.5309,-1.5357,-1.5577,-1.547,-1.5196,-1.5416,-1.5357,-1.5196,-1.525,-1.5298,-1.5351,-1.5095,-1.4987,-1.4874,-1.4229,-1.3905,-1.3635,-1.33,-1.4218,-1.5137,-1.4589,-1.4643,-1.4578,-1.3539,-1.3431,-1.3431,-1.3107,-1.2507,-1.2018,-1.2018,-1.0828,-0.9889,-0.9828,0.0,-0.8861,-0.8804,-0.8848,-0.8885,-0.8885,-0.8885,-0.8992,-0.9213,-0.9489,-0.9485,-0.904,-0.8813,-0.8644,-0.8468,-0.675,-0.5475,-0.4864,-0.3132,-0.2073,-0.1795,-0.0617,0.0,0.0,0.0,0.0,0.0,0.0,0.0,0.0,0.0,0.0,0.0,0.0,0.0,0.0,0.0,0.0,0.0,0.0,0.0,0.0,-1.524,-1.5235,-1.5353,-1.5537,-1.5601,-1.5601,-1.5601,-1.5601,-1.5601,-1.5601,-1.5601,-1.5601,-1.5601,-1.5601,-1.5601,-1.5601,-1.5601,-1.5601,-1.5601,-1.5601,-1.5526,-1.5306,-1.5128,-1.4885,-1.4649,-1.4417,-1.4266,-1.4196,-1.3802,-1.3635,-1.364,-1.3256,-1.3093,-1.3088,-1.2545,-1.2807,-1.3614,-1.3398,-1.3781,-1.4654,-1.5154,-1.5208,-1.5035,-1.5261,-1.5148,-1.4874,-1.4874,-1.4928,-1.4987,-1.4767,-1.4821,-1.4826,-1.4676,-1.4293,-1.3748,-1.2767,-1.2495,-1.2387,-1.1891,-1.2753,-1.3619,-1.3019,-1.3068,-1.3014,-1.1869,-1.171,-1.1764,-1.1383,-1.0676,-1.0131,-1.0131,-0.9482,-0.8885,-0.8885,-0.8885,-0.8885,-0.8885,-0.8885,-0.8885,-0.8885,-0.8992,-0.9158,-0.9379,-0.9375,-0.9151,-0.854,-0.8094,-0.7254,-0.5917,-0.514,-0.4474,-0.3804,-0.2185,-0.1346,-0.1514,-0.0505,0.0,0.0,0.0,0.0,0.0,0.0,0.0,0.0,0.0,0.0,0.0,0.0,0.0,0.0,0.0,0.0,0.0,0.0,0.0,0.0,-1.5601,-1.5601,-1.5601,-1.5601,-1.5601,-1.5601,-1.5601,-1.5601,-1.5601,-1.5601,-1.5601,-1.5601,-1.5601,-1.5601,-1.5601,-1.5601,-1.5601,-1.5601,-1.5601,-1.5596,-1.5596,-1.5596,-1.5317,-1.5081,-1.4891,-1.4654,-1.4373,-1.4142,-1.2975,-1.2363,-1.2363,-1.1219,-1.0726,-1.0726,-1.0941,-1.1214,-1.1596,-1.2743,-1.3452,-1.3781,-1.46,-1.4987,-1.4987,-1.4987,-1.4821,-1.4552,-1.4552,-1.4767,-1.4987,-1.4987,-1.5208,-1.5482,-1.5482,-1.4439,-1.3078,-1.1946,-1.1568,-1.1673,-1.1932,-1.1982,-1.1982,-1.1982,-1.22,-1.2087,-1.0945,-1.0672,-1.0347,-0.9154,-0.8885,-0.8885,-0.8885,-0.8885,-0.8885,-0.8885,-0.8885,-0.8885,-0.8885,-0.8885,-0.8885,-0.8885,-0.9213,-0.9379,-0.9379,-0.8819,-0.8484,-0.8484,-0.6538,-0.47,-0.3193,-0.3971,-0.3804,-0.2244,-0.1627,-0.1177,-0.0897,-0.028,0.0,0.0,0.0,0.0,0.0,0.0,0.0,0.0,0.0,0.0,0.0,0.0,0.0,0.0,0.0,0.0,0.0,0.0,0.0,0.0,-1.5601,-1.5601,-1.5601,-1.5601,-1.5601,-1.5601,-1.5601,-1.5601,-1.5601,-1.5601,-1.5601,-1.5601,-1.5601,-1.5601,-1.5601,-1.5601,-1.5601,-1.5601,-1.5601,-1.4753,-1.4267,-1.4267,-1.4896,-1.4745,-1.3795,-1.3574,-1.2904,-1.1808,-1.1471,-1.1236,-1.1214,-1.0836,-1.0781,-1.0945,-1.0453,-1.0668,-1.1487,-1.1214,-1.1538,-1.2181,-1.2453,-1.2408,-1.225,-1.225,-1.2195,-1.2141,-1.2141,-1.2472,-1.2856,-1.2703,-1.2812,-1.3019,-1.2812,-1.2436,-1.1891,-1.0907,-1.0637,-1.0523,-0.9974,-0.9809,-1.0025,-1.0891,-1.1164,-1.0891,-0.9699,-0.9427,-0.9316,-0.8992,-0.8885,-0.8885,-0.8885,-0.8885,-0.8885,-0.8885,-0.8885,-0.8885,-0.8885,-0.8885,-0.8992,-0.9213,-0.9323,-0.9154,-0.8478,-0.8257,-0.7476,-0.5808,-0.4531,-0.3696,-0.3475,-0.3082,-0.2578,-0.1964,-0.1121,-0.0561,-0.028,-0.0112,0.0,0.0,0.0,0.0,0.0,0.0,0.0,0.0,0.0,0.0,0.0,0.0,0.0,0.0,0.0,0.0,0.0,0.0,0.0,0.0,-1.5601,-1.5601,-1.5601,-1.5601,-1.5601,-1.5601,-1.5601,-1.5601,-1.5601,-1.5601,-1.5601,-1.5601,-1.5601,-1.5601,-1.5601,-1.5601,-1.5116,-1.4629,-1.4088,-1.3361,-1.2942,-1.2942,-1.3487,-1.3443,-1.2597,-1.2414,-1.1852,-1.0871,-1.0352,-1.01,-1.0053,-0.9548,-0.9409,-0.9515,-0.9137,-0.9306,-0.9959,-0.9904,-1.0174,-1.0714,-1.1147,-1.126,-1.1105,-1.1223,-1.1282,-1.1282,-1.1282,-1.1601,-1.1982,-1.1828,-1.1932,-1.2037,-1.1446,-1.1232,-1.1013,-0.9978,-0.9706,-0.9596,-0.9047,-0.8885,-0.9103,-0.9805,-0.997,-0.9805,-0.9044,-0.8885,-0.8885,-0.8885,-0.8885,-0.8885,-0.8885,-0.8885,-0.8885,-0.8885,-0.8885,-0.8885,-0.8885,-0.8995,-0.9158,-0.9379,-0.9096,-0.8647,-0.8029,-0.7141,-0.5862,-0.4083,-0.3415,-0.3194,-0.3418,-0.2523,-0.1907,-0.1627,-0.0841,-0.028,0.0,0.0,0.0,0.0,0.0,0.0,0.0,0.0,0.0,0.0,0.0,0.0,0.0,0.0,0.0,0.0,0.0,0.0,0.0,0.0,0.0,0.0056,-1.5601,-1.5601,-1.5601,-1.5601,-1.5601,-1.5601,-1.5601,-1.5601,-1.5601,-1.5601,-1.5601,-1.5537,-1.5418,-1.5418,-1.5359,-1.5235,-1.4207,-1.3002,-1.1792,-1.1611,-1.1551,-1.1551,-1.143,-1.1299,-1.1087,-1.1205,-1.1055,-1.0701,-0.9524,-0.8991,-0.8904,-0.7777,-0.7221,-0.7265,-0.7493,-0.7607,-0.7718,-0.8813,-0.9251,-0.9361,-1.0398,-1.0832,-1.0836,-1.1177,-1.1295,-1.1345,-1.1345,-1.1505,-1.171,-1.171,-1.1873,-1.1928,-1.0891,-1.0562,-1.0347,-0.921,-0.8885,-0.8885,-0.8885,-0.8885,-0.8885,-0.8885,-0.8885,-0.8885,-0.8885,-0.8885,-0.8885,-0.8885,-0.8885,-0.8885,-0.8885,-0.8885,-0.8885,-0.8885,-0.8885,-0.8885,-0.8937,-0.9213,-0.9379,-0.9265,-0.8533,-0.7919,-0.7639,-0.5582,-0.3916,-0.3081,-0.3026,-0.3026,-0.3026,-0.2243,-0.1627,-0.129,-0.0673,-0.0224,0.0,0.0,0.0,0.0,0.0,0.0,0.0,0.0,0.0,0.0,0.0,0.0,0.0,0.0,0.0,0.0,0.0,0.0,0.0,0.0,0.0,0.0168,-1.5601,-1.5601,-1.5601,-1.5601,-1.5601,-1.5601,-1.5601,-1.5601,-1.5601,-1.5601,-1.5601,-1.5235,-1.4207,-1.4088,-1.3665,-1.2637,-1.2273,-1.2032,-1.1732,-1.077,-1.0226,-1.0226,-0.9259,-0.8702,-0.8678,-0.9637,-0.9566,-0.8423,-0.8163,-0.7869,-0.7672,-0.742,-0.7359,-0.7493,-0.7551,-0.7715,-0.7934,-0.8211,-0.8318,-0.8318,-0.8592,-0.8647,-0.8702,-0.8761,-0.8927,-0.9144,-0.9144,-0.9368,-0.9592,-0.9592,-0.9592,-0.9592,-0.9372,-0.9265,-0.9265,-0.8992,-0.8885,-0.8885,-0.8885,-0.8885,-0.8885,-0.8885,-0.8885,-0.8885,-0.8885,-0.8885,-0.8885,-0.8885,-0.8885,-0.8885,-0.8885,-0.8885,-0.8885,-0.8885,-0.8885,-0.8992,-0.9268,-0.9379,-0.9154,-0.8367,-0.814,-0.7193,-0.5079,-0.3357,-0.241,-0.2412,-0.2636,-0.2692,-0.2412,-0.2019,-0.157,-0.1009,-0.0393,-0.0056,0.0,0.0,0.0,0.0,0.0,0.0,0.0,0.0,0.0,0.0,0.0,0.0,0.0,0.0,0.0,0.0,0.0,0.0,0.0,0.0,0.0,0.0168,-1.5601,-1.5601,-1.5601,-1.5601,-1.5601,-1.5601,-1.5601,-1.5056,-1.4689,-1.4689,-1.4147,-1.3485,-1.2817,-1.2757,-1.2217,-1.0887,-1.0767,-1.0528,-0.9923,-0.9262,-0.89,-0.89,-0.8236,-0.7872,-0.7872,-0.8535,-0.8505,-0.7782,-0.7728,-0.7635,-0.7508,-0.7333,-0.7361,-0.7466,-0.7407,-0.7549,-0.7826,-0.7826,-0.7881,-0.7989,-0.8156,-0.8263,-0.8266,-0.838,-0.8546,-0.8712,-0.8712,-0.8768,-0.8885,-0.8885,-0.8885,-0.8885,-0.8885,-0.8885,-0.8885,-0.8885,-0.8885,-0.8885,-0.8885,-0.8885,-0.8885,-0.8885,-0.8885,-0.8885,-0.8885,-0.8885,-0.8885,-0.8885,-0.8885,-0.8885,-0.8885,-0.8885,-0.8885,-0.8885,-0.9047,-0.9213,-0.9379,-0.904,-0.8533,-0.8029,-0.6858,-0.5246,-0.3132,-0.2353,-0.2076,-0.2188,-0.2356,-0.2413,-0.2188,-0.1683,-0.1234,-0.0897,-0.0336,0.0,0.0,0.0,0.0,0.0,0.0,0.0,0.0,0.0,0.0,0.0,0.0,0.0,0.0,0.0,0.0,0.0,0.0,0.0,0.0,0.0,0.0728,0.1903,-1.5601,-1.5418,-1.5299,-1.5299,-1.5116,-1.4932,-1.4932,-1.4028,-1.3361,-1.3361,-1.2397,-1.1611,-1.143,-1.1189,-1.0649,-0.9562,-0.9502,-0.9019,-0.7994,-0.7872,-0.7872,-0.7872,-0.7872,-0.7872,-0.7872,-0.7872,-0.7872,-0.7872,-0.7777,-0.772,-0.7698,-0.7552,-0.7443,-0.7418,-0.7407,-0.7524,-0.7806,-0.7782,-0.7937,-0.8156,-0.8432,-0.8543,-0.8598,-0.8826,-0.8885,-0.8885,-0.8885,-0.8885,-0.8885,-0.8885,-0.8885,-0.8885,-0.8885,-0.8885,-0.8885,-0.8885,-0.8885,-0.8885,-0.8885,-0.8885,-0.8885,-0.8885,-0.8885,-0.8885,-0.8885,-0.8885,-0.8885,-0.8885,-0.8885,-0.8885,-0.8885,-0.8937,-0.8992,-0.8992,-0.9047,-0.9099,-0.9154,-0.8257,-0.7529,-0.736,-0.5135,-0.3132,-0.1906,-0.202,-0.2132,-0.2076,-0.2076,-0.2076,-0.1907,-0.1234,-0.0841,-0.0729,-0.028,0.0,0.0,0.0,0.0,0.0,0.0,0.0,0.0,0.0,0.0,0.0,0.0,0.0,0.0,0.0,0.0,0.0,0.0,0.0112,0.0336,0.056,0.2015,0.4027,-1.5601,-1.4694,-1.3968,-1.3968,-1.3002,-1.2213,-1.2213,-1.2093,-1.1972,-1.1972,-1.1792,-1.1249,-1.0165,-0.9079,-0.8355,-0.8175,-0.8175,-0.8113,-0.7933,-0.7872,-0.7872,-0.7872,-0.7872,-0.7872,-0.7872,-0.7872,-0.7872,-0.7872,-0.7856,-0.7799,-0.7701,-0.7963,-0.8004,-0.7892,-0.8055,-0.8282,-0.8552,-0.8428,-0.8543,-0.8771,-0.8826,-0.8826,-0.8826,-0.8881,-0.8885,-0.8885,-0.8885,-0.8885,-0.8885,-0.8885,-0.8885,-0.8885,-0.8885,-0.8885,-0.8885,-0.8885,-0.8885,-0.8885,-0.8885,-0.8885,-0.8885,-0.8885,-0.8885,-0.8885,-0.8885,-0.8885,-0.8885,-0.8885,-0.8885,-0.8885,-0.8885,-0.9158,-0.9323,-0.9323,-0.8484,-0.7925,-0.8143,-0.6974,-0.5695,-0.4689,-0.3078,-0.2018,-0.1795,-0.1851,-0.1739,-0.1458,-0.1683,-0.1514,-0.0673,-0.0785,-0.0673,-0.0112,-0.0056,0.0,0.0,0.0,0.0,0.0,0.0,0.0,0.0,0.0,0.0,0.0,0.0,0.0,0.0,0.0,0.0,0.0,0.0,0.0616,0.1679,0.2742,0.3971,0.5202,-1.3421,-1.2997,-1.2577,-1.2577,-1.2093,-1.1671,-1.1671,-1.1129,-1.0646,-1.0646,-1.0044,-0.938,-0.8778,-0.8236,-0.7872,-0.7872,-0.7872,-0.7872,-0.7872,-0.7872,-0.7872,-0.7872,-0.7872,-0.7872,-0.7872,-0.8058,-0.8183,-0.8183,-0.8183,-0.8155,-0.8104,-0.8327,-0.8441,-0.8378,-0.8421,-0.8532,-0.8813,-0.8668,-0.8775,-0.9052,-0.8971,-0.8885,-0.8885,-0.8885,-0.8885,-0.8885,-0.8885,-0.8885,-0.8885,-0.8885,-0.8885,-0.8885,-0.8885,-0.8885,-0.8885,-0.8885,-0.8885,-0.8885,-0.8885,-0.8885,-0.8885,-0.8885,-0.8885,-0.8885,-0.8885,-0.8885,-0.8885,-0.8885,-0.8885,-0.894,-0.9158,-0.9323,-0.9154,-0.8484,-0.8091,-0.7587,-0.6866,-0.5639,-0.4303,-0.291,-0.2186,-0.1795,-0.1795,-0.1795,-0.1683,-0.1346,-0.129,-0.1009,-0.0449,-0.0393,-0.028,0.0,0.0,0.0,0.0,0.0,0.0,0.0,0.0,0.0,0.0,0.0,0.0,0.0,0.0,0.0,0.0,0.0,0.0,0.0056,0.0728,0.1735,0.2966,0.414,0.4923,0.5483]},{"header":{"parameterUnit":"m.s-1","parameterCategory":1,"la1":30.6,"la2":28.766,"lo1":-90.7593,"lo2":-88.6598,"dy":0.0162,"dx":0.0183,"nx":116,"ny":114,"refTime":"2023-05-10T00:00:00:Z","depth":0,"parameterNumber":3,"parameterNumberName":"V-component_of_WINDS"},"data":[0.0,0.0,0.0,0.0,0.0,0.0,0.0,0.0,0.0,0.0,0.0,0.0,0.0,0.0,0.0,0.0,0.0,0.0,0.0,0.0,0.0,0.0,0.0,0.0,0.0,0.0,0.0,0.0,0.0,0.0,0.0,0.0,0.0,0.0,0.0,0.0,0.0,0.0,0.0,0.0,0.0,0.0,0.0,0.0,0.0,0.0,0.0,0.0,0.0,0.0,0.0,0.0,0.0,0.0,0.0,0.0,0.0,0.0,0.0,0.0,0.0,0.0,0.0,0.0,0.0,0.0,0.0,0.0,0.0,0.0,0.0,0.0,0.0,0.0,0.0,0.0,0.0,0.0,0.0,0.0,0.0,0.0,0.0,0.0,0.0,0.0,0.0,0.0,0.0,0.0,0.0,0.0,0.0,0.0,0.0,0.0,0.0,0.0,0.0,0.0,0.0,0.0,0.0,0.0,0.0,0.0,0.0,0.0,0.0,0.0,0.0,0.0,0.0,0.0,0.0,0.0,0.0,0.0,0.0,0.0,0.0,0.0,0.0,0.0,0.0,0.0,0.0,0.0,0.0,0.0,0.0,0.0,0.0,0.0,0.0,0.0,0.0,0.0,0.0,0.0,0.0,0.0,0.0,0.0,0.0,0.0,0.0,0.0,0.0,0.0,0.0,0.0,0.0,0.0,0.0,0.0,0.0,0.0,0.0,0.0,0.0,0.0,0.0,0.0,0.0,0.0,0.0,0.0,0.0,0.0,0.0,0.0,0.0,0.0,0.0,0.0,0.0,0.0,0.0,0.0,0.0,0.0,0.0,0.0,0.0,0.0,0.0,0.0,0.0,0.0,0.0,0.0,0.0,0.0,0.0,0.0,0.0,0.0,0.0,0.0,0.0,0.0,0.0,0.0,0.0,0.0,0.0,0.0,0.0,0.0,0.0,0.0,0.0,0.0,0.0,0.0,0.0,0.0,0.0,0.0,0.0,0.0,0.0,0.0,0.0,0.0,0.0,0.0,0.0,0.0,0.0,0.0,0.0,0.0,0.0,0.0,0.0,0.0,0.0,0.0,0.0,0.0,0.0,0.0,0.0,0.0,0.0,0.0,0.0,0.0,0.0,0.0,0.0,0.0,0.0,0.0,0.0,0.0,0.0,0.0,0.0,0.0,0.0,0.0,0.0,0.0,0.0,0.0,0.0,0.0,0.0,0.0,0.0,0.0,0.0,0.0,0.0,0.0,0.0,0.0,0.0,0.0,0.0,0.0,0.0,0.0,0.0,0.0,0.0,0.0,0.0,0.0,0.0,0.0,0.0,0.0,0.0,0.0,0.0,0.0,0.0,0.0,0.0,0.0,0.0,0.0,0.0,0.0,0.0,0.0,0.0,0.0,0.0,0.0,0.0,0.0,0.0,0.0,0.0,0.0,0.0,0.0,0.0,0.0,0.0,0.0,0.0,0.0,0.0,0.0,0.0,0.0,0.0,0.0,0.0,0.0,0.0,0.0,0.0,0.0,0.0,0.0,0.0,0.0,0.0,0.0,0.0,0.0,0.0,0.0,0.0,0.0,0.0,0.0,0.0,0.0,0.0,0.0,0.0,0.0,0.0,0.0,0.0,0.0,0.0,0.0,0.0,0.0,0.0,0.0,0.0,0.0,0.0,0.0,0.0,0.0,0.0,0.0,0.0,0.0,0.0,0.0,0.0,0.0,0.0,0.0,0.0,0.0,0.0,0.0,0.0,0.0,0.0,0.0,0.0,0.0,0.0,0.0,0.0,0.0,0.0,0.0,0.0,0.0,0.0,0.0,0.0,0.0,0.0,0.0,0.0,0.0,0.0,0.0,0.0,0.0,0.0,0.0,0.0,0.0,0.0,0.0,0.0,0.0,0.0,0.0,0.0,0.0,0.0,0.0,0.0,0.0,0.0,0.0,0.0,0.0,0.0,0.0,0.0,0.0,0.0,0.0,0.0,0.0,0.0,0.0,0.0,0.0,0.0,0.0,0.0,0.0,0.0,0.0,0.0,0.0,0.0,0.0,0.0,0.0,0.0,0.0,0.0,0.0,0.0,0.0,0.0,0.0,0.0,0.0,0.0,0.0,0.0,0.0,0.0,0.0,0.0,0.0,0.0,0.0,0.0,0.0,0.0,0.0,0.0,0.0,0.0,0.0,0.0,0.0,0.0,0.0,0.0,0.0,0.0,0.0,0.0,0.0,0.0,0.0,0.0,0.0,0.0,0.0,0.0,0.0,0.0,0.0,0.0,0.0,0.0,0.0,0.0,0.0,0.0,0.0,0.0,0.0,0.0,0.0,0.0,0.0,0.0,0.0,0.0,0.0,0.0,0.0,0.0,0.0,0.0,0.0,0.0,0.0,0.0,0.0,0.0,0.0,0.0,0.0,0.0,0.0,0.0,0.0,0.0,0.0,0.0,0.0,0.0,0.0,0.0,0.0,0.0,0.0,0.0,0.0,0.0,0.0,0.0,0.0,0.0,0.0,0.0,0.0,0.0,0.0,0.0,0.0,0.0,0.0,0.0,0.0,0.0,0.0,0.0,0.0,0.0,0.0,0.0,0.0,0.0,0.0,0.0,0.0,0.0,0.0,0.0,0.0,0.0,0.0,0.0,0.0,0.0,0.0,0.0,0.0,0.0,0.0,0.0,0.0,0.0,0.0,0.0,0.0,0.0,0.0,0.0,0.0,0.0,0.0,0.0,0.0,0.0,0.0,0.0,0.0,0.0,0.0,0.0,0.0,0.0,0.0,0.0,0.0,0.0,0.0,0.0,0.0,0.0,0.0,0.0,0.0,0.0,0.0,0.0,0.0,0.0,0.0,0.0,0.0,0.0,0.0,0.0,0.0,0.0,0.0,0.0,0.0,0.0,0.0,0.0,0.0,0.0,0.0,0.0,0.0,0.0,0.0,0.0,0.0,0.0,0.0,0.0,0.0,0.0,0.0,0.0,0.0,0.0,0.0,0.0,0.0,0.0,0.0,0.0,0.0,0.0,0.0,0.0,0.0,0.0,0.0,0.0,0.0,0.0,0.0,0.0,0.0,0.0,0.0,0.0,0.0,0.0,0.0,0.0,0.0,0.0,0.0,0.0,0.0,0.0,0.0,0.0,0.0,0.0,0.0,0.0,0.0,0.0,0.0,0.0,0.0,0.0,0.0,0.0,0.0,0.0,0.0,0.0,0.0,0.0,0.0,0.0,0.0,0.0,0.0,0.0,0.0,0.0,0.0,0.0,0.0,0.0,0.0,0.0,0.0,0.0,0.0,0.0,0.0,0.0,0.0,0.0,0.0,0.0,0.0,0.0,0.0,0.0,0.0,0.0,0.0,0.0,0.0,0.0,0.0,0.0,0.0,0.0,0.0,0.0,0.0,0.0,0.0,0.0,0.0,0.0,0.0,0.0,0.0,0.0,0.0,0.0,0.0,0.0,0.0,0.0,0.0,0.0,0.0,0.0,0.0,0.0,0.0,0.0,0.0,0.0,0.0,0.0,0.0,0.0,0.0,0.0,0.0,0.0,0.0,0.0,0.0,0.0,0.0,0.0,0.0,0.0,0.0,0.0,0.0,0.0,0.0,0.0,0.0,0.0,0.0,0.0,0.0,0.0,0.0,0.0,0.0,0.0,0.0,0.0,0.0,0.0,0.0,0.0,0.0,0.0,0.0,0.0,0.0,0.0,0.0,0.0,0.0,0.0,0.0,0.0,0.0,0.0,0.0,0.0,0.0,0.0,0.0,0.0,0.0,0.0,0.0,0.0,0.0,0.0,0.0,0.0,0.0,0.0,0.0,0.0,0.0,0.0,0.0,0.0,0.0,0.0,0.0,0.0,0.0,0.0,0.0,0.0,0.0,0.0,0.0,0.0,0.0,0.0,0.0,0.0,0.0,0.0,0.0,0.0,0.0,0.0,0.0,0.0,0.0,0.0,0.0,0.0,0.0,0.0,0.0,0.0,0.0,0.0,0.0,0.0,0.0,0.0,0.0,0.0,0.0,0.0,0.0,0.0,0.0,0.0,0.0,0.0,0.0,0.0,0.0,0.0,0.0,0.0,0.0,0.0,0.0,0.0,0.0,0.0,0.0,0.0,0.0,0.0,0.0,0.0,0.0,0.0,0.0,0.0,0.0,0.0,0.0,0.0,0.0,0.0,0.0,0.0,0.0,0.0,0.0,0.0,0.0,0.0,0.0,0.0,0.0,0.0,0.0,0.0,0.0,0.0,0.0,0.0,0.0,0.0,0.0,0.0,0.0,0.0,0.0,0.0,0.0,0.0,0.0,0.0,0.0,0.0,0.0,0.0,0.0,0.0,0.0,0.0,0.0,0.0,0.0,0.0,0.0,0.0,0.0,0.0,0.0,0.0,0.0,0.0,0.0,0.0,0.0,0.0,0.0,0.0,0.0,0.0,0.0,0.0,0.0,0.0,0.0,0.0,0.0,0.0,0.0,0.0,0.0,0.0,0.0,0.0,0.0,0.0,0.0,0.0,0.0,0.0,0.0,0.0,0.0,0.0,0.0,0.0,0.0,0.0,0.0,0.0,0.0,0.0,0.0,0.0,0.0,0.0,0.0,0.0,0.0,0.0,0.0,0.0,0.0,0.0,0.0,0.0,0.0,0.0,0.0,0.0,0.0,0.0,0.0,0.0,0.0,0.0,0.0,0.0,0.0,0.0,0.0,0.0,0.0,0.0,0.0,0.0,0.0,0.0,0.0,0.0,0.0,0.0,0.0,0.0,0.0,0.0,0.0,0.0,0.0,0.0,0.0,0.0,0.0,0.0,0.0,0.0,0.0,0.0,0.0,0.0,0.0,0.0,0.0,0.0,0.0,0.0,0.0,0.0,0.0,0.0,0.0,0.0,0.0,0.0,0.0,0.0,0.0,0.0,0.0,0.0,0.0,0.0,0.0,0.0,0.0,0.0,0.0,0.0,0.0,0.0,0.0,0.0,0.0,0.0,0.0,0.0,0.0,0.0,0.0,0.0,0.0,0.0,0.0,0.0,0.0,0.0,0.0,0.0,0.0,0.0,0.0,0.0,0.0,0.0,0.0,0.0,0.0,0.0,0.0,0.0,0.0,0.0,0.0,0.0,0.0,0.0,0.0,0.0,0.0,0.0,0.0,0.0,0.0,0.0,0.0,0.0,0.0,0.0,0.0,0.0,0.0,0.0,0.0,0.0,0.0,0.0,0.0,0.0,0.0,0.0,0.0,0.0,0.0,0.0,0.0,0.0,0.0,0.0,0.0,0.0,0.0,0.0,0.0,0.0,0.0,0.0,0.0,0.0,0.0,0.0,0.0,0.0,0.0,0.0,0.0,0.0,0.0,0.0,0.0,0.0,0.0,0.0,0.0,0.0,0.0,0.0,0.0,0.0,0.0,0.0,0.0,0.0,0.0,0.0,0.0,0.0,0.0,0.0,0.0,0.0,0.0,0.0,0.0,0.0,0.0,0.0,0.0,0.0,0.0,0.0,0.0,0.0,0.0,0.0,0.0,0.0,0.0,0.0,0.0,0.0,0.0,0.0,0.0,0.0,0.0,0.0,0.0,0.0,0.0,0.0,0.0,0.0,0.0,0.0,0.0,0.0,0.0,0.0,0.0,0.0,0.0,0.0,0.0,0.0,0.0,0.0,0.0,0.0,0.0,0.0,0.0,0.0,0.0,0.0,0.0,0.0,0.0,0.0,0.0,0.0,0.0,0.0,0.0,0.0,0.0,0.0,0.0,0.0,0.0,0.0,0.0,0.0,0.0,0.0,0.0,0.0,0.0,0.0,0.0,0.0,0.0,0.0,0.0,0.0,0.0,0.0,0.0,0.0,0.0,0.0,0.0,0.0,0.0,0.0,0.0,0.0,0.0,0.0,0.0,0.0,0.0,0.0,0.0,0.0,0.0,0.0,0.0,0.0,0.0,0.0,0.0,0.0,0.0,0.0,0.0,0.0,0.0,0.0,0.0,0.0,0.0,0.0,0.0,0.0,0.0,0.0,0.0,0.0,0.0,0.0,0.0,0.0,0.0,0.0,0.0,0.0,0.0,0.0,0.0,0.0,0.0,0.0,0.0,0.0,0.0,0.0,0.0,0.0,0.0,0.0,0.0,0.0,0.0,0.0,0.0,1.5881,0.0,0.0,0.0,0.0,0.0,0.0,0.0,0.0,0.0,0.0,0.0,0.0,0.0,0.0,0.0,0.0,0.0,0.0,0.0,0.0,0.0,0.0,0.0,0.0,0.0,0.0,0.0,0.0,0.0,0.0,0.0,0.0,0.0,0.0,0.0,0.0,0.0,0.0,2.9432,2.982,3.0237,3.0609,2.9162,2.8062,2.7202,0.0,0.0,0.0,0.0,0.0,0.0,0.0,0.0,0.0,0.0,0.0,0.0,0.0,0.0,0.0,0.0,0.0,0.0,0.0,0.0,0.0,0.0,0.0,0.0,0.0,0.0,0.0,0.0,0.0,0.0,0.0,0.0,0.0,0.0,0.0,0.0,0.0,0.0,0.0,0.0,0.0,0.0,0.0,0.0,0.0,0.0,0.0,0.0,0.0,0.0,0.0,0.0,0.0,0.0,0.0,0.0,0.0,0.0,0.0,0.0,0.0,0.0,0.0,0.0,0.0,0.0,0.0,0.0,0.0,0.0,0.0,1.5481,0.0,0.0,0.0,0.0,0.0,0.0,0.0,0.0,0.0,0.0,0.0,0.0,0.0,0.0,0.0,0.0,0.0,0.0,0.0,0.0,0.0,0.0,0.0,3.2817,3.271,3.3056,3.2737,3.2493,0.0,0.0,0.0,0.0,0.0,0.0,3.0877,3.0837,3.0631,3.0254,3.142,3.1886,3.1719,3.175,3.1176,3.0032,2.8399,0.0,0.0,0.0,0.0,0.0,0.0,0.0,0.0,0.0,0.0,0.0,0.0,0.0,0.0,0.0,0.0,0.0,0.0,0.0,0.0,0.0,0.0,0.0,0.0,0.0,0.0,0.0,0.0,0.0,0.0,0.0,0.0,0.0,0.0,0.0,0.0,0.0,0.0,0.0,0.0,0.0,0.0,0.0,0.0,0.0,0.0,0.0,0.0,0.0,0.0,0.0,0.0,0.0,0.0,0.0,0.0,0.0,0.0,0.0,0.0,0.0,0.0,0.0,2.1508,2.1445,2.1271,2.1271,2.1174,2.0776,1.7973,1.7294,1.8033,1.5289,0.0,0.0,0.0,0.0,0.0,0.0,0.0,0.0,0.0,0.0,0.0,0.0,0.0,0.0,0.0,0.0,0.0,0.0,0.0,0.0,0.0,3.3675,3.3547,3.2977,3.3229,3.3255,3.2844,0.0,0.0,0.0,0.0,0.0,3.0304,3.0737,3.1326,3.2069,3.4663,3.5502,3.4666,3.4729,3.4487,3.3931,3.1177,2.9574,2.8939,0.0,0.0,0.0,0.0,0.0,0.0,0.0,0.0,0.0,0.0,0.0,0.0,0.0,0.0,0.0,0.0,0.0,0.0,0.0,0.0,0.0,0.0,0.0,0.0,0.0,0.0,0.0,0.0,0.0,0.0,0.0,0.0,0.0,0.0,0.0,0.0,0.0,0.0,0.0,0.0,0.0,2.6207,2.52,0.0,0.0,0.0,0.0,0.0,0.0,0.0,0.0,0.0,0.0,0.0,0.0,0.0,2.1047,2.1345,2.1148,2.1343,2.1919,2.1919,2.209,2.2398,2.2398,2.2348,2.2272,2.1246,0.0,1.8033,1.8015,0.0,0.0,0.0,0.0,0.0,0.0,0.0,0.0,0.0,0.0,0.0,0.0,0.0,0.0,0.0,0.0,0.0,0.0,0.0,0.0,0.0,3.5396,3.5464,3.5885,3.5861,3.5284,3.4169,3.3514,0.0,0.0,0.0,3.1146,3.1479,3.2357,3.3779,3.5826,3.7081,3.7484,3.7053,3.7065,3.6847,3.6345,3.4406,3.2574,3.0927,3.0794,0.0,0.0,0.0,0.0,0.0,0.0,0.0,0.0,0.0,0.0,0.0,0.0,0.0,0.0,0.0,0.0,0.0,0.0,0.0,0.0,0.0,0.0,0.0,0.0,0.0,0.0,0.0,0.0,0.0,0.0,0.0,0.0,0.0,0.0,0.0,0.0,0.0,0.0,0.0,2.688,2.6654,2.6229,2.57,2.5174,0.0,0.0,0.0,0.0,0.0,0.0,0.0,0.0,0.0,2.1826,2.1812,2.1836,2.1981,2.1895,2.2042,2.2354,2.2354,2.2339,2.2333,2.2333,2.2333,2.2274,2.2013,2.1346,2.0442,1.923,1.7829,1.6432,0.0,0.0,0.0,0.0,1.5112,1.5311,0.0,0.0,0.0,0.0,0.0,0.0,0.0,0.0,0.0,0.0,0.0,0.0,3.7173,3.7194,3.7473,3.834,3.8063,3.7273,3.5874,3.5252,3.4394,3.3207,3.2461,3.2506,3.342,3.479,3.651,3.8619,3.9179,3.9323,3.9072,3.9136,3.8877,3.8348,3.7149,3.5214,3.2827,3.226,3.1297,3.0068,0.0,0.0,0.0,0.0,0.0,0.0,0.0,0.0,0.0,0.0,0.0,0.0,0.0,0.0,0.0,0.0,0.0,0.0,0.0,0.0,0.0,0.0,0.0,0.0,0.0,0.0,0.0,0.0,0.0,0.0,0.0,0.0,0.0,0.0,0.0,0.0,0.0,2.7239,2.7206,2.7001,2.6738,2.6357,0.0,0.0,0.0,0.0,0.0,0.0,2.4243,2.3514,2.3059,2.2892,2.2996,2.2912,2.2684,2.2757,2.2795,2.2795,2.2795,2.2695,2.2434,2.2434,2.2434,2.2434,2.2325,2.2426,2.2458,2.0492,1.9429,1.8954,1.7838,1.7156,1.6764,1.6883,1.6988,1.708,0.0,0.0,0.0,0.0,0.0,0.0,0.0,0.0,0.0,0.0,0.0,3.7676,3.7749,3.8755,3.9236,3.8721,3.8777,3.858,3.7982,3.7256,3.6843,3.6831,3.5182,3.479,3.5985,3.793,3.8962,3.8983,4.1007,4.1508,4.0595,4.0783,4.0673,4.0229,3.8942,3.6884,3.4356,3.376,3.2291,3.0385,3.0547,0.0,0.0,0.0,0.0,0.0,0.0,0.0,0.0,0.0,0.0,0.0,0.0,0.0,0.0,0.0,0.0,0.0,0.0,0.0,0.0,0.0,0.0,0.0,0.0,0.0,0.0,0.0,0.0,0.0,0.0,0.0,0.0,0.0,0.0,0.0,0.0,0.0,0.0,2.7247,2.785,0.0,0.0,0.0,0.0,2.6596,2.5723,2.5351,2.5681,2.5665,2.5346,2.4769,2.4758,2.4335,2.337,2.3279,2.3288,2.3347,2.3347,2.3347,2.3347,2.3347,2.3347,2.3297,2.2979,2.2878,2.287,2.2466,2.1412,2.0039,1.9974,1.9154,1.8164,1.937,1.9698,1.9588,0.0,0.0,0.0,0.0,0.0,0.0,0.0,0.0,3.7011,3.7847,3.8183,3.877,3.9815,4.0311,4.0666,4.0919,4.0993,4.0718,4.0014,3.9447,3.8456,3.6967,3.6911,3.7778,3.9619,4.0874,4.1957,4.2853,4.3406,4.3352,4.2682,4.2547,4.2208,4.174,4.1039,3.9747,3.7933,3.6293,3.4598,3.3001,3.2642,3.1322,0.0,0.0,0.0,0.0,0.0,0.0,0.0,0.0,0.0,0.0,0.0,0.0,0.0,0.0,0.0,0.0,0.0,0.0,0.0,0.0,0.0,0.0,0.0,0.0,0.0,0.0,0.0,0.0,0.0,0.0,0.0,0.0,0.0,0.0,0.0,0.0,0.0,2.8241,2.8706,0.0,2.8374,2.8432,2.8478,2.8507,2.7869,2.7519,2.7643,2.7233,2.6882,2.6617,2.6597,2.6108,2.507,2.4865,2.4492,2.3836,2.3836,2.3737,2.3587,2.3587,2.3646,2.3646,2.3546,2.3587,2.3746,2.3646,2.2822,2.1661,2.1661,2.131,2.0939,2.1372,2.1414,2.1304,0.0,0.0,0.0,0.0,0.0,0.0,0.0,0.0,3.7755,3.8834,3.9013,3.9662,4.1304,4.1831,4.2338,4.2944,4.3017,4.2811,4.236,4.1535,4.0332,3.8677,3.9473,4.0695,4.2372,4.342,4.4397,4.5346,4.5018,4.4674,4.4378,4.4042,4.3647,4.3273,4.2831,4.2073,4.1055,3.9107,3.7086,3.5122,3.4211,3.2803,3.1105,0.0,0.0,0.0,0.0,0.0,0.0,0.0,0.0,0.0,0.0,0.0,0.0,0.0,0.0,0.0,0.0,0.0,0.0,0.0,0.0,0.0,0.0,0.0,0.0,0.0,0.0,0.0,0.0,0.0,0.0,0.0,0.0,0.0,0.0,0.0,2.9918,2.944,2.9604,2.9542,2.9003,2.9407,2.9737,2.9738,2.9428,2.9187,2.9187,2.8713,2.8341,2.7966,2.8121,2.7641,2.6559,2.6502,2.6118,2.5363,2.5363,2.5129,2.4599,2.4501,2.4313,2.4044,2.3945,2.4053,2.4202,2.4202,2.3746,2.3088,2.3088,2.3038,2.3024,2.3024,2.2863,2.2586,0.0,0.0,0.0,0.0,0.0,0.0,0.0,3.7802,3.7728,3.9309,3.9658,4.0393,4.2077,4.3331,4.4193,4.4595,4.4633,4.473,4.4895,4.3446,4.248,4.229,4.2839,4.3452,4.4074,4.5494,4.6163,4.6042,4.5689,4.552,4.5537,4.5186,4.4951,4.4803,4.4117,4.3706,4.3433,4.2127,3.9692,3.655,3.5185,3.431,3.3545,0.0,0.0,0.0,0.0,0.0,0.0,0.0,0.0,0.0,0.0,0.0,0.0,0.0,0.0,0.0,0.0,0.0,0.0,0.0,0.0,0.0,0.0,0.0,0.0,0.0,0.0,0.0,0.0,0.0,0.0,0.0,0.0,0.0,3.2553,3.1759,3.1155,3.084,3.0474,3.0122,2.965,2.9985,3.0261,3.0261,3.0261,3.0261,3.0261,3.0261,2.9795,2.8817,2.929,2.8956,2.7683,2.8143,2.8215,2.7913,2.7913,2.7405,2.6426,2.6224,2.5557,2.4627,2.444,2.4341,2.4341,2.4282,2.4282,2.4301,2.4202,2.4202,2.4202,2.4202,2.3886,2.3361,0.0,0.0,0.0,0.0,0.0,0.0,3.8183,3.8358,3.8935,3.9952,4.0663,4.1711,4.3323,4.4283,4.4842,4.4946,4.5499,4.5615,4.5073,4.4364,4.3955,4.4011,4.4247,4.4932,4.6077,4.6504,4.6694,4.6648,4.6305,4.6227,4.6358,4.5665,4.5399,4.5425,4.4899,4.4412,4.3975,4.3414,4.2119,4.0347,3.8495,3.6962,3.5621,0.0,0.0,0.0,0.0,0.0,0.0,0.0,0.0,0.0,0.0,0.0,0.0,0.0,0.0,0.0,0.0,0.0,0.0,0.0,0.0,0.0,0.0,0.0,0.0,0.0,0.0,0.0,0.0,0.0,0.0,0.0,3.4817,3.4523,3.2979,3.3008,3.311,3.3027,3.2516,3.2129,3.1982,3.1529,3.1306,3.1306,3.1306,3.1306,3.1306,3.1415,3.1226,3.0611,3.1261,3.0913,2.9475,2.9932,2.9692,2.8716,2.8716,2.8355,2.7804,2.7876,2.7678,2.7243,2.7364,2.74,2.7332,2.629,2.6087,2.6244,2.4775,2.4202,2.4202,2.4202,2.3858,2.3372,0.0,0.0,0.0,0.0,0.0,0.0,3.8474,3.8566,3.9221,4.0724,4.1115,4.2165,4.4461,4.5075,4.5589,4.6297,4.6145,4.5929,4.5706,4.4784,4.4616,4.5421,4.5532,4.6261,4.7702,4.7738,4.7738,4.7738,4.7263,4.7088,4.7208,4.6436,4.5975,4.5775,4.552,4.5072,4.4524,4.4412,4.3831,4.28,4.1585,3.9755,3.7653,3.6877,3.625,3.5756,3.5019,3.4486,3.4144,3.4227,0.0,0.0,0.0,0.0,0.0,0.0,0.0,0.0,0.0,0.0,0.0,0.0,0.0,0.0,0.0,0.0,0.0,0.0,0.0,0.0,0.0,0.0,0.0,0.0,3.5969,3.5758,3.4741,3.4563,3.4543,3.4708,3.392,3.3216,3.2943,3.2463,3.2064,3.1749,3.1705,3.1705,3.1705,3.1825,3.1737,3.1484,3.1969,3.1813,3.0935,3.1315,3.1137,3.0441,3.0441,3.0068,2.9372,2.9453,2.9166,2.859,2.8615,2.8604,2.8536,2.7732,2.7554,0.0,0.0,0.0,0.0,0.0,2.4449,2.397,0.0,0.0,0.0,0.0,0.0,0.0,3.9026,3.8579,3.91,4.1394,4.1319,4.2262,4.5359,4.5823,4.645,4.7747,4.6611,4.5941,4.6289,4.5037,4.4947,4.645,4.6708,4.7456,4.8872,4.8909,4.8909,4.8909,4.829,4.8,4.8,4.736,4.6717,4.6154,4.6081,4.5767,4.5266,4.5266,4.4937,4.4401,4.4209,4.2436,3.9785,3.8873,3.8184,3.7672,3.6772,3.6179,3.5814,3.5847,0.0,0.0,0.0,0.0,0.0,0.0,0.0,0.0,0.0,0.0,0.0,0.0,0.0,0.0,0.0,0.0,0.0,0.0,0.0,0.0,0.0,0.0,0.0,0.0,3.6666,3.6978,3.6978,3.6136,3.5628,3.6029,3.4953,3.3949,3.3356,3.3156,3.2766,3.2045,3.1925,3.1837,3.1837,0.0,0.0,0.0,0.0,3.212,3.2045,3.2332,3.2475,3.2431,3.2431,3.1969,3.108,3.0833,3.0259,2.9419,2.9214,2.9111,2.91,2.8918,2.8804,2.8449,2.6282,2.5666,2.6013,2.6109,2.562,2.492,0.0,0.0,0.0,0.0,0.0,0.0,3.8565,3.8946,3.9721,4.0852,4.2061,4.3557,4.5491,4.6996,4.7443,4.642,4.677,4.6506,4.5202,4.6081,4.6642,4.6663,4.797,4.8762,4.8909,4.8909,4.8909,4.8909,4.8785,4.8713,4.8695,4.8195,4.7866,4.7727,4.718,4.6932,4.6882,4.6098,4.5749,4.5681,4.5178,4.391,4.2252,4.1814,4.1247,4.0681,4.0637,3.9902,3.8956,3.9254,3.8736,3.7996,3.8111,3.777,0.0,0.0,0.0,0.0,0.0,0.0,0.0,0.0,0.0,0.0,0.0,0.0,0.0,0.0,0.0,0.0,0.0,0.0,0.0,3.6764,3.6908,3.6978,3.6978,3.6822,3.6769,3.7003,3.6492,3.6029,3.5909,3.48,3.405,3.3882,3.3227,3.281,3.281,3.281,3.2636,3.2257,3.268,3.2723,3.2344,3.2736,3.2865,3.2636,0.0,0.0,3.2113,3.222,3.2164,3.1977,3.214,3.2227,3.2147,3.0958,2.988,2.8937,2.8191,2.7971,2.8104,2.8509,2.75,2.5982,0.0,0.0,0.0,0.0,0.0,0.0,3.9014,3.9326,3.989,4.0685,4.1529,4.2675,4.4327,4.5343,4.5733,4.533,4.5823,4.5822,4.5042,4.654,4.7745,4.8421,4.9239,4.9651,4.956,4.956,4.9472,4.9358,4.9246,4.9137,4.9046,4.8713,4.8421,4.8196,4.7846,4.7539,4.7259,4.6837,4.6624,4.6525,4.591,4.5242,4.4565,4.3752,4.304,4.2456,4.2565,4.2137,4.1533,4.1706,4.123,4.061,4.0674,4.0271,3.9532,0.0,0.0,0.0,0.0,0.0,0.0,0.0,0.0,0.0,0.0,0.0,0.0,0.0,0.0,3.7041,3.6335,0.0,3.7125,3.7014,3.6978,3.6978,3.6978,3.6978,3.707,3.7264,3.7095,3.6833,3.6492,3.587,3.5305,3.4896,3.4553,3.4345,3.4345,3.4345,3.4079,3.3441,3.3654,3.3441,3.2779,3.2995,3.3025,3.2896,3.2896,3.2853,3.2736,3.2853,3.2896,3.2896,3.3025,3.3124,3.3056,3.2327,3.1588,3.089,3.0704,3.0067,2.9247,2.9647,2.878,2.7491,0.0,0.0,0.0,0.0,0.0,0.0,0.0,3.9589,3.989,4.0685,4.0947,4.163,4.32,4.3555,4.3887,4.435,4.4808,4.5157,4.5265,4.7112,4.8813,5.0165,5.0222,5.021,5.0195,5.0195,5.008,4.9884,4.965,4.9472,4.9321,4.9113,4.8801,4.8458,4.8403,4.8101,4.7581,4.7557,4.7446,4.72,4.6601,4.6341,4.6213,4.5251,4.435,4.3602,4.3602,4.3442,4.3234,4.3281,4.3015,4.2664,4.2679,4.23,4.1582,4.0195,4.0085,0.0,0.0,0.0,0.0,0.0,0.0,0.0,0.0,3.9428,3.886,3.852,3.9083,3.9292,3.8326,3.8546,3.8649,3.7862,3.7745,3.776,3.7579,3.7441,3.7356,3.7526,3.7412,3.7095,3.6559,3.6531,3.6255,3.5548,3.5534,3.5534,3.5534,3.5574,3.5305,3.4662,3.462,3.4301,3.3598,3.3598,3.3598,3.3598,3.3441,3.3368,3.3368,3.3167,3.3124,3.3124,3.3197,3.324,3.3197,3.3154,3.3025,3.2797,3.2667,3.1681,3.0317,3.0543,2.9892,2.8912,0.0,0.0,0.0,0.0,0.0,0.0,0.0,0.0,3.989,4.0685,4.1423,4.2309,4.3443,4.4263,4.4352,4.3361,4.4827,4.5722,4.5573,4.8563,5.0326,5.0298,5.0287,5.0251,5.0206,5.0195,5.0183,5.0159,4.9891,4.9744,4.9721,4.9525,4.9393,4.9345,4.9162,4.9044,4.894,4.8365,4.8002,4.7779,4.7406,4.6895,4.6405,4.6501,4.5605,4.43,4.43,4.3896,4.3396,4.3564,4.3597,4.3568,4.3698,4.3248,4.2394,4.1127,4.0348,3.9572,3.807,3.8551,3.9739,4.0878,4.139,4.1741,0.0,4.1546,4.1044,4.1625,4.1221,4.0855,4.1371,4.1537,4.1287,4.0442,4.0486,4.04,3.9679,3.8928,3.8453,3.8453,3.776,3.7264,3.7211,3.6677,3.6294,3.6215,3.5682,3.5346,3.5346,3.5494,3.5574,3.5467,3.5467,3.5427,3.5305,3.5305,3.5305,3.5305,3.462,3.4272,3.423,3.3441,3.3124,3.3124,3.3471,3.3641,3.3641,3.3441,3.3356,3.327,3.2692,3.23,3.2113,3.2157,3.1117,2.9682,0.0,0.0,0.0,0.0,0.0,0.0,0.0,0.0,0.0,4.0238,4.0673,4.113,4.157,4.2086,4.2236,4.1854,4.4366,4.5927,4.5841,4.9039,5.0884,5.0782,5.0774,5.075,5.0722,5.0722,5.065,5.0491,5.0338,5.0137,4.9847,4.974,4.9615,4.9509,4.9409,4.9313,4.9179,4.8887,4.8658,4.844,4.7901,4.7424,4.6959,4.676,4.5814,4.4587,4.4742,4.4534,0.0,4.4243,4.3983,4.3676,4.4198,4.3659,4.2607,4.1649,4.0913,4.0245,3.9663,3.9579,4.0087,4.1724,4.2346,4.2698,4.3262,4.321,4.3089,4.3409,4.315,4.2833,4.2674,4.2649,4.2381,4.1572,4.155,4.1513,4.1272,4.0548,3.9962,3.9665,3.8923,3.8165,3.7538,3.7544,3.7567,3.7567,3.7424,3.7357,3.7357,3.7434,3.7266,3.6891,3.6891,3.6682,3.6302,3.6172,3.6107,3.6107,3.5641,3.5453,3.5453,3.5075,3.4952,3.5075,3.5373,3.552,3.548,3.5399,3.5034,3.443,3.3677,3.3237,3.2982,3.2865,3.1955,3.0753,0.0,0.0,0.0,0.0,0.0,0.0,0.0,0.0,0.0,0.0,4.012,4.021,4.0246,4.0506,4.0726,4.0837,4.3597,4.5536,4.6008,4.8812,5.0659,5.1109,5.1128,5.1111,5.1088,5.1088,5.1004,5.0813,5.07,5.0481,5.0141,4.9924,4.9749,4.9611,4.9532,4.9427,4.9279,4.9279,4.9181,4.8925,4.844,4.8002,4.7539,4.6816,4.5905,4.5003,4.508,4.4813,4.4425,4.4474,4.41,4.37,4.4309,4.3695,4.2654,4.198,4.1193,4.0684,4.1118,4.0902,4.0969,4.286,4.342,4.3615,4.421,4.4439,4.4554,4.4747,4.4762,4.4591,4.4202,4.4164,4.3902,4.3133,4.3096,4.3133,4.3029,4.2376,4.179,4.1459,4.039,3.9398,3.8606,3.8454,3.8404,3.8404,3.8612,3.8723,3.8723,3.8745,3.8583,3.8078,3.8078,3.7861,3.7363,3.72,3.7123,3.7123,3.6721,3.6565,3.6526,3.633,3.6316,3.6512,3.6771,3.6965,3.6989,3.6989,3.6551,3.5841,3.5046,3.4377,3.3814,3.3982,3.2954,3.1518,0.0,0.0,0.0,0.0,0.0,0.0,0.0,0.0,0.0,0.0,0.0,0.0,0.0,4.0684,4.0835,4.0729,4.2524,4.4362,4.5985,4.7829,4.9562,5.1133,5.1206,5.1161,5.1105,5.1099,5.1099,5.1093,5.0884,5.0782,5.0766,5.0164,4.9886,4.9879,4.9625,4.9509,4.949,4.949,4.9361,4.9179,4.9162,4.8765,4.8047,4.6866,4.6104,4.5628,4.5229,4.4511,4.3733,4.3892,4.3916,4.3875,4.3933,4.3419,4.269,4.2147,4.1066,4.0364,4.1941,4.2336,4.2746,4.4494,4.4935,4.4984,4.5228,4.5098,4.5179,4.5879,4.5876,4.5952,4.6647,4.6777,4.6518,4.5706,4.5937,4.5885,4.5106,4.4408,4.3992,4.3997,4.2196,4.0927,0.0,3.9284,3.8202,3.8202,3.8404,3.8516,3.8516,3.8686,3.8782,3.8782,3.8782,3.8745,3.8745,3.8745,3.8745,3.8708,3.7866,3.7472,3.7434,3.6565,3.6316,3.6526,3.6982,3.7291,3.7468,3.7468,3.7468,3.7391,3.669,3.576,3.498,3.6013,3.4419,3.1696,0.0,0.0,0.0,0.0,0.0,0.0,0.0,0.0,0.0,0.0,0.0,0.0,0.0,0.0,0.0,0.0,4.2542,4.3845,4.4406,4.7147,4.9001,4.9582,5.0672,5.1263,5.123,5.123,5.123,5.123,5.1117,5.1005,5.0872,5.0481,5.0168,4.9886,4.9703,4.9578,4.9509,4.9509,4.9459,4.9377,4.9246,4.8534,4.7482,4.7039,4.5809,4.4298,0.0,4.3704,4.3097,4.3144,4.3184,4.3272,4.3746,4.3331,4.2469,4.1395,4.1128,4.1469,4.2726,4.3412,4.4176,4.5787,4.6172,4.6224,4.6336,4.6315,4.633,4.6574,4.5809,4.5208,4.5451,4.55,4.5417,4.513,4.5987,4.6703,4.6703,4.6042,4.5463,4.5248,4.3766,0.0,0.0,0.0,0.0,3.901,3.9083,3.9083,3.9083,3.9156,3.925,3.9379,3.9394,3.9466,3.9589,3.9466,3.9394,3.9379,3.8965,3.8745,3.8745,3.859,3.8576,3.8649,3.8936,3.9096,3.9169,3.9169,3.8826,3.8287,3.7673,3.7021,3.6378,3.5915,3.4992,3.3878,0.0,0.0,0.0,0.0,0.0,0.0,0.0,0.0,0.0,0.0,0.0,0.0,0.0,0.0,0.0,0.0,0.0,4.2937,4.3537,4.5636,4.7167,4.7841,4.89,4.9485,4.9469,4.9488,4.9488,4.9488,5.0062,5.0271,5.0153,5.0417,5.0403,5.0141,4.9836,4.9653,4.9548,4.9201,4.9039,4.8986,4.8593,4.7898,4.7072,4.6554,4.5407,0.0,4.3466,4.3007,4.2656,4.2493,4.2444,4.2509,4.2893,4.2631,4.2056,4.1468,4.1715,4.2496,4.4048,4.4828,4.5546,4.7141,4.7538,4.7545,4.7589,4.7422,4.727,4.727,4.596,4.4787,4.4787,4.4787,4.4625,4.4107,4.5291,4.635,4.6617,4.6233,4.6081,4.6434,4.4953,4.3779,0.0,0.0,0.0,4.0146,3.995,3.9773,3.9773,3.9553,3.9445,3.9589,3.9589,3.9661,3.9783,3.9661,3.9589,3.9589,3.9445,3.9388,3.9409,3.9517,3.9625,3.9717,3.9839,3.9925,4.0011,4.0011,3.9696,3.919,3.8794,3.8223,3.7534,3.6845,3.6108,3.5348,0.0,0.0,0.0,0.0,0.0,0.0,0.0,0.0,0.0,0.0,0.0,0.0,0.0,0.0,0.0,0.0,0.0,0.0,4.3266,4.3518,4.4335,4.5994,4.6146,4.6196,4.6196,4.6196,4.6196,4.6199,4.7852,4.869,4.8737,4.9889,5.0426,5.042,4.9841,4.956,4.9508,4.8551,4.8138,4.8063,4.7312,4.6974,4.6798,4.5534,4.502,4.4739,4.3139,4.2542,4.2462,4.1959,4.1837,4.1828,4.162,4.1548,4.171,4.2445,4.2835,4.3512,4.5814,4.651,4.6986,4.857,4.8944,4.8927,4.888,4.8364,4.7884,4.7801,4.6127,4.4675,4.4642,4.4658,4.4237,4.2829,4.4042,4.518,4.5212,4.5326,4.5979,4.7506,4.5879,4.4672,4.4805,4.2925,0.0,4.1624,0.0,4.0547,4.0547,3.9879,3.9517,3.9517,3.9517,3.9481,3.9445,3.9409,3.9409,3.9445,3.9445,3.9445,3.9445,3.9445,3.9553,3.9681,3.9681,3.9803,3.9975,3.9975,3.9975,3.996,3.996,3.9364,3.8451,3.8601,3.7629,3.6049,0.0,0.0,0.0,0.0,0.0,0.0,0.0,0.0,0.0,0.0,0.0,0.0,0.0,0.0,0.0,0.0,0.0,0.0,4.161,4.2868,4.3794,4.4238,4.5461,4.6146,4.6197,4.6197,4.6204,4.6199,4.6647,4.712,4.7617,4.7817,4.8088,4.836,4.8105,4.7885,4.7671,4.7402,4.7312,4.7293,4.7087,4.6617,4.5983,4.5652,4.5084,4.4358,4.3478,4.3123,4.292,4.2184,4.2316,4.2864,4.3381,4.3575,4.3588,4.3691,4.471,4.5965,4.6918,4.8136,4.9232,4.9551,4.9639,4.9367,4.825,4.7872,4.7429,4.629,4.4471,4.2911,4.2292,4.2702,4.3023,4.2651,4.4755,4.6494,4.6645,4.6696,4.691,4.7488,4.6668,4.5881,4.5372,4.4455,0.0,0.0,4.1917,4.1227,4.1227,4.106,4.0959,4.0959,4.0959,4.0737,4.0216,3.9681,3.9681,4.0216,4.0216,4.0216,4.0216,4.0216,3.995,3.9496,3.9496,3.9496,3.9568,3.9568,3.9568,3.9568,3.9732,3.9502,3.9065,3.8247,3.7603,3.6916,0.0,0.0,0.0,0.0,0.0,0.0,0.0,0.0,0.0,0.0,0.0,0.0,0.0,0.0,0.0,0.0,0.0,0.0,0.0,4.1918,4.2455,4.2466,4.3381,4.3911,4.3957,4.3907,4.3892,4.3955,4.4571,4.5109,4.5555,4.6484,4.7006,4.7159,4.7319,4.7278,4.7057,4.6628,4.643,0.0,0.0,4.5622,4.5172,4.5172,4.4852,4.4296,4.3644,4.3379,4.3323,4.3194,4.3306,4.362,4.4062,4.4248,4.4342,4.4627,4.5749,4.7078,4.7995,4.9156,5.0063,5.001,4.9896,4.9424,4.7892,4.7352,4.6783,4.5597,4.3737,4.2289,4.2206,4.2637,4.2892,4.261,4.448,4.6037,4.6254,4.6238,4.6533,4.7404,4.6914,4.6272,4.5579,4.4917,4.4299,4.3648,4.2617,4.1981,4.1981,4.1689,4.1492,4.1492,4.1492,4.1327,4.094,4.0547,4.0531,4.094,4.094,4.094,4.094,4.094,4.0703,4.0305,4.0305,4.0305,4.0305,4.0305,4.0305,4.0305,4.027,4.0216,3.9958,3.8564,3.7962,3.7698,0.0,0.0,0.0,0.0,0.0,0.0,0.0,0.0,0.0,0.0,4.1867,4.1704,0.0,0.0,0.0,0.0,0.0,0.0,0.0,0.0,4.0957,4.0957,4.1007,4.1034,4.1038,4.0926,4.0926,4.1041,4.2264,4.2962,4.3186,4.5167,4.608,4.604,4.6623,4.6813,4.6627,4.5867,4.5547,4.5472,4.4782,4.4501,4.4501,0.0,4.4468,4.4354,4.3592,4.3409,4.3607,4.4357,4.4481,4.4357,4.4468,4.4594,4.4826,4.5541,4.6542,4.7665,4.8817,4.9653,5.0168,5.0029,4.9808,4.9187,4.7641,4.683,4.6115,4.5156,4.345,4.2306,4.301,4.3327,4.3326,4.2891,4.4094,4.513,4.5375,4.5359,4.5832,4.7323,4.6946,4.629,4.5548,4.4953,4.4323,4.3664,4.3066,4.2741,4.2741,4.2126,4.1787,4.1787,4.1689,4.1656,4.1656,4.1575,4.1608,4.1706,4.1739,4.1771,4.1771,4.1771,4.1706,4.1641,4.1641,4.1608,4.1575,4.1608,4.1608,4.1542,4.1278,4.1178,4.0988,3.9349,3.8738,3.8536,0.0,0.0,0.0,0.0,0.0,0.0,0.0,0.0,0.0,0.0,4.0962,4.0828,0.0,0.0,0.0,0.0,0.0,0.0,0.0,0.0,0.0,4.0674,4.0674,4.0694,4.0699,4.0655,4.0693,4.0759,4.1009,4.1375,4.1838,4.2232,4.2612,4.2991,4.3806,4.4101,4.4011,4.451,4.4707,4.4688,4.4557,4.4501,4.4501,4.4501,0.0,0.0,4.3195,4.3198,4.3677,4.4378,4.5009,4.5646,4.6471,4.6757,4.6815,4.6958,4.8213,4.9365,4.8536,4.9526,5.0546,4.965,4.9238,4.8632,4.7084,4.647,4.5663,4.3652,4.259,4.2051,4.2188,4.2811,4.3603,4.436,4.5537,4.6536,4.7011,4.6926,4.6974,4.7454,4.7473,4.6947,4.5645,4.554,0.0,0.0,4.3492,4.3432,4.3432,4.3295,4.3235,4.3235,4.271,4.2412,4.2412,4.2078,4.2189,4.2737,4.3015,4.3166,4.3166,4.3166,4.2813,4.2235,4.2235,0.0,4.1933,4.2156,4.2109,4.1933,4.2093,4.2172,4.1963,4.0503,4.0005,3.9796,0.0,0.0,0.0,0.0,0.0,0.0,0.0,4.1631,4.1742,4.0609,4.032,4.0287,4.0512,4.0572,4.0591,0.0,0.0,0.0,0.0,0.0,0.0,0.0,4.0623,4.0655,4.0649,4.0575,4.0568,4.0604,0.0,4.052,4.0776,4.115,4.1431,4.1618,4.2448,4.2749,4.2693,4.352,4.3876,4.3914,4.4332,4.4501,4.4501,0.0,0.0,0.0,4.3014,4.3118,4.3599,4.3957,4.4846,4.5967,4.6932,4.7276,4.7302,4.7385,4.8403,4.934,4.8699,4.9387,5.0065,4.9118,4.8669,4.7962,4.6013,4.5386,4.4671,4.2727,4.2036,4.205,4.2834,4.3407,4.4153,4.5473,4.6535,4.7273,4.737,4.788,4.8065,4.7654,4.7951,4.7564,4.5914,4.592,4.5457,4.4181,4.4064,4.3919,4.3628,4.3776,4.3864,4.3864,4.3608,4.3472,4.3472,4.329,4.3363,4.3676,4.391,4.4013,4.4013,4.4013,4.3835,4.3475,4.3475,4.3403,4.33,4.3433,4.3403,4.3317,4.3254,4.3224,4.3043,4.1431,4.0832,4.0619,0.0,0.0,0.0,0.0,0.0,0.0,4.1249,4.1267,4.1111,4.0481,4.056,4.0593,4.0377,4.0332,4.0329,0.0,0.0,0.0,0.0,0.0,0.0,0.0,0.0,0.0,4.0298,0.0,0.0,4.0146,4.01,0.0,0.0,0.0,0.0,0.0,4.106,4.1464,4.1604,4.2628,4.3058,0.0,0.0,4.4258,0.0,0.0,0.0,0.0,0.0,4.2949,4.3328,4.3516,4.4371,4.5489,4.6404,4.6873,4.709,4.7216,4.7901,4.8637,4.8637,4.9067,4.9329,4.8537,4.8142,4.7347,4.5172,4.4515,4.3917,4.2317,4.1849,4.2194,4.3721,4.4073,4.4663,4.6315,4.7107,4.7513,4.7568,4.8489,4.8866,4.8208,4.8668,4.8294,4.6482,4.6507,0.0,4.4743,4.4625,4.439,4.3818,4.4051,4.4167,4.4155,4.4253,4.4281,4.4253,4.4293,4.435,4.435,4.4502,4.4603,4.4603,4.4603,4.4603,4.4603,4.4603,4.4558,4.4502,4.4575,4.4586,4.453,4.4344,4.4187,4.3884,4.2283,4.1598,4.1253,0.0,0.0,0.0,0.0,0.0,0.0,4.1983,4.2602,4.2803,4.207,4.268,4.2598,4.1092,4.0557,4.0304,0.0,0.0,0.0,0.0,0.0,0.0,0.0,0.0,0.0,0.0,0.0,0.0,3.8966,3.9718,0.0,0.0,0.0,0.0,0.0,0.0,3.9322,4.0102,4.1648,0.0,0.0,0.0,0.0,0.0,0.0,0.0,0.0,0.0,4.2461,4.2678,4.331,4.3635,4.3951,4.4778,4.5616,4.6316,4.6386,4.709,4.7805,4.7805,4.8384,4.8779,4.7965,4.7576,4.6934,4.5342,4.4775,4.4135,4.2588,4.2246,4.2685,4.4085,4.4301,4.4912,4.6823,4.6995,4.7249,4.8334,4.8672,4.9022,4.9561,4.9873,4.9325,4.7466,4.7674,4.7124,4.5184,4.5054,4.4855,4.4446,4.4446,4.4406,4.4281,4.4293,4.4253,4.4126,4.435,4.4474,4.4474,4.4797,4.4951,4.4951,4.4951,4.4951,4.4951,4.4951,4.4769,0.0,4.4824,4.4869,4.4803,4.5015,4.4747,4.4165,4.3314,4.2557,4.181,0.0,0.0,0.0,0.0,0.0,0.0,4.2627,4.2496,4.2285,4.2002,4.2259,4.1873,4.0277,4.0012,3.9758,3.9316,0.0,0.0,0.0,0.0,0.0,0.0,0.0,0.0,0.0,0.0,3.7804,3.7721,3.7898,0.0,0.0,0.0,0.0,0.0,0.0,3.8315,3.9197,4.0843,0.0,0.0,0.0,0.0,0.0,0.0,0.0,0.0,0.0,0.0,4.232,4.2759,4.317,4.3528,4.345,4.3975,4.4848,4.5969,4.6558,4.6961,4.7551,4.7913,4.8094,4.779,4.7253,4.6522,4.5423,4.4625,4.3814,4.2723,4.2389,4.2605,4.3611,4.4108,4.4799,4.6141,4.6965,4.7553,4.7823,4.9003,4.9706,4.9372,4.9835,4.9644,4.8269,0.0,4.7439,4.6259,4.6172,4.6074,4.5843,4.5355,4.4991,4.4731,4.4961,4.4961,4.4648,4.4676,4.4676,4.4676,4.4896,4.5005,4.5005,4.5005,4.5005,4.5005,4.5005,4.4923,0.0,4.4951,4.4951,4.494,4.5032,4.4704,4.4096,4.3322,4.2597,4.1895,0.0,0.0,0.0,0.0,0.0,4.3256,4.3359,4.2903,4.2469,4.2268,4.2244,4.1542,3.9721,3.9644,3.9164,3.7808,3.8115,0.0,0.0,0.0,0.0,0.0,0.0,0.0,0.0,0.0,3.6622,3.6529,3.6603,3.6501,0.0,0.0,3.6512,3.703,0.0,0.0,0.0,0.0,0.0,0.0,0.0,0.0,0.0,0.0,0.0,0.0,0.0,0.0,0.0,0.0,0.0,4.3012,4.2583,4.2783,4.3522,4.5057,4.5737,4.6179,4.7036,4.7476,4.7717,4.7717,4.7102,4.6287,4.549,4.4556,4.3662,4.2851,4.2571,4.2703,4.3432,4.3935,4.4517,4.5451,4.6597,4.7381,4.7364,4.8901,4.9828,4.9257,4.9582,4.9483,4.8635,4.8057,4.7594,4.7345,4.7133,4.6976,4.6931,4.6334,4.5792,4.5407,4.5666,4.5666,4.5328,4.5239,4.5186,4.5186,4.5292,4.5239,4.5079,4.5249,4.5239,4.5096,4.5266,4.5345,0.0,4.5345,4.5354,4.5363,4.5156,4.4681,4.4046,4.3224,4.2534,4.1893,0.0,0.0,0.0,0.0,0.0,0.0,4.4252,4.4281,4.4026,4.3375,4.3275,4.2337,3.9871,3.9657,3.8575,3.5788,3.6804,0.0,0.0,0.0,0.0,0.0,0.0,0.0,0.0,0.0,3.5423,3.5423,3.6273,3.6394,3.5809,3.5809,3.5914,3.6111,0.0,0.0,0.0,0.0,0.0,0.0,0.0,0.0,0.0,0.0,0.0,0.0,0.0,0.0,0.0,0.0,0.0,0.0,0.0,4.2308,4.2489,4.3381,4.4371,4.5364,4.6122,4.7,4.7717,4.7717,4.7102,4.6287,4.549,4.4675,4.386,4.3045,4.29,4.3098,4.3778,4.3838,4.4086,4.4983,4.5693,4.6399,4.7204,4.8233,4.9111,4.9621,4.9225,4.8804,4.8524,4.7893,4.7705,4.8248,4.7666,0.0,4.749,4.7236,4.684,4.631,4.6286,4.6238,4.6074,4.6091,4.6091,4.6091,4.6091,4.58,4.5303,4.5868,4.58,4.5329,4.5868,4.6074,0.0,4.6074,4.6165,4.6216,4.5476,4.4788,4.4112,4.3311,4.2532,4.1835,0.0,0.0,0.0,0.0,0.0,0.0,4.4101,4.3617,4.32,4.2984,4.2481,4.118,3.8643,3.8398,3.7342,3.4693,3.5551,0.0,0.0,0.0,0.0,0.0,0.0,0.0,0.0,3.433,3.4141,3.41,3.4611,3.472,3.4499,3.5072,3.5615,3.6128,3.6658,3.7472,0.0,0.0,0.0,0.0,0.0,0.0,4.167,0.0,0.0,0.0,0.0,0.0,0.0,0.0,0.0,0.0,0.0,0.0,0.0,4.242,4.3278,4.4189,4.4505,4.5209,4.5737,4.5296,4.4991,4.474,4.4529,4.386,4.3227,4.2955,4.2901,4.2955,4.317,4.3561,4.3991,4.4362,4.5438,4.635,4.6705,4.8471,4.9778,4.9947,4.9858,4.9346,4.826,0.0,4.7911,4.8092,4.7911,4.7785,4.7759,4.7678,4.7298,4.6531,4.6654,4.6548,4.6238,4.6165,4.6098,4.6098,4.6098,4.6,4.585,4.6024,4.6017,4.5868,4.6042,4.6098,4.6098,4.6098,4.614,4.613,4.5901,4.5434,4.4846,4.4599,4.4102,4.3514,0.0,0.0,0.0,0.0,0.0,0.0,4.4005,4.3318,4.2686,4.2389,4.1675,4.0225,3.7694,3.7384,3.6409,3.4089,3.4404,0.0,0.0,0.0,0.0,0.0,0.0,0.0,3.3845,3.3532,3.3346,3.3321,3.3761,3.4103,3.4304,3.5385,3.6234,3.6898,3.7692,3.8468,0.0,0.0,0.0,0.0,0.0,0.0,4.1538,0.0,0.0,0.0,0.0,0.0,0.0,0.0,0.0,0.0,0.0,0.0,0.0,0.0,4.2455,4.3093,4.3563,4.4289,4.4764,4.4095,4.3955,4.3922,4.3675,4.3243,4.2901,4.2901,4.2901,4.2901,4.2901,4.3223,4.3547,4.3643,4.467,4.5717,4.6393,4.8061,4.9184,4.9184,4.9546,4.9177,0.0,4.7808,4.7992,4.7992,4.797,4.7927,4.7902,4.784,4.7572,4.703,4.7125,4.7084,4.684,4.6753,4.6707,4.6707,4.6707,4.6613,4.6406,4.6613,4.6572,4.6406,4.6613,4.6707,0.0,4.6707,4.6707,4.6671,4.6369,4.6023,4.5668,4.5343,4.4999,4.4653,0.0,0.0,0.0,0.0,0.0,0.0,0.0,4.3262,4.2445,4.1668,4.0876,3.9435,3.6985,3.6607,3.5735,3.3817,3.3426,0.0,0.0,0.0,0.0,0.0,0.0,0.0,3.3101,3.3026,3.3015,3.3053,3.3724,3.4391,3.5084,3.6586,3.7582,3.8234,3.9041,3.9831,0.0,0.0,0.0,0.0,0.0,0.0,0.0,0.0,0.0,0.0,0.0,0.0,0.0,0.0,0.0,0.0,0.0,0.0,0.0,0.0,0.0,0.0,0.0,4.3978,4.4423,4.3704,4.366,4.3632,4.2874,4.2752,0.0,4.2901,4.29,4.2882,4.2901,4.29,4.2882,4.2901,4.357,4.4639,4.6196,4.721,4.7787,4.7787,4.8566,4.8447,4.6828,4.7474,4.7972,4.7972,4.7925,4.7899,4.7899,4.7759,4.7717,4.7717,4.7717,4.7717,4.7717,4.7717,4.7717,4.7717,4.7717,4.7428,4.6976,4.7472,4.7428,0.0,4.749,4.7678,4.7696,4.7696,4.766,4.7533,4.6794,4.6468,4.6323,4.558,4.5291,4.5249,0.0,0.0,0.0,0.0,0.0,0.0,0.0,0.0,0.0,0.0,3.9976,3.8239,3.6109,3.5805,3.5031,0.0,0.0,0.0,0.0,0.0,0.0,0.0,0.0,0.0,3.3101,3.2995,3.3155,3.3611,3.4235,3.5203,3.652,3.7451,3.8289,3.9059,3.9849,4.0639,0.0,0.0,0.0,0.0,0.0,0.0,0.0,0.0,0.0,0.0,4.1582,4.1604,0.0,0.0,0.0,0.0,0.0,0.0,0.0,0.0,4.1688,4.1767,4.2118,0.0,4.2421,4.1151,4.1375,4.1925,0.0,4.1901,4.2101,4.2774,4.2861,4.2842,4.29,4.2861,4.2842,4.2882,4.357,4.444,4.5436,4.7337,4.8619,4.8619,4.8825,4.83,4.6708,4.7291,4.7762,4.7762,4.7759,4.7738,4.7738,4.7717,4.7717,4.7717,4.7717,4.7717,4.7717,4.7717,4.7717,4.7717,4.7717,4.7636,4.7511,4.7636,4.7636,4.7511,4.7636,4.7636,4.7554,4.7657,4.7274,4.6615,4.6535,4.6124,4.5562,4.5363,4.5291,4.5361,0.0,0.0,0.0,0.0,0.0,0.0,0.0,0.0,0.0,0.0,3.9207,3.7739,3.5934,3.5632,3.4873,0.0,0.0,0.0,0.0,0.0,0.0,0.0,0.0,3.2961,3.2651,3.2705,3.2945,3.3423,3.4617,3.5811,3.7042,3.8497,3.9427,3.9884,4.0656,4.1218,0.0,0.0,0.0,0.0,4.1604,0.0,0.0,0.0,0.0,0.0,4.1604,4.1604,0.0,4.1604,4.1604,4.1604,0.0,0.0,0.0,0.0,4.1604,4.1626,4.1692,4.1801,4.1541,4.0186,4.0766,4.1529,4.1026,4.1554,4.2279,4.2752,4.2861,4.2881,4.305,4.3669,4.3998,4.3412,4.4491,4.5542,4.58,4.7448,4.8525,4.8372,4.8348,4.8004,0.0,4.7446,4.7717,4.7717,4.7717,4.7717,4.7717,4.7717,4.7717,4.7717,4.7717,4.7717,4.7717,4.7717,4.7717,4.7717,4.7717,4.7717,4.7717,4.7717,4.7717,4.7717,4.7717,4.7636,4.7475,4.7259,4.6822,4.6284,4.6047,4.5689,4.5291,4.5291,4.5291,4.5363,0.0,0.0,0.0,0.0,0.0,0.0,0.0,0.0,0.0,0.0,0.0,0.0,0.0,0.0,0.0,0.0,0.0,0.0,0.0,0.0,0.0,0.0,3.2755,3.2505,3.2092,3.2301,3.2721,3.3348,3.4974,3.6408,3.7587,3.9571,4.0555,4.0713,4.1323,4.1604,4.1604,0.0,0.0,0.0,4.1604,0.0,0.0,0.0,0.0,0.0,0.0,0.0,0.0,4.1604,4.1604,4.1604,4.1604,0.0,0.0,0.0,0.0,0.0,4.1692,4.1807,4.1637,4.0362,4.09,4.153,4.0649,4.1502,4.2571,4.2864,4.2975,4.3123,4.3485,4.46,4.5148,4.4147,4.5621,4.689,4.6853,4.7693,4.8173,4.7827,4.7783,0.0,4.7536,4.7645,4.7717,4.7717,4.7717,4.7717,4.7717,4.7717,4.7717,4.7717,4.7717,4.7717,4.7717,4.7717,4.7717,4.7717,4.7717,4.7717,4.7717,4.7717,4.7717,4.7717,4.7717,0.0,4.7457,4.6768,4.6352,4.605,4.5377,4.5037,4.4928,4.4928,4.4968,4.5009,0.0,0.0,0.0,0.0,0.0,0.0,0.0,0.0,0.0,0.0,0.0,0.0,0.0,0.0,0.0,0.0,0.0,0.0,0.0,0.0,0.0,3.2805,3.2419,3.2162,3.2003,3.2003,3.2936,3.4861,3.5496,3.7233,3.9975,4.0327,4.0836,4.1446,4.1552,4.1604,4.1604,4.1604,0.0,0.0,4.1604,0.0,0.0,0.0,0.0,0.0,0.0,0.0,0.0,4.1604,4.1604,4.1604,4.1604,0.0,0.0,0.0,0.0,0.0,4.2019,4.2759,4.3152,4.1492,4.0636,4.0572,4.1768,4.1533,4.152,4.3218,4.3511,4.3749,4.4584,4.4294,4.413,4.4707,4.5702,4.6868,4.8181,4.8566,4.8568,4.8248,0.0,4.7816,4.6799,4.7301,4.7717,4.7717,4.7717,4.7717,4.7717,4.7717,4.7717,4.7717,4.7717,4.7717,4.7717,4.7717,4.7717,4.7717,4.7717,4.7717,4.7717,4.7717,4.7717,4.7717,0.0,4.7636,4.7457,4.6768,4.6026,4.5219,4.4545,4.386,4.3281,4.3281,4.3451,4.3685,0.0,0.0,0.0,0.0,0.0,0.0,0.0,0.0,0.0,0.0,0.0,0.0,0.0,0.0,0.0,0.0,0.0,0.0,0.0,0.0,3.2386,3.2109,3.168,3.1495,3.1568,3.1714,3.2794,3.4877,3.5703,3.763,4.0502,4.0924,4.1271,4.1604,4.1604,4.1604,4.1604,4.1604,4.1604,0.0,0.0,0.0,0.0,0.0,0.0,0.0,0.0,0.0,0.0,0.0,4.1604,4.1604,4.1604,0.0,0.0,0.0,0.0,0.0,4.2103,4.2769,4.3413,4.3233,4.3068,4.3049,4.3533,4.3605,4.3699,4.4202,4.4326,4.467,4.5683,4.624,4.7001,4.8316,4.7578,4.7118,4.7949,4.7893,4.7814,0.0,0.0,4.7868,4.7738,4.8069,4.8289,4.8289,4.8113,4.803,4.803,4.7824,4.7717,4.7717,4.7717,4.7804,4.803,4.7804,4.7717,4.7717,4.7717,4.7717,4.7717,4.7717,4.7717,4.7717,0.0,4.7383,4.6789,4.6137,4.5405,4.4668,4.398,4.3614,4.344,4.344,4.354,4.3673,0.0,0.0,0.0,0.0,0.0,0.0,0.0,0.0,0.0,0.0,0.0,0.0,0.0,0.0,0.0,0.0,0.0,0.0,0.0,3.2056,3.1823,3.1365,3.1114,3.1016,3.1131,3.1472,3.2758,3.5023,3.61,3.8055,4.0783,4.1341,4.1604,4.1604,4.1604,4.1604,4.1604,4.1604,4.1604,0.0,0.0,0.0,0.0,0.0,0.0,0.0,0.0,0.0,0.0,0.0,0.0,0.0,0.0,0.0,0.0,4.1631,4.1913,4.219,4.2353,4.2973,4.3809,4.4729,4.5017,4.5077,4.5209,4.5556,4.5796,4.5642,4.5671,4.6064,4.7095,4.817,4.9235,5.0284,4.8822,4.7664,4.7944,4.7754,4.7676,4.7911,4.7969,4.8196,4.8725,4.8799,4.8799,4.8799,4.855,4.8402,4.842,4.8092,4.7929,4.7931,4.7931,4.8092,4.8383,4.8093,4.7929,4.7845,4.7741,4.7717,4.7699,4.7804,4.7845,4.7827,4.7911,4.7415,4.6436,4.5816,4.5112,4.4382,4.3751,4.3673,4.3931,4.4228,4.4141,4.3912,0.0,0.0,0.0,0.0,0.0,0.0,0.0,0.0,0.0,0.0,0.0,0.0,0.0,0.0,0.0,0.0,0.0,0.0,0.0,3.1531,3.1382,3.0957,3.1094,3.1094,3.0917,3.1316,3.309,3.6277,3.6982,3.8777,4.1516,4.1587,4.1604,4.1604,4.1604,4.1604,4.1604,4.1604,4.1604,4.1604,4.1604,0.0,0.0,0.0,0.0,0.0,0.0,0.0,0.0,0.0,0.0,0.0,0.0,0.0,4.1305,4.1731,4.213,4.2498,4.3051,4.4113,4.5103,4.5385,4.4591,4.4295,4.6345,4.6047,4.5844,4.76,4.7961,4.8243,4.9121,4.8742,4.8067,4.7432,4.788,4.8574,4.9352,4.9527,4.9426,4.9043,4.9041,4.8978,4.873,4.8746,4.8799,4.8799,4.873,4.8694,4.8764,4.8623,4.855,4.8641,4.8641,4.8641,4.8658,4.8693,4.8568,4.8248,4.7868,4.7717,4.7699,4.809,4.8248,4.8267,4.8586,4.8088,4.7003,4.6515,4.5632,4.4544,4.4052,4.3881,4.4036,4.5169,4.4856,4.3943,0.0,0.0,0.0,0.0,0.0,0.0,0.0,0.0,0.0,0.0,0.0,0.0,0.0,0.0,0.0,0.0,0.0,0.0,0.0,3.1494,3.0814,3.001,3.087,3.1333,3.1206,3.1565,3.3359,3.6652,3.8903,4.0574,4.1604,4.1604,4.1604,4.1604,4.1604,4.1604,4.1604,4.1604,4.1604,4.1604,4.1604,0.0,0.0,0.0,0.0,0.0,0.0,0.0,0.0,0.0,4.1295,4.1323,4.1574,4.164,4.1727,4.221,4.2634,4.3014,4.3249,4.4352,4.5465,4.5499,4.5645,4.612,4.7451,4.7406,4.7173,4.7395,4.7838,4.8288,4.8626,4.9265,4.949,4.8701,4.8886,4.9261,4.9551,4.9678,4.9659,4.9491,4.9506,4.9457,4.9334,4.9349,4.9365,4.9365,4.9104,4.8971,4.9005,4.8748,4.8605,4.8641,4.8641,4.8748,4.8954,4.8765,4.873,4.88,4.8513,4.8384,4.8384,4.855,4.8604,4.8623,4.8746,4.7987,4.6644,4.6465,4.5967,4.5348,4.5866,4.6087,4.6139,4.6588,4.6466,4.6026,0.0,0.0,0.0,0.0,0.0,0.0,0.0,0.0,0.0,0.0,0.0,0.0,0.0,0.0,0.0,0.0,0.0,0.0,3.2383,3.1803,3.1095,3.0196,3.1331,3.2079,3.225,3.2581,3.4122,3.6928,3.9893,4.1431,4.1604,4.1604,4.1604,4.1604,4.1604,4.1604,4.1604,4.1604,4.1604,4.1604,4.1604,4.1604,0.0,0.0,0.0,0.0,0.0,0.0,0.0,0.0,4.1351,4.1423,4.186,4.1987,4.2092,4.2614,4.3159,4.3668,4.3931,4.4766,4.5645,4.5911,4.6311,4.692,4.7965,4.8194,4.8194,4.8176,4.8607,4.8908,4.8664,4.9546,5.0053,4.9227,4.9378,4.9593,4.9563,4.9638,4.9648,4.9638,4.9667,4.9663,4.9663,4.9678,4.9692,4.9692,4.943,4.9268,4.9283,4.9025,4.889,4.8906,4.8906,4.9025,4.927,4.904,4.9057,4.9283,4.9153,4.8971,4.8747,4.885,4.8902,4.8902,4.9038,4.8089,4.6499,4.6594,4.6143,4.549,4.6547,4.6783,4.6574,4.6858,4.6783,4.6474,0.0,0.0,0.0,0.0,0.0,0.0,0.0,0.0,0.0,0.0,0.0,0.0,0.0,0.0,0.0,0.0,0.0,0.0,3.2478,3.2458,3.2295,3.1821,3.263,3.3417,3.4105,3.4435,3.5474,3.7194,3.9607,4.1076,4.1604,4.1604,4.1604,4.1604,4.1604,4.1604,4.1604,4.1604,4.1604,4.1604,4.1604,4.1604,4.1582,0.0,0.0,0.0,0.0,0.0,0.0,0.0,4.1709,4.1756,4.2095,4.2198,4.234,4.2922,4.3689,4.4473,4.5273,4.5499,4.5769,4.6742,4.6354,4.6167,4.7819,4.8194,4.8664,5.035,5.0688,5.0444,4.9621,4.949,4.9208,4.8326,4.8984,4.9578,4.9505,4.9567,4.9578,4.9524,4.9567,4.9608,4.9608,4.9648,4.9692,4.9692,4.9653,4.9638,4.9692,4.9582,4.9536,4.9608,4.9608,4.9608,4.9608,4.9663,4.9692,4.9692,4.9692,4.9321,4.8623,4.8954,4.912,4.9137,4.9521,4.8551,4.6722,4.7052,4.6202,4.4806,4.5674,4.5485,4.4844,4.5693,4.5466,4.4744,0.0,0.0,0.0,0.0,0.0,0.0,0.0,0.0,0.0,0.0,0.0,0.0,0.0,0.0,0.0,0.0,0.0,0.0,3.3429,3.2924,3.2346,3.1705,3.3181,3.414,3.4384,3.5636,3.6862,3.8045,4.0072,4.1076,4.1053,4.1431,4.1604,4.1604,4.1604,4.1604,4.1604,4.1604,4.1604,4.1604,4.1604,4.1604,4.1604,0.0,0.0,0.0,0.0,0.0,0.0,0.0,0.0,0.0,4.2555,4.2752,4.2922,4.3425,4.4336,4.5064,4.4744,4.6001,4.7177,4.6302,4.6786,4.7594,4.8082,4.8194,4.8514,4.9621,4.9358,4.887,4.8626,4.9096,4.9208,4.8326,4.8957,4.9521,4.949,4.9521,4.9521,4.949,4.9521,4.9536,4.9536,4.9551,4.9567,4.9567,4.9536,4.9536,4.9567,4.9521,4.9505,4.9536,4.9536,4.9536,4.9536,4.9551,4.9567,4.9567,4.9567,4.9483,4.9384,4.9476,4.9521,4.9521,4.9648,4.8687,4.7015,4.6552,4.6051,4.5693,4.6518,4.6687,4.6485,4.6763,4.6741,4.6531,0.0,0.0,0.0,0.0,0.0,0.0,0.0,0.0,0.0,0.0,3.874,0.0,0.0,0.0,0.0,0.0,0.0,0.0,3.4583,3.4192,3.3743,3.3169,3.4503,3.5254,3.529,3.6517,3.7372,3.7851,3.964,4.0672,4.0984,4.1408,4.1604,4.1604,4.1604,4.1604,4.1604,4.1604,4.1604,4.1604,4.1604,4.1604,4.1604,0.0,0.0,0.0,0.0,0.0,0.0,0.0,0.0,0.0,4.3087,4.3321,4.3515,4.427,4.4954,4.5552,4.5795,4.6784,4.7631,4.7293,4.7706,4.8288,4.8626,4.872,4.887,4.9396,4.9077,4.872,4.872,4.9152,4.934,4.8795,4.9152,4.9509,4.9509,4.9509,4.9509,4.9509,4.9509,4.9509,4.9509,4.9509,4.9509,4.9509,4.9509,4.9509,4.9509,4.9509,4.9509,4.9509,4.9509,4.9509,4.9509,4.9509,4.9509,4.9509,4.9509,4.9536,4.9623,4.9623,4.9623,4.9585,4.8926,4.806,4.7024,4.5875,4.5404,4.5461,4.5932,4.612,4.612,4.612,4.6216,4.6272,0.0,0.0,0.0,0.0,0.0,0.0,0.0,0.0,0.0,0.0,3.8487,3.8022,0.0,0.0,0.0,0.0,0.0,0.0,0.0,3.5839,3.579,3.5536,3.6153,3.6492,3.6492,3.7043,3.7224,3.703,3.863,3.9943,4.099,4.1323,4.1498,4.152,4.1582,4.1604,4.1604,4.1604,4.1604,4.1604,4.1604,4.1604,4.156,4.1448,0.0,0.0,0.0,0.0,0.0,0.0,0.0,0.0,4.3635,4.382,4.4047,4.5106,4.5514,4.599,4.7545,4.7612,4.7575,4.902,4.8852,4.8532,4.9321,4.9509,4.9509,4.9509,4.9509,4.9509,4.9509,4.9509,4.9509,4.9509,4.9509,4.9509,4.9509,4.9509,4.9509,4.9509,4.9509,4.9509,4.9509,4.9509,4.9509,4.9509,4.9509,4.9509,4.9509,4.9509,4.9509,4.9509,4.9509,4.9509,4.9509,4.9509,4.9509,4.9509,4.9509,4.9509,4.9509,4.9509,4.9509,4.9415,4.7725,4.7012,4.688,4.5176,4.4501,4.4501,4.4501,4.4501,4.4501,4.4515,4.4605,4.4751,0.0,0.0,0.0,0.0,0.0,0.0,0.0,0.0,0.0,0.0,0.0,0.0,0.0,0.0,0.0,0.0,0.0,0.0,0.0,3.5976,3.585,3.5671,3.6184,3.6492,3.6492,3.6647,3.6892,3.7314,3.8358,3.8999,3.9265,4.0167,4.0709,4.0984,4.1408,4.1604,4.1604,4.1604,4.1604,4.1604,4.1604,4.1538,4.1448,4.1403,4.1267,0.0,0.0,0.0,0.0,0.0,0.0,0.0,4.3771,4.3979,4.4248,4.4494,4.5552,4.6611,4.6321,4.7575,4.8889,4.8551,4.8852,4.9265,4.9471,4.9509,4.9509,4.9509,4.9509,4.9509,4.9509,4.9509,4.9509,4.9509,4.9509,4.9509,4.9509,4.9509,4.9509,4.9509,4.9509,4.9509,4.9509,4.9509,4.9509,4.9509,4.9509,4.9509,4.9509,4.9509,4.9509,4.9509,4.9509,4.9509,4.9509,4.9509,4.9509,4.9509,4.9509,4.9509,4.9509,4.9509,4.9509,4.9415,4.7725,4.7012,4.688,4.5176,4.4501,4.4501,4.4501,4.4501,4.4515,4.4619,4.4732,4.4876,0.0,0.0,0.0,0.0,0.0,0.0,0.0,0.0,0.0,0.0,0.0,0.0,0.0,0.0,0.0,0.0,0.0,0.0,0.0,0.0,3.6318,3.6106,3.6353,3.6492,3.6492,3.6492,3.6662,3.6983,3.7722,3.843,3.9139,3.9834,4.0463,4.1007,4.1277,4.1475,4.1604,4.1604,4.1604,4.1604,4.1604,4.156,4.1493,4.1426,4.129,4.1129,4.1117,0.0,0.0,0.0,0.0,0.0,0.0,0.0,4.4389,4.4836,4.5377,4.596,4.6692,4.7594,4.8401,4.8739,4.9152,4.9509,4.9509,4.9509,4.9509,4.9509,4.9509,4.9509,4.9509,4.9509,4.9509,4.9509,4.9509,4.9509,4.9509,4.9509,4.9509,4.9509,4.9509,4.9509,4.9509,4.9509,4.9509,4.9509,4.9509,4.9509,4.9509,4.9509,4.9509,4.9509,4.9509,4.9509,4.9509,4.9509,4.9509,4.9509,4.9509,4.9509,4.9509,4.9509,4.9265,4.8814,4.7556,4.6768,4.6279,4.5007,4.4501,4.4501,4.4501,4.4501,4.4515,4.4646,4.4839,4.5011,0.0,0.0,0.0,0.0,0.0,0.0,0.0,0.0,0.0,0.0,0.0,0.0,0.0,0.0,0.0,0.0,0.0,0.0,0.0,0.0,0.0,3.6523,3.6492,3.6492,3.6492,3.6492,3.6554,3.6677,3.7148,3.8124,3.9532,3.98,4.0302,4.1007,4.1117,4.1295,4.152,4.152,4.156,4.1604,4.1604,4.1582,4.1515,4.1426,4.1295,4.118,4.1099,4.1569,4.2236,4.2198,0.0,0.0,0.0,0.0,4.4489,4.5275,4.5115,4.5172,4.7199,4.75,4.759,4.9172,4.9548,4.9563,4.9604,4.9634,4.9634,4.9634,4.9563,4.9509,4.9509,4.9536,4.9548,4.9548,4.9589,4.9604,4.9563,4.9548,4.9532,4.949,4.9509,4.9509,4.9509,4.9509,4.9509,4.9509,4.9509,4.9509,4.9509,4.9509,4.9509,4.9509,4.9509,4.9509,4.9509,4.9509,4.9509,4.9509,4.9509,4.9509,4.9509,4.9509,4.902,4.8157,4.735,4.6505,4.5641,4.4834,4.4501,4.4501,4.4501,4.4537,4.46,4.4726,4.4943,4.5188,0.0,0.0,0.0,0.0,0.0,0.0,0.0,0.0,0.0,0.0,3.751,0.0,0.0,0.0,0.0,0.0,0.0,0.0,0.0,0.0,0.0,3.6523,3.6492,3.6492,3.6492,3.6492,3.6754,3.7268,3.7358,3.8026,3.9259,3.9532,3.9825,4.0178,4.071,4.1041,4.1255,4.1255,4.1386,4.1604,4.1604,4.1453,4.1255,4.1232,4.1198,4.1093,4.0982,4.1552,4.2358,4.2257,4.2996,0.0,0.0,0.0,4.4505,4.4613,4.5078,4.5604,4.5941,4.7012,4.8325,4.9471,4.9768,4.9817,5.005,5.0147,5.0195,5.0195,4.9819,4.9509,4.9509,4.964,4.9768,4.9768,4.9949,5.0025,4.979,4.9768,4.9707,4.9521,4.9509,4.9509,4.9509,4.9509,4.9509,4.9509,4.9509,4.9509,4.9509,4.9509,4.9509,4.9509,4.9509,4.9509,4.9509,4.9509,4.9509,4.9509,4.9509,4.9509,4.9509,4.9509,4.902,4.8157,4.735,4.6505,4.5641,4.4834,4.4501,4.4501,4.4501,4.4636,4.4862,4.5006,4.5227,4.5491,0.0,0.0,0.0,0.0,0.0,0.0,0.0,0.0,0.0,0.0,0.0,3.751,0.0,0.0,0.0,0.0,0.0,0.0,0.0,0.0,0.0,3.5414,3.5752,3.5922,3.5922,3.6644,3.7118,3.7417,3.8084,3.8673,3.9206,3.9653,4.0011,4.0286,4.0566,4.0823,4.1041,4.114,4.1277,4.1386,4.1471,4.1688,4.1945,4.1406,4.1395,4.1641,4.1162,4.1569,4.2277,4.2218,4.3014,4.4005,4.4005,0.0,0.0,0.0,4.4745,4.527,4.6353,4.7543,4.8736,4.982,5.0076,5.0126,5.0278,5.03,5.03,5.03,5.0111,4.9936,4.9955,5.0024,5.009,5.009,5.0168,5.0199,5.0092,5.0043,4.9987,4.9908,4.9764,4.9665,4.9665,4.9559,4.9509,4.9509,4.9509,4.9509,4.9509,4.9509,4.9509,4.9509,4.9509,4.9509,4.9509,4.9509,4.9509,4.9509,4.9509,4.9509,4.9509,4.9509,4.8776,4.7519,4.7162,4.6285,4.5122,4.4833,4.4726,4.4732,4.4879,4.4947,4.4992,4.5227,4.5458,4.5643,0.0,0.0,0.0,0.0,0.0,0.0,0.0,0.0,0.0,0.0,0.0,0.0,0.0,0.0,0.0,0.0,0.0,0.0,0.0,0.0,0.0,3.4536,3.4982,3.5397,3.5731,3.666,3.7374,3.7854,3.8756,3.9286,3.9444,3.9893,4.0196,4.0412,4.0412,4.0558,4.0799,4.0971,4.1047,4.1134,4.1476,4.1934,4.2398,4.1934,4.2048,4.2369,4.1648,4.1801,4.2359,4.2287,4.2959,4.3876,4.3974,4.4218,0.0,0.0,0.0,4.4857,4.658,4.7511,4.8336,4.9701,5.0056,5.0164,5.0508,5.0546,5.0498,5.0498,5.0527,5.0537,5.0538,5.0461,5.0392,5.0392,5.0459,5.0479,5.0418,5.0344,5.0278,5.0233,5.0031,4.9865,4.9817,4.9665,4.9563,4.949,4.9509,4.9509,4.9509,4.9509,4.9509,4.9509,4.9509,4.9509,4.9509,4.9509,4.9509,4.9509,4.9509,4.9509,4.9509,4.9509,4.86,4.7076,4.7076,4.618,4.4752,4.4939,4.5006,4.5011,4.5226,4.5256,4.5216,4.547,4.5665,4.5821,0.0,0.0,0.0,0.0,0.0,0.0,0.0,0.0,0.0,0.0,0.0,0.0,3.751,3.751,3.751,3.751,3.751,0.0,0.0,0.0,0.0,3.4536,3.4536,0.0,3.6329,3.6421,3.7323,3.9125,3.9179,3.9497,4.0045,4.007,4.0113,4.0121,4.0121,4.0271,4.0534,4.0517,4.068,4.0987,4.1808,4.212,4.2109,4.2898,4.32,4.3148,4.2403,4.2463,4.282,4.2504,4.2847,4.3491,4.3892,4.4218,4.4501,0.0,0.0,0.0,4.577,4.6114,4.6661,4.8806,4.9392,4.9738,5.0811,5.1049,5.1056,5.1056,5.1121,5.1159,5.1159,5.089,5.0687,5.0687,5.0898,5.0978,5.0698,5.0622,5.051,5.0319,5.0226,5.0087,4.9811,4.979,4.9703,4.9505,4.9509,4.9509,4.9509,4.9509,4.9509,4.9509,4.9509,4.9509,4.9509,4.9509,4.9509,4.9509,4.9509,4.9509,4.9509,4.9509,4.8681,4.7282,4.7282,4.6373,4.4901,4.5157,4.5285,4.5281,4.5294,4.5449,4.5675,4.567,4.5846,4.6093,0.0,0.0,0.0,0.0,0.0,0.0,0.0,0.0,0.0,0.0,0.0,0.0,0.0,3.751,3.7435,3.7329,3.7225,0.0,0.0,0.0,0.0,3.4536,3.5272,3.592,3.6403,3.7584,3.8521,3.9206,3.9592,3.9893,4.0096,4.0096,4.0096,4.0096,4.0096,4.0146,4.0246,4.0436,4.0558,4.0724,4.1698,4.2334,4.2758,4.3133,4.3566,4.3844,4.3158,4.2864,4.2788,4.2928,0.0,0.0,0.0,4.4177,4.4387,4.4411,4.4411,4.4665,4.5862,4.6252,4.673,4.8364,4.9257,4.9847,5.0281,5.0798,5.1161,5.1161,5.1186,5.1206,5.1202,5.1102,5.1016,5.1016,5.1075,5.1063,5.0963,5.0932,5.0871,5.0758,5.0587,5.0336,5.008,4.9891,4.9717,4.9521,4.9509,4.9509,4.9509,4.9509,4.9509,4.9509,4.9509,4.9509,4.9509,4.9509,4.9509,4.9509,4.9509,4.9509,4.949,4.9102,4.8318,4.7289,4.7064,4.6315,4.5235,4.5458,4.556,4.556,4.5757,4.5828,4.5848,4.5925,4.6013,4.6102,0.0,0.0,0.0,0.0,0.0,0.0,0.0,0.0,0.0,3.751,0.0,0.0,0.0,0.0,3.7345,3.715,3.706,3.6612,3.5747,3.5701,3.5347,3.4536,3.5504,3.628,3.6685,3.8123,3.9063,3.9497,3.9918,4.0096,4.0096,4.0096,4.0096,4.0096,4.0096,4.0096,4.0096,4.0271,4.0387,4.0497,4.1753,4.2402,4.2668,4.342,4.3963,4.4233,4.3605,4.3301,4.3284,4.3646,0.0,0.0,0.0,0.0,4.4314,4.4416,4.4397,4.4566,4.5514,4.5856,4.6263,4.7545,4.8438,4.9149,4.9798,5.0362,5.0848,5.1139,5.1197,5.1206,5.1202,5.1202,5.1202,5.1202,5.1165,5.1139,5.1132,5.1108,5.1075,5.1042,5.0859,5.0633,5.0355,5.0092,4.9849,4.9615,4.9532,4.9509,4.9509,4.9509,4.9509,4.9509,4.9578,4.96,4.96,4.9702,4.9702,4.96,4.9683,4.9688,4.9581,4.8981,4.8264,4.7505,4.697,4.6253,4.5491,4.5713,4.5815,4.5841,4.6037,4.6047,4.598,4.6071,4.6093,4.6113,0.0,0.0,0.0,0.0,0.0,0.0,0.0,0.0,3.7447,3.7447,0.0,0.0,0.0,0.0,0.0,3.6999,3.6984,3.6628,3.5778,3.5732,3.5378,3.4611,0.0,0.0,3.7324,3.7962,3.8873,4.0096,4.0096,4.0096,4.0096,4.0096,4.0096,4.0096,4.0096,4.0096,4.0096,4.0096,4.0096,4.0273,4.2057,4.2313,4.1859,4.3776,4.4439,4.4267,4.3732,4.389,4.435,4.4618,0.0,0.0,0.0,0.0,0.0,0.0,0.0,4.4373,0.0,0.0,0.0,4.6272,4.6885,4.765,4.935,4.9801,5.0134,5.0989,5.1183,5.1202,5.1202,5.1202,5.1202,5.1202,5.1202,5.1194,5.1203,5.1138,5.1108,5.1099,5.1037,5.0887,5.0633,5.0355,5.008,4.983,4.963,4.9524,4.9524,4.9505,4.9505,4.9505,4.9722,4.9817,4.9817,5.0075,5.0075,4.9817,5.0075,5.0062,4.9779,4.9168,4.8559,4.7952,4.7001,4.6214,4.5627,4.5893,4.6046,4.6093,4.611,4.6095,4.6098,4.6098,4.6099,4.6105,0.0,0.0,0.0,0.0,0.0,3.5935,3.5865,3.5836,3.5836,0.0,0.0,0.0,3.6425,3.6702,3.6816,3.68,3.6677,3.6538,3.6276,3.6276,3.6382,3.6599,3.7192,3.7864,3.8677,3.9274,3.9767,4.0096,4.0096,4.0096,4.0096,4.0096,4.0096,4.0096,4.0096,4.0096,4.0096,4.0096,4.0096,4.0231,4.1816,4.2439,4.2646,4.4239,4.4964,4.5079,4.4949,4.4613,4.4361,0.0,4.4738,4.4653,0.0,0.0,0.0,0.0,0.0,0.0,4.4522,0.0,0.0,0.0,0.0,0.0,4.7799,4.891,4.9911,5.0206,5.0755,5.1202,5.1202,5.1202,5.1202,5.1202,5.1202,5.1202,5.1194,5.1183,5.1145,5.1114,5.1042,5.089,5.0635,5.0446,5.0202,0.0,4.9885,4.9857,4.9721,4.9843,4.9925,4.9925,4.9986,5.0025,5.0025,5.0082,5.0082,5.0025,5.0082,5.0101,4.9981,4.8743,4.809,4.7845,4.6528,4.5865,4.574,4.5886,4.5964,4.6027,4.6075,4.6089,4.6098,4.6098,4.6093,4.6108,0.0,0.0,0.0,0.0,3.5631,3.567,3.5273,3.5448,3.5483,0.0,0.0,0.0,3.5544,3.5962,3.6106,3.5812,3.5706,3.5768,3.6045,3.6335,3.6746,3.7371,3.821,3.8821,3.9206,3.9799,4.0096,4.0096,4.0096,4.0138,4.0188,4.0188,4.0188,4.0188,4.0188,4.0163,4.0113,4.0037,4.0062,4.0231,4.1773,4.2354,4.2475,4.4085,4.4827,4.4958,4.501,4.4898,4.4828,4.5306,4.5149,0.0,0.0,0.0,0.0,0.0,0.0,0.0,0.0,0.0,4.4804,4.4897,0.0,0.0,4.7279,4.8319,4.9327,5.0177,5.0815,5.1202,5.1202,5.1202,5.1202,5.1202,5.1202,5.1202,5.1202,5.1202,5.1196,5.1159,5.1062,5.0941,5.078,5.0538,5.0306,5.0082,5.0076,5.0044,4.9925,5.0031,5.0095,5.0095,5.0169,5.0228,5.0228,5.0333,5.0333,5.0228,5.0333,5.0333,5.0183,4.8708,4.803,4.7934,4.6384,4.5734,4.5814,4.5861,4.5947,4.6007,4.6066,4.6108,4.6098,4.6098,4.6108,4.6099,0.0,0.0,3.5181,3.5244,3.5733,3.5896,3.5247,3.5642,3.577,0.0,3.4943,3.4916,3.4723,3.5195,3.5244,3.4566,3.4505,3.4781,3.5442,3.599,3.659,3.7324,3.8373,3.9033,3.9169,3.9707,4.0028,4.0146,4.0146,4.0238,4.0379,4.0379,4.0355,4.033,4.033,4.0238,4.007,3.9961,4.0037,4.0333,4.1757,4.2074,4.1919,4.3597,4.4303,4.4432,4.4551,4.4932,4.5476,4.6013,4.5747,0.0,0.0,0.0,0.0,0.0,4.4263,0.0,0.0,0.0,0.0,0.0,4.4663,0.0,4.716,4.775,4.8433,5.0165,5.072,5.0893,5.0899,5.0899,5.0899,5.0911,5.0989,5.1086,5.1183,5.1202,5.1202,5.1202,5.1075,5.1012,5.0978,5.0663,5.0425,5.0393,5.0228,5.0145,5.017,5.017,5.017,5.017,5.0336,5.0425,5.0425,5.0673,5.0673,5.0445,5.0682,5.0654,5.0368,4.8884,4.8186,4.8118,4.6425,4.5734,4.5821,4.5886,4.5947,4.6002,4.6066,4.609,4.6089,4.6089,4.6095,4.6095,0.0,3.506,3.481,3.4263,3.4295,3.4485,3.4747,3.4918,3.492,3.4752,3.5217,3.5327,3.4769,3.5195,3.5244,3.4566,3.4505,3.474,3.531,3.5452,3.5986,3.7019,3.7296,3.7927,3.9,3.9141,3.9619,4.0436,4.0436,4.0558,4.0776,4.0776,4.0655,4.0461,4.0461,4.0337,4.0096,4.0087,4.0417,4.0975,4.1096,4.1711,4.2638,4.343,4.4333,4.5173,4.5216,4.5303,4.5476,4.6013,4.5651,4.502,0.0,0.0,0.0,4.4246,0.0,0.0,0.0,0.0,0.0,0.0,4.465,0.0,4.5384,4.6231,4.702,4.7454,4.8296,4.8966,4.9026,4.9033,4.9051,4.9099,4.9707,5.0406,5.1105,5.1202,5.1202,5.1202,5.1076,5.0988,5.0921,5.0799,5.0635,5.0418,5.0352,5.0416,5.0563,5.0573,5.0573,5.0573,5.0614,5.0634,5.0634,5.0702,5.0702,5.0634,5.0683,5.0702,5.0586,4.8894,4.8141,4.8114,4.6433,4.5771,4.5873,4.5886,4.5947,4.6002,4.6007,4.6012,4.6017,4.6017,4.6012,4.6026,3.4527,3.4017,3.3783,3.3883,3.4163,3.4478,3.4661,3.4973,3.5036,3.4653,3.5164,3.5334,3.4684,3.5135,3.5244,3.4566,3.4505,3.4723,3.5259,3.5593,3.6136,3.696,3.7278,3.7942,3.8971,3.8988,3.9491,4.051,4.051,4.068,4.1,4.0935,4.103,4.1236,4.0803,4.0666,4.0739,4.0273,4.0316,4.0713,4.1326,4.2272,4.3423,4.4061,4.4761,4.5397,4.5397,4.5397,4.545,4.5701,4.5169,0.0,4.5305,4.5176,4.4726,0.0,4.4853,4.508,0.0,0.0,0.0,4.4402,0.0,0.0,0.0,4.5789,4.6374,4.6967,4.7682,4.8202,4.8242,4.8384,4.8503,4.8534,4.9301,4.9906,4.9901,5.0658,5.1202,5.1202,5.1082,5.0969,5.0906,5.0844,5.073,5.0563,5.0553,5.0584,5.0683,5.0712,5.0712,5.0712,5.0712,5.0712,5.0712,5.0712,5.0712,5.0712,5.0712,5.0712,5.0654,4.9356,4.8555,4.8122,4.6916,4.6213,4.5892,4.5941,4.5975,4.6002,4.6002,4.6002,4.6002,4.6002,4.6002,4.6002,3.3798,3.315,3.3023,3.3864,3.4465,3.4887,3.5005,3.5516,3.5611,3.4967,3.5491,3.5645,3.4967,3.5611,3.5825,3.5143,3.5183,3.5423,3.5828,3.6174,3.6692,3.7352,3.758,3.8159,3.9174,3.9056,3.9515,4.0583,4.0583,4.0776,4.1163,4.1053,4.127,4.175,4.1206,4.1062,4.1188,4.0629,4.0476,4.0714,4.1891,4.2745,4.3347,4.4253,4.4738,4.5001,4.5294,4.5397,4.538,4.5225,4.4609,4.4038,4.4847,4.4796,0.0,0.0,0.0,0.0,0.0,0.0,0.0,0.0,0.0,4.4393,0.0,0.0,0.0,4.6731,4.7163,4.7386,4.7405,4.7612,4.7811,4.7852,4.8664,4.9039,4.8347,4.964,5.0673,5.0691,5.0901,5.0944,5.0674,5.0585,5.0585,5.0693,5.0539,5.0519,5.0693,5.0712,5.0712,5.0712,5.0712,5.0712,5.0712,5.0712,5.0712,5.0712,5.0712,5.0712,5.0673,4.9798,4.9055,4.8425,4.7677,4.6912,4.6181,4.6408,4.641,4.623,4.6079,4.6002,4.6002,4.6002,4.6002,4.6002,3.3688,3.338,3.355,3.4287,3.4472,3.4935,3.6107,3.6353,3.6384,3.6261,3.6861,3.7015,3.6338,3.7403,3.7877,3.7212,3.7712,3.8013,3.7873,3.7323,3.7528,3.8721,3.7577,3.7879,3.9943,3.9326,3.9613,4.0847,4.0847,4.1035,4.1358,4.1358,4.1227,4.105,4.1595,4.1398,4.0639,4.1178,4.1809,4.2415,4.2586,4.1946,4.1057,4.251,4.3211,4.3621,4.4941,4.5397,4.5294,0.0,4.4337,4.4083,0.0,4.4174,4.5147,4.3234,0.0,0.0,0.0,0.0,0.0,0.0,4.3992,0.0,4.4178,0.0,4.4675,4.481,0.0,4.5185,4.5243,0.0,0.0,4.5553,4.6404,4.7047,4.7023,4.7994,4.8767,4.8879,5.0245,5.0791,4.983,4.9637,4.9875,5.0635,4.9971,4.9875,5.0654,5.0712,5.0712,5.0712,5.0712,5.0712,5.0712,5.0712,5.0712,5.0712,5.0712,5.0712,5.0673,4.9798,4.9418,4.9401,4.8597,4.783,4.7209,4.7978,4.7842,4.7084,4.6307,4.6002,4.6002,4.6002,4.6002,4.6002,3.4131,3.3945,3.4216,3.5386,3.5245,3.5279,3.6293,3.5794,3.5352,3.5352,3.5568,3.5766,3.5783,3.6017,3.6656,3.7847,3.7953,3.7987,3.8119,3.8254,3.7911,3.707,3.7297,3.7872,3.8802,3.9108,3.9782,4.0912,4.1035,4.1226,4.1515,4.1448,4.1533,4.1799,4.2016,4.2053,4.1986,4.2294,4.2013,4.1493,4.2398,4.1629,4.0223,4.3091,4.4319,4.4561,4.5173,4.5397,4.5345,0.0,4.4354,0.0,0.0,0.0,0.0,4.3799,0.0,0.0,0.0,0.0,0.0,0.0,0.0,0.0,4.4056,0.0,4.4196,0.0,0.0,0.0,0.0,0.0,0.0,0.0,4.5837,4.6369,4.6026,4.7259,4.8253,4.8457,4.9136,4.9572,4.9528,4.9901,5.0308,5.0673,5.0366,5.0308,5.0673,5.0712,5.0712,5.0712,5.0712,5.0712,5.0712,5.0712,5.0712,5.0712,5.0712,5.0712,5.0693,5.0364,4.9999,4.9591,4.9333,4.8768,4.8075,4.8444,4.8386,4.8017,4.7648,4.7201,4.6754,4.6754,4.6424,4.5997,3.5077,3.4928,3.5115,3.6154,3.5916,3.5713,3.6222,3.5521,3.4922,3.4922,3.5094,3.536,3.574,3.6134,3.7109,3.8962,3.932,3.9483,3.9541,3.9478,3.8932,3.7797,3.7831,3.8294,3.9089,3.9494,4.01,4.0912,4.1065,4.1272,4.1475,4.1358,4.1435,4.1673,4.1804,4.2075,4.2437,4.2643,4.2266,4.1635,4.2749,4.2371,4.1381,4.3761,4.4965,4.5397,4.5397,4.5397,4.5363,4.5156,4.4389,0.0,4.4973,4.4495,4.3588,0.0,0.0,0.0,4.3115,0.0,0.0,0.0,0.0,0.0,0.0,0.0,0.0,0.0,4.4042,0.0,0.0,0.0,0.0,0.0,0.0,4.5709,4.5264,4.6388,4.7362,4.7649,4.7881,4.8327,4.9112,4.9671,5.0087,5.0327,5.0346,5.0462,5.0693,5.0712,5.0712,5.0712,5.0712,5.0712,5.0712,5.0712,5.0712,5.0712,5.0712,5.0712,5.0693,5.0776,5.0497,4.9958,5.0078,4.9685,4.8968,4.9202,4.9163,4.8968,4.9221,4.8774,4.7958,4.7473,4.6906,4.6348,3.6642,3.6408,3.6237,3.6222,3.6179,3.6163,3.6125,3.6082,3.604,3.604,3.6609,3.7028,3.7028,3.9465,4.1097,4.122,4.3149,4.4041,4.3263,4.1245,4.1001,4.3054,3.9783,3.9242,4.2083,4.1043,4.0614,4.0912,4.1047,4.1146,4.1209,4.1146,4.0649,3.9825,4.0601,4.0963,4.0991,4.1716,4.2854,4.4165,4.4216,4.4647,4.507,0.0,4.4147,4.5397,4.5397,0.0,0.0,4.4578,4.4311,0.0,0.0,0.0,0.0,0.0,0.0,0.0,0.0,0.0,0.0,4.2789,0.0,0.0,0.0,0.0,4.337,0.0,0.0,0.0,0.0,0.0,0.0,0.0,0.0,0.0,0.0,4.5106,4.5505,4.5829,4.6557,4.7397,4.8254,4.8237,4.8529,4.9375,4.9433,4.9798,5.0654,5.0712,5.0712,5.0712,5.0712,5.0712,5.0712,5.0712,5.0712,5.0712,5.0712,5.0712,5.0693,5.0776,5.0825,5.0867,5.093,5.0539,4.9926,5.0775,5.0619,4.9945,5.0794,5.0581,4.9615,4.792,4.732,4.724,3.7207,3.7552,3.7562,3.7011,3.6421,3.5855,3.5428,3.4988,3.5079,3.6097,3.6843,3.7818,3.9139,4.025,4.1399,4.2579,4.3054,4.3093,4.2699,4.1508,4.101,4.1461,3.9645,3.9244,4.0531,4.0607,4.0294,3.9579,4.0252,4.0363,3.9948,3.9922,3.9678,3.9325,4.0058,4.0886,4.1801,4.2489,4.3103,4.3569,4.3569,4.4018,4.4665,0.0,4.4975,4.5397,4.5397,4.5397,0.0,4.5104,4.4699,4.4345,4.4578,4.4291,4.3917,4.4046,4.4171,4.4109,0.0,0.0,4.4343,4.3173,0.0,0.0,0.0,0.0,0.0,0.0,0.0,0.0,0.0,0.0,0.0,0.0,0.0,0.0,0.0,4.4985,4.5391,4.5643,4.6416,4.7054,4.7342,4.8335,0.0,4.9375,4.9933,5.0385,5.0693,5.0712,5.0712,5.0712,5.0712,5.0712,5.0712,5.0712,5.0712,5.0712,5.0712,5.0721,5.0776,5.0844,5.0906,5.0961,5.1076,5.0984,5.0775,5.1086,5.1027,5.0794,5.1086,5.1019,5.0611,4.9443,4.8331,4.7271,3.774,3.8028,3.8057,3.7428,3.6626,3.5911,3.5535,3.5265,3.5654,3.7159,3.7942,3.9056,4.0886,4.1699,4.2565,4.372,4.4001,4.3692,4.275,4.2375,4.1895,4.1313,4.0504,4.049,4.1319,4.1278,4.0896,4.0142,4.0197,4.0023,3.9662,3.9301,3.9118,3.9072,3.9508,4.0654,4.223,4.2666,4.3283,4.3975,0.0,4.4268,0.0,0.0,4.5225,4.5044,0.0,4.5397,4.5397,4.5397,4.5096,4.4768,4.5242,4.4777,4.4146,4.4664,4.4516,4.4141,4.3912,4.4394,0.0,4.3527,4.3806,0.0,4.2878,0.0,4.2935,0.0,0.0,0.0,0.0,0.0,0.0,0.0,0.0,0.0,0.0,4.495,4.5282,4.5568,4.6105,4.6567,4.6865,4.7875,4.8759,4.9356,4.9913,5.0366,5.0673,5.0712,5.0712,5.0712,5.0712,5.0712,5.0712,5.0712,5.0712,5.0712,5.0731,5.0758,5.0801,5.0898,5.0954,5.1004,5.1133,5.1202,5.1202,5.1202,5.1202,5.1202,5.1208,5.1205,5.1086,5.0229,4.9049,4.7784,3.8301,3.8,3.777,3.753,3.6848,3.637,3.6404,3.6916,3.782,3.9276,4.0017,4.095,4.2405,4.3938,4.4801,4.4784,4.6041,4.5923,4.3696,4.3776,4.3603,4.2929,4.2383,4.279,4.4233,4.2864,4.217,4.2236,4.0774,4.0087,4.0167,3.9321,3.8947,3.9007,3.9007,4.0207,4.222,4.2196,4.3437,4.5397,4.5397,4.538,4.5345,4.538,4.4941,4.4397,4.5147,4.5397,4.5397,4.5397,4.5397,4.5397,4.5397,4.5397,4.5397,4.5397,4.5397,4.5294,4.4715,4.4558,4.4418,4.3888,4.3768,0.0,0.0,0.0,4.3341,0.0,0.0,0.0,0.0,0.0,0.0,0.0,0.0,0.0,0.0,0.0,4.5074,4.5522,4.5624,4.597,4.6759,4.6904,4.7625,4.9221,4.9375,4.9779,5.0654,5.0654,5.0654,5.0712,5.0712,5.0712,5.0712,5.0712,5.0712,5.0693,5.0767,5.0801,5.081,5.0952,5.0997,5.103,5.1133,5.1202,5.1202,5.1202,5.1202,5.1194,5.1204,5.1207,5.1097,5.0221,4.9469,4.8749,3.8902,3.8719,3.859,3.8525,3.7789,3.7331,3.7794,3.9043,4.0384,4.1647,4.3422,4.5041,4.6312,4.731,4.7648,4.7107,4.7411,4.7141,4.6007,4.4644,4.4401,4.548,4.332,4.2701,4.3978,4.2163,4.0805,3.9949,3.9495,3.9029,3.8615,3.9003,3.9199,3.9221,3.9118,4.0279,4.2332,4.2243,4.3437,4.5397,4.5397,4.5079,4.463,0.0,4.4941,4.4397,4.5147,4.5397,4.5397,4.5397,4.5397,4.5397,4.5397,4.5397,4.5423,4.5528,4.5554,4.5529,4.5493,4.5466,4.5343,4.4733,4.4589,4.4421,0.0,0.0,0.0,0.0,0.0,0.0,0.0,0.0,0.0,0.0,0.0,0.0,0.0,0.0,4.5132,4.5342,4.608,4.6394,4.597,4.7067,4.7971,4.8394,4.9029,4.9779,5.0654,5.0087,5.0029,5.0673,5.0712,5.0712,5.0712,5.0712,5.0712,5.0712,5.0721,5.0785,5.0874,5.0914,5.1015,5.1159,5.119,5.1202,5.1202,5.1202,5.1202,5.1194,5.1204,5.1266,5.1242,5.0363,4.9921,4.9645,3.97,3.9195,3.899,3.9294,3.9505,3.9645,3.9629,4.0101,4.1194,4.3185,4.4763,4.6219,4.7554,4.851,4.8924,4.8501,4.8423,4.7831,4.6496,4.5849,4.5566,4.5623,4.4513,4.422,4.4881,4.3422,0.0,4.12,4.0049,3.9155,3.8472,3.8265,3.8335,3.865,3.8961,4.0132,4.1934,4.284,4.3902,4.5027,4.5285,4.5139,0.0,4.5225,4.5121,4.4837,4.5242,4.5397,4.5397,4.5397,4.5397,4.5397,4.5397,4.5397,4.5423,4.5554,4.5607,4.5632,4.577,4.5795,4.5716,4.5449,4.5369,4.5208,4.4582,4.4726,4.5044,0.0,4.5348,4.5639,0.0,0.0,0.0,0.0,0.0,0.0,0.0,0.0,0.0,4.5282,4.5898,4.6144,4.5652,4.7124,4.8105,4.8105,4.8548,4.9048,4.9529,4.9452,4.9625,5.0106,5.05,5.0712,5.0712,5.0712,5.0712,5.0693,5.0758,5.0827,5.0898,5.0993,5.1089,5.1202,5.1202,5.1202,5.1202,5.12,5.1201,5.1215,5.1258,5.132,5.1342,5.0856,5.0678,5.0559,4.0826,3.9807,3.9398,4.0071,4.1493,4.2339,4.1829,4.1313,4.1884,4.4474,4.5396,4.6282,4.7546,4.8596,4.9229,4.9229,4.9124,4.8293,4.6499,4.7185,4.6823,4.5009,4.5753,4.6196,4.6196,4.524,4.4417,4.3723,4.1293,3.9818,3.9287,3.7892,3.7665,3.8461,3.9228,4.0324,4.1787,4.3809,4.4684,4.4765,4.5278,4.5476,4.5397,4.5397,4.5397,4.5397,4.5397,4.5397,4.5397,4.5397,4.5397,4.5397,4.5397,4.5397,4.5423,4.5581,4.5632,4.5641,4.5795,4.5846,4.5871,4.5998,4.6023,4.589,4.5372,4.554,4.5914,4.6198,4.6051,4.6353,4.7845,0.0,0.0,0.0,0.0,0.0,0.0,0.0,0.0,0.0,4.5735,0.0,4.5614,4.7028,4.7952,4.7952,4.7952,4.8048,4.8259,0.0,4.9336,4.9548,5.0308,5.0712,5.0712,5.0712,5.0693,5.0712,5.0836,5.0898,5.0921,5.1095,5.1171,5.1202,5.1202,5.1202,5.1189,5.1204,5.1214,5.1245,5.1341,5.1401,5.1396,5.1407,5.1394,5.1281,4.2967,4.1725,4.0943,4.1671,4.2556,4.3494,4.4509,4.5814,4.6742,4.702,4.8241,4.9108,4.912,4.9317,4.9458,4.9458,4.9428,4.9257,4.8877,4.8219,0.0,4.7321,4.6584,4.6196,4.6196,4.4756,4.3605,0.0,4.1004,4.025,4.0495,4.0209,4.0677,4.1783,4.1926,4.2759,4.4149,4.5089,0.0,4.5912,4.601,4.5803,4.5397,4.5397,4.5397,4.5397,4.5397,4.5397,4.5397,4.5397,4.5397,4.5397,4.5397,4.5397,4.545,4.5693,4.577,4.5821,4.6073,4.6122,4.6122,4.6147,4.6147,4.6137,4.6039,4.6557,4.7097,4.7086,4.7563,4.7848,4.7388,0.0,0.0,0.0,0.0,0.0,0.0,0.0,0.0,0.0,0.0,4.7124,4.5729,4.6528,4.7096,4.7096,4.7096,4.7721,4.9106,0.0,4.899,0.0,5.0616,5.0712,0.0,0.0,5.0731,5.0775,5.081,5.0874,5.0983,5.1023,5.1108,5.1202,5.1202,5.1202,5.1189,5.1204,5.1272,5.1363,5.1386,5.1401,5.1396,5.1407,5.1394,5.138,4.2843,4.2246,4.2002,4.2701,4.4148,4.5571,4.6646,4.8219,4.8913,4.7879,4.8404,4.8797,4.8673,4.9215,4.959,4.959,4.9547,4.9547,4.959,4.8545,4.7919,4.8001,4.6862,4.6196,4.6196,4.5428,4.4465,4.3273,0.0,4.1112,4.079,4.0259,4.0443,4.1253,4.2135,4.3178,4.4306,0.0,4.5882,4.6069,4.6424,4.6266,4.5803,4.5803,4.5803,4.5778,4.5502,4.5752,4.6094,4.5589,4.5397,4.5397,4.5397,4.545,4.5537,4.5744,4.5846,4.5947,4.6147,4.6196,4.6196,4.6196,4.6196,4.6172,4.6097,4.6742,4.7309,4.7236,4.7832,4.8143,4.7278,4.6507,0.0,0.0,0.0,0.0,0.0,0.0,4.7226,0.0,0.0,0.0,0.0,4.624,4.6413,4.6865,4.6904,4.7432,4.8663,0.0,4.8682,0.0,0.0,0.0,5.0712,0.0,5.0721,5.0801,5.0844,5.0906,5.1004,5.1076,5.1133,5.1202,5.1202,5.1197,5.1205,5.1288,5.1343,5.1397,5.1397,5.1393,5.1403,5.1393,5.1396,5.1399,4.2933,4.2936,4.3175,4.4041,4.5908,4.7474,4.8013,4.9405,4.9924,4.8588,4.8432,4.8432,4.8432,4.9263,4.9796,4.9796,4.9696,4.9637,4.9755,4.8629,4.7991,4.8055,4.6971,4.6326,4.6301,4.6429,4.5811,0.0,0.0,0.0,4.1497,4.0352,4.0208,4.0974,4.2365,4.3543,0.0,0.0,4.6194,4.6324,4.6842,4.6771,4.6339,4.6339,4.6339,4.6291,4.5862,4.6242,4.6771,4.5988,4.5727,4.5701,4.5589,4.5701,4.5879,4.5821,4.5947,4.6172,4.6301,4.6343,4.6343,4.6429,4.6429,4.6398,4.6301,4.6858,4.7389,4.7262,4.7813,4.8048,4.7241,4.6728,0.0,0.0,0.0,0.0,0.0,0.0,4.7704,0.0,0.0,0.0,4.7173,4.6528,4.6413,4.7105,4.7,4.725,4.8067,0.0,0.0,0.0,0.0,5.0423,5.0423,0.0,5.073,5.0827,5.0874,5.0952,5.1043,5.1159,5.1202,5.1202,5.1206,5.1215,5.1258,5.136,5.1402,5.1398,5.14,5.1405,5.1393,5.1398,5.14,5.1401,4.5239,4.4975,4.4965,4.6574,4.757,4.8146,4.811,4.9405,5.0345,5.0195,5.0161,5.0161,5.0161,5.0159,5.0143,5.0143,5.0034,4.9964,4.9964,4.8785,4.8028,4.7919,4.7216,4.6771,4.6654,4.7204,4.7006,0.0,0.0,4.3752,0.0,4.223,4.2468,4.4253,0.0,0.0,0.0,4.6927,4.7151,4.744,4.7512,4.7248,4.684,4.684,4.684,4.684,4.6771,4.6817,4.6886,4.6794,4.6771,4.6678,4.6242,4.6435,4.6654,4.6005,4.6154,4.659,4.6788,4.6783,4.6829,4.7186,4.7244,4.7191,4.7169,4.7478,4.7752,4.7752,4.8053,4.8048,4.7241,4.7626,4.7847,0.0,0.0,0.0,0.0,0.0,4.8964,4.9021,0.0,0.0,4.8048,4.7913,4.7894,4.799,4.7308,4.725,4.8067,0.0,0.0,4.9375,4.9471,4.951,4.951,5.0308,5.0758,5.089,5.0898,5.1,5.1171,5.1196,5.1202,5.1208,5.1191,5.1269,5.1386,5.1386,5.1405,5.1408,5.1395,5.1397,5.1398,5.1403,5.1404,5.1405,4.6541,4.6477,4.665,4.7709,4.8584,4.9275,4.9712,5.0307,5.071,5.071,5.0526,5.0415,5.0415,5.0359,5.0331,5.0331,5.0206,5.012,5.012,4.9125,4.8486,4.8434,4.7729,4.7291,4.723,4.7485,4.7192,0.0,0.0,0.0,0.0,0.0,0.0,0.0,0.0,4.6489,4.7131,4.7608,4.7898,4.8015,4.8015,4.7733,4.7313,4.7313,4.7313,4.7291,4.6981,4.7248,4.7692,4.7421,4.7164,4.6923,4.6683,4.6845,4.7013,4.6678,4.6806,4.7035,4.7125,4.7125,4.7125,4.7306,4.7306,4.728,4.7214,4.75,4.7793,4.7692,4.8015,4.8214,4.7865,4.7681,4.7626,4.7791,0.0,0.0,0.0,0.0,0.0,4.9642,0.0,4.9143,4.8904,4.8413,4.8105,4.8105,4.7798,4.7759,0.0,0.0,0.0,4.9394,0.0,5.0183,5.0183,5.0539,5.0767,5.0898,5.0893,5.1005,5.1202,5.12,5.1219,5.1253,5.1301,5.1352,5.1404,5.1406,5.1402,5.1395,5.1397,5.14,5.1403,5.1404,5.1405,5.1406,4.7661,4.7965,4.8446,4.9323,4.9983,5.0582,5.1122,5.1211,5.1211,5.1211,5.1008,5.083,5.0712,5.0749,5.0803,5.0803,5.0694,5.0612,5.0649,4.9647,4.9035,4.9017,4.8229,0.0,4.7736,4.7899,4.7705,4.7119,4.6161,0.0,0.0,0.0,0.0,0.0,4.6837,4.7223,4.748,4.8067,4.8306,4.8306,4.8306,4.8094,4.7816,4.7816,4.7816,4.7775,4.7421,4.7733,4.8248,4.7917,4.7635,4.7406,4.7182,4.7295,4.7488,4.7178,4.7262,4.7454,4.7496,4.7475,4.7475,4.7624,4.7624,4.7582,4.746,4.771,4.7915,4.7836,4.8055,4.8306,4.8306,4.7828,4.7626,4.8214,0.0,0.0,0.0,4.9078,0.0,4.9657,4.9455,4.9307,4.9394,4.8836,4.849,4.849,4.8721,0.0,0.0,0.0,0.0,0.0,0.0,0.0,5.0298,5.0548,5.074,5.0866,5.089,5.1015,5.1192,5.1224,5.1262,5.1336,5.1379,5.1404,5.1405,5.1404,5.1401,5.1401,5.1402,5.1404,5.1405,5.1405,5.1406,5.1406,4.8721,4.9518,5.0467,5.1754,5.197,5.1988,5.1988,5.1988,5.1988,5.1988,5.1988,5.1824,5.1432,5.1608,5.1782,5.1782,5.1651,5.1608,5.1685,5.0372,4.9562,0.0,0.0,4.823,4.8114,4.8605,4.8856,4.8768,0.0,0.0,4.735,0.0,4.6452,4.7094,4.7094,4.7535,4.8306,4.8306,4.8306,4.8306,4.8306,4.8287,4.8287,4.8287,4.8287,4.8287,4.8287,4.8287,4.8306,4.8287,4.8382,4.8381,4.7775,4.7897,4.8132,4.7327,4.7436,4.7813,4.7972,4.7893,4.7913,4.8381,4.8382,4.8287,4.8287,4.8287,4.8287,4.8287,4.8287,4.8306,4.8306,4.8306,4.8306,4.8306,0.0,0.0,0.0,4.9001,0.0,4.8993,4.9011,4.9111,4.9375,4.9394,4.9375,4.9375,0.0,0.0,0.0,0.0,0.0,4.9394,4.9413,0.0,4.9325,5.017,5.0664,5.0801,5.0867,5.1011,5.1191,5.1264,5.1345,5.1398,5.1398,5.1406,5.1399,5.1403,5.1405,5.1405,5.1406,5.1406,5.1406,5.1406,5.1406,5.1406,5.0963,5.1286,5.1658,5.2078,5.2172,5.2201,5.2201,5.2167,5.2155,5.2155,5.2384,5.2454,5.225,5.2042,5.1939,0.0,5.1824,5.1732,0.0,5.0656,4.9996,4.9978,4.9173,4.8696,4.8641,4.8768,4.8822,4.8787,0.0,0.0,0.0,4.6912,4.7187,4.7921,4.7921,4.8067,4.8306,4.8306,4.8306,4.8306,4.8306,4.8306,4.8306,4.8306,4.8306,4.8306,4.8306,4.8306,4.8306,4.8306,4.8325,4.8343,4.8132,4.8248,4.8363,4.8014,4.8034,4.8152,4.819,4.8172,4.819,4.8343,4.8325,4.8306,4.8306,4.8306,4.8306,4.8306,4.8306,4.8306,4.8306,4.8267,4.8228,4.8228,4.8107,0.0,4.892,0.0,4.9303,4.983,5.0046,5.0191,5.0279,5.0289,5.0029,4.9433,0.0,0.0,0.0,0.0,0.0,0.0,4.9932,0.0,5.0189,5.047,5.0664,5.0801,5.0903,5.1074,5.1277,5.1338,5.1378,5.1406,5.1406,5.1406,5.1405,5.1406,5.1406,5.1406,5.1406,5.1406,5.1406,5.1406,5.1406,5.1406,5.2315,5.2361,5.2477,5.2595,5.2648,5.2696,5.274,5.2733,5.2684,5.2684,5.2919,5.3045,5.2962,5.2707,0.0,5.2454,5.2366,5.2343,5.2353,5.1496,5.0867,5.0576,4.9751,4.9172,4.8875,4.8768,0.0,4.8715,4.8107,4.774,4.7628,4.7628,4.7866,4.8306,4.8306,4.8306,4.8306,4.8306,4.8306,4.8306,4.8306,4.8306,4.8306,4.8306,4.8306,4.8306,4.8306,4.8306,4.8306,4.8306,4.8306,4.8306,4.8306,4.8363,4.8401,4.8325,4.8306,4.8306,4.8306,4.8306,4.8306,4.8306,4.8306,4.8306,4.8306,4.8306,4.8306,4.8306,4.8306,4.8306,4.8306,4.8247,4.8187,4.8187,4.8026,4.8168,4.8905,0.0,4.9353,0.0,0.0,5.0212,0.0,5.0212,5.0106,0.0,0.0,0.0,0.0,0.0,5.0096,4.9865,5.0344,5.0582,5.054,5.0596,5.0698,5.0795,5.1008,5.1197,5.1342,5.1383,5.1405,5.1406,5.1406,5.1406,5.1406,5.1406,5.1406,5.1406,5.1406,5.1406,5.1406,5.1406,5.1406,5.1406,5.2872,5.2872,5.2962,5.3279,5.3361,5.342,5.3541,5.3541,5.3521,5.3521,5.3501,5.3499,5.3499,5.3499,5.3398,5.3206,0.0,0.0,5.3318,5.2682,5.1968,5.1231,5.0417,4.962,4.8805,4.866,4.8587,4.8569,4.8569,4.855,4.8494,4.8494,4.8419,4.8306,4.8306,4.8306,4.8306,4.8306,4.8306,4.8306,4.8306,4.8306,4.8306,4.8306,4.8306,4.8306,4.8306,4.8306,4.8306,4.8306,4.8287,4.8287,4.8287,4.8287,4.8287,4.8287,4.8306,4.8306,4.8306,4.8306,4.8306,4.8306,4.8306,4.8306,4.8306,4.8306,4.8306,4.8306,4.8306,4.8287,4.8287,4.8228,4.8187,4.8168,4.8026,4.8169,4.8905,4.9139,4.9197,4.9117,0.0,0.0,4.949,4.949,4.9798,0.0,0.0,0.0,0.0,0.0,4.975,5.0565,5.0593,5.0521,5.0416,5.0614,5.0747,5.0831,5.116,5.1334,5.1406,5.1406,5.1406,5.1406,5.1406,5.1406,5.1406,5.1406,5.1406,5.1406,5.1406,5.1406,5.1406,5.1406,5.1406,5.1406,0.0,0.0,5.3662,5.3757,5.3963,5.4145,5.418,5.3963,5.3795,5.3795,5.3639,5.3461,5.3359,5.3359,5.3316,5.3206,5.3334,5.3439,5.344,5.2722,5.1949,5.1174,5.0286,4.9473,4.866,4.8569,4.8476,4.8382,4.8382,4.8363,4.8343,4.8343,4.8325,4.8306,4.8306,4.8306,4.8306,4.8306,4.8306,4.8306,4.8306,4.8306,4.8306,4.8306,4.8306,4.8306,4.8306,4.8306,4.8306,4.8306,4.8267,4.8226,4.8226,4.8226,4.8228,4.8287,4.8306,4.8306,4.8306,4.8306,4.8306,4.8306,4.8306,4.8306,4.8306,4.8306,4.8306,4.8306,4.8306,4.8287,4.8228,4.813,4.803,4.7984,4.8108,4.8383,4.8932,4.9352,4.9719,0.0,5.0296,5.0385,5.0385,5.0385,5.0212,0.0,0.0,4.9683,4.9634,4.9441,4.973,5.0565,5.0489,5.0502,5.0625,5.0731,5.092,5.118,5.1262,5.1334,5.1406,5.1406,5.1406,5.1406,5.1406,5.1406,5.1406,5.1406,5.1406,5.1406,5.1406,5.1406,5.1406,5.1406,5.1406,5.1406,5.3699,5.387,5.4035,5.4035,5.4179,5.4339,5.439,5.4251,5.4108,5.4035,5.3926,5.3775,5.3679,5.366,5.364,5.36,5.3459,5.3398,5.3499,5.3134,5.2416,5.1324,5.0731,4.9917,4.8821,4.855,4.842,4.8439,4.8532,4.8532,4.8439,4.8439,4.8401,4.8306,4.8306,4.8306,4.8306,4.8306,4.8306,4.8306,4.8306,4.8306,4.8306,4.8306,4.8306,4.8306,4.8306,4.8306,4.8306,4.8306,4.8247,4.8207,4.8246,4.8208,4.8207,4.8267,4.8306,4.8306,4.8306,4.8306,4.8306,4.8306,4.8306,4.8306,4.8306,4.8306,4.8287,4.8267,4.8247,4.8228,4.813,4.801,4.8008,4.811,4.7938,4.8142,4.9099,4.9235,4.9568,5.0391,5.0623,5.0712,5.0712,5.0712,5.05,5.0029,4.9971,0.0,4.9901,4.9831,5.0021,5.0481,5.0435,5.0492,5.0644,5.0845,5.1077,5.1358,5.1358,5.1363,5.1406,5.1406,5.1406,5.1406,5.1406,5.1406,5.1406,5.1406,5.1406,5.1406,5.1406,5.1406,5.1406,5.1406,5.1406,5.1406,5.3999,5.4125,5.4267,5.4267,5.4284,5.4335,5.4441,5.4424,5.4373,5.4251,5.4179,5.4144,5.4091,5.4073,5.4055,5.4055,5.3579,5.3375,5.3579,5.3622,5.305,5.1747,5.138,5.0564,4.9198,4.8661,4.8458,4.866,4.882,4.8803,4.866,4.866,4.855,4.8401,4.8401,4.8401,4.8401,4.8401,4.8401,4.8401,4.8401,4.8382,4.8344,4.8344,4.8344,4.8344,4.8306,4.8325,4.8344,4.8306,4.8247,4.8187,4.8267,4.8228,4.8187,4.8267,4.8306,4.8344,4.8306,4.8306,4.8306,4.8306,4.8306,4.8287,4.8287,4.8287,4.8267,4.8187,4.8168,4.8128,4.801,4.8008,4.8035,4.8199,4.7866,4.8004,4.9225,0.0,4.9358,5.0404,5.0633,5.0712,5.0712,5.0712,5.0702,5.0692,5.0633,5.0593,5.0572,5.0457,5.0412,5.0427,5.0427,5.0506,5.0659,5.098,5.1225,5.1406,5.1406,5.1406,5.1406,5.1406,5.1406,5.1406,5.1406,5.1406,5.1406,5.1406,5.1406,5.1406,5.1406,5.1406,5.1406,5.1406,5.1406,5.1406,5.4321,5.4437,5.4549,5.4549,5.468,5.478,5.4736,5.4606,5.4455,5.4373,5.4126,5.3944,5.3926,5.387,5.3851,5.3851,5.3774,5.3775,5.4,5.3907,5.3442,5.2547,5.1732,5.0859,4.9947,4.919,4.882,4.8838,4.8873,4.8873,4.8838,4.8838,4.8838,4.8803,4.8803,4.8803,4.8803,4.8803,4.8803,4.8803,4.8803,4.8714,4.855,4.855,4.855,4.8532,4.8363,4.842,4.8514,4.8363,4.817,4.8052,4.8187,4.813,4.807,4.8187,4.8382,4.8514,4.8344,4.8306,4.8306,4.8306,4.8306,4.8305,4.8226,4.8207,4.8187,4.807,4.8032,4.801,4.7925,4.8231,4.8255,4.7518,4.8477,4.9201,4.8865,0.0,5.0327,5.0634,5.0702,5.0712,5.0712,5.0712,5.0692,5.0613,5.0603,5.0562,5.0435,5.0412,5.0459,5.0567,5.0567,5.0706,5.1016,5.1235,5.1379,5.1406,5.1406,5.1406,5.1406,5.1406,5.1406,5.1406,5.1406,5.1406,5.1406,5.1406,5.1406,5.1406,5.1406,5.1406,5.1406,5.1406,5.1406,5.1406,5.4455,5.4587,5.4698,5.4651,5.4733,5.4783,5.4736,5.4673,5.4573,5.4474,5.4318,5.4214,5.4162,5.4145,5.4128,5.4128,5.4128,5.4163,5.4269,5.409,5.3699,5.3002,5.2001,5.0817,4.9483,4.9301,4.9164,4.9062,4.9164,4.9164,4.9062,4.9062,4.9012,4.8909,4.8909,4.8909,4.8909,4.8909,4.8909,4.8909,4.8856,4.8786,4.8715,4.8642,4.8605,4.8587,4.8495,4.8569,4.8697,4.8606,4.8476,4.8402,4.8532,4.8495,4.8402,4.8532,4.8587,4.8605,4.8624,4.8624,4.8624,4.8624,4.8606,4.855,4.8532,4.8457,4.8401,4.8286,4.8383,4.8458,4.8347,4.8672,4.8842,4.8578,4.89,4.9283,4.9622,4.9818,5.0095,5.0644,5.0712,5.0712,5.0712,5.0663,5.0633,5.0603,5.0521,5.0468,5.0401,5.0379,5.0418,5.0587,5.0778,5.0945,5.1102,5.1297,5.1402,5.1406,5.1406,5.1406,5.1406,5.1406,5.1406,5.1406,5.1406,5.1406,5.1406,5.1406,5.1406,5.1406,5.1406,5.1406,5.1406,5.1406,5.1406,5.1406,5.4554,5.467,5.4771,5.4723,5.4708,5.4692,5.4657,5.4657,5.4606,5.4489,5.4472,5.4455,5.4409,5.4409,5.4409,5.4409,5.4409,5.4409,5.4409,5.4269,5.3971,5.3489,5.2321,5.0933,4.9344,4.9439,4.9427,4.9262,4.9427,4.9427,4.9262,4.9262,4.9197,4.9029,4.9029,4.9029,4.8976,4.8976,4.8976,4.896,4.8909,4.8875,4.8822,4.8714,4.8678,4.8678,4.866,4.8732,4.8839,4.8804,4.875,4.8695,4.882,4.8803,4.873,4.8855,4.882,4.8767,4.8855,4.8891,4.8874,4.8874,4.8804,4.8768,4.8803,4.8749,4.8677,4.8659,4.8832,4.8943,4.8841,4.9112,4.9405,4.9457,0.0,4.9415,5.0138,4.9922,4.9952,5.0616,5.0712,5.0712,5.0712,5.0633,5.0593,5.0582,5.0511,5.0438,5.039,5.0388,5.0517,5.0698,5.0959,5.112,5.117,5.1325,5.1404,5.1406,5.1406,5.1406,5.1406,5.1406,5.1406,5.1406,5.1406,5.1406,5.1406,5.1406,5.1406,5.1406,5.1406,5.1406,5.1406,5.1406,5.1406,5.1406,5.4692,5.4708,5.4708,5.4708,5.4708,5.4657,5.4538,5.4503,5.4489,5.4407,5.4407,5.4409,5.4409,5.4409,5.4409,5.4409,5.4409,5.4409,5.4409,5.4392,5.4354,5.4315,5.274,5.1466,5.0585,4.9868,4.949,4.9474,4.949,4.949,4.9474,4.9474,4.9459,4.9443,4.9443,4.9393,4.9276,4.9276,4.9244,4.9181,4.9162,4.9062,4.8891,4.8891,4.8925,4.894,4.8821,4.8874,4.8976,4.8839,4.8715,4.8623,4.8769,4.8767,4.873,4.8855,4.9029,4.9113,4.8943,4.8839,4.8804,4.8804,4.8715,4.8659,4.8847,4.888,4.8928,4.9118,4.9162,4.9159,4.9159,4.9542,4.9613,4.8884,0.0,0.0,4.9577,5.0125,5.0635,5.0693,5.0712,5.0712,5.0712,5.0633,5.0582,5.0511,5.0606,5.0576,5.0325,5.0605,5.0847,5.1049,5.1084,5.1193,5.1388,5.1382,5.1406,5.1406,5.1406,5.1406,5.1406,5.1406,5.1406,5.1406,5.1406,5.1406,5.1406,5.1406,5.1406,5.1406,5.1406,5.1406,5.1406,5.1406,5.1406,5.1406,5.459,5.459,5.4557,5.4526,5.451,5.451,5.4441,5.4441,5.4424,5.439,5.4409,5.4409,5.4409,5.4409,5.4409,5.4409,5.4409,5.4409,5.4409,5.4409,5.4183,5.3693,5.2531,5.1518,5.0726,4.9903,4.9509,4.9509,4.9509,4.9509,4.9509,4.9509,4.9509,4.9509,4.9623,4.9544,4.9305,4.9442,4.9384,4.9197,4.9166,4.9115,4.9079,4.903,4.9064,4.9129,4.9081,4.9079,4.9129,4.9113,4.9077,4.9061,4.9181,4.9214,4.9228,4.9418,4.951,4.9585,4.9636,4.938,4.9127,4.9252,4.9236,4.9214,4.9449,4.9479,4.9479,4.9566,4.97,4.9821,4.9821,5.0133,5.0287,4.998,0.0,5.0577,5.025,5.05,5.0712,5.0712,5.0712,5.0673,5.0633,5.0582,5.0563,5.0625,5.0625,5.0635,5.0605,5.0843,5.1016,5.1097,5.1213,5.1325,5.1394,5.1402,5.1406,5.1406,5.1406,5.1406,5.1406,5.1406,5.1406,5.1406,5.1406,5.1406,5.1406,5.1406,5.1406,5.1406,5.1406,5.1406,5.1406,5.1406,5.1406,5.1406,5.4491,5.4472,5.4439,5.4407,5.4409,5.4409,5.4409,5.4409,5.4409,5.4409,5.4409,5.4409,5.4409,5.4409,5.4409,5.4409,5.4409,5.4409,5.4409,5.4409,5.4146,5.3599,5.2757,5.1912,5.1086,5.0278,4.9753,4.9509,4.9559,4.9585,4.9604,4.9688,4.9731,4.9712,4.9852,4.9745,4.951,4.9569,4.9484,4.9273,4.9183,4.9166,4.9179,4.915,4.9164,4.9228,4.9228,4.9211,4.9214,4.926,4.9244,4.9262,4.9348,4.944,4.9574,4.9816,4.9885,4.9912,5.0012,4.9759,4.9529,4.967,4.9637,4.9651,4.9917,4.9974,4.9962,5.005,5.0225,5.0358,5.0358,5.0544,5.0712,5.0712,5.0712,5.0712,5.0712,5.0712,5.0712,5.0712,5.0673,5.0643,5.0603,5.0584,5.0605,5.0692,5.0745,5.0813,5.0946,5.105,5.1133,5.1187,5.1321,5.1408,5.1403,5.1404,5.1406,5.1406,5.1406,5.1406,5.1406,5.1406,5.1406,5.1406,5.1406,5.1406,5.1406,5.1406,5.1406,5.1406,5.1406,5.1406,5.1406,5.1406,5.1406,5.1406,5.4409,5.4409,5.4409,5.4409,5.4409,5.4409,5.4409,5.4409,5.4409,5.4409,5.4409,5.4409,5.4409,5.4409,5.4409,5.4409,5.4409,5.4409,5.4409,5.439,5.439,5.439,5.3637,5.2811,5.1931,5.1104,5.0332,4.9524,4.9722,4.9817,4.9817,5.0087,5.0195,5.0195,5.0128,5.0068,4.9981,4.9721,4.9554,4.9484,4.9289,4.9214,4.9214,4.9214,4.9244,4.9324,4.9324,4.926,4.9214,4.9214,4.9166,4.9101,4.9101,4.9337,4.9674,4.9999,5.0108,5.0063,4.9942,4.991,4.991,4.991,4.9857,4.9865,5.0147,5.0206,5.0294,5.0624,5.0712,5.0712,5.0712,5.0712,5.0712,5.0712,5.0712,5.0712,5.0712,5.0712,5.0712,5.0712,5.0633,5.0603,5.0603,5.0664,5.0701,5.0701,5.0949,5.1152,5.1287,5.1174,5.1187,5.1396,5.14,5.1393,5.1398,5.1405,5.1406,5.1406,5.1406,5.1406,5.1406,5.1406,5.1406,5.1406,5.1406,5.1406,5.1406,5.1406,5.1406,5.1406,5.1406,5.1406,5.1406,5.1406,5.1406,5.1406,5.4409,5.4409,5.4409,5.4409,5.4409,5.4409,5.4409,5.4409,5.4409,5.4409,5.4409,5.4409,5.4409,5.4409,5.4409,5.4409,5.4409,5.4409,5.4409,5.4584,5.4673,5.4673,5.3715,5.3169,5.3101,5.225,5.1514,5.0894,5.0951,5.0683,5.0068,5.0171,5.0183,5.0147,5.0252,5.0187,5.0006,5.0068,4.9974,4.9781,4.9714,4.9765,4.9825,4.9825,4.9838,4.9851,4.9851,4.979,4.9712,4.9792,4.9764,4.967,4.9764,4.9879,5.0012,5.0236,5.0314,5.0317,5.0429,5.0462,5.0399,5.0159,5.0099,5.0159,5.0483,5.0554,5.0575,5.0673,5.0712,5.0712,5.0712,5.0712,5.0712,5.0712,5.0712,5.0712,5.0712,5.0712,5.0673,5.0633,5.0613,5.0624,5.0663,5.0699,5.0781,5.0979,5.1147,5.1253,5.1308,5.1314,5.1341,5.1408,5.1394,5.1403,5.1405,5.1406,5.1406,5.1406,5.1406,5.1406,5.1406,5.1406,5.1406,5.1406,5.1406,5.1406,5.1406,5.1406,5.1406,5.1406,5.1406,5.1406,5.1406,5.1406,5.1406,5.1406,5.4409,5.4409,5.4409,5.4409,5.4409,5.4409,5.4409,5.4409,5.4409,5.4409,5.4409,5.4409,5.4409,5.4409,5.4409,5.4409,5.4505,5.4597,5.4719,5.4861,5.4962,5.4962,5.4347,5.3916,5.3759,5.324,5.2647,5.1981,5.1748,5.136,5.0832,5.0591,5.0458,5.0418,5.0528,5.0517,5.0353,5.0363,5.029,5.0137,5.0023,5.0018,5.0092,5.0106,5.0113,5.0113,5.0113,5.0,4.991,4.9987,4.9942,4.9897,5.0076,5.0144,5.0193,5.0448,5.0521,5.0542,5.0663,5.0712,5.0653,5.0442,5.041,5.0442,5.0644,5.0712,5.0712,5.0712,5.0712,5.0712,5.0712,5.0712,5.0712,5.0712,5.0712,5.0712,5.0712,5.0692,5.0643,5.0603,5.0615,5.0654,5.0696,5.0809,5.0953,5.1165,5.1253,5.1307,5.1292,5.1364,5.139,5.14,5.1399,5.1405,5.1406,5.1406,5.1406,5.1406,5.1406,5.1406,5.1406,5.1406,5.1406,5.1406,5.1406,5.1406,5.1406,5.1406,5.1406,5.1406,5.1406,5.1406,5.1406,5.1406,5.1406,5.1406,5.4409,5.4409,5.4409,5.4409,5.4409,5.4409,5.4409,5.4409,5.4409,5.4409,5.4409,5.4407,5.4441,5.4441,5.4458,5.4472,5.4689,5.4947,5.518,5.5218,5.5231,5.5231,5.5256,5.4924,5.419,5.4166,5.3738,5.2893,5.2344,5.1982,5.1819,5.1269,5.0975,5.089,5.0897,5.0899,5.0883,5.0625,5.0527,5.0507,5.0264,5.0152,5.0171,5.0156,5.017,5.0139,5.0139,5.0082,4.9974,4.9974,4.9936,4.9923,5.0159,5.023,5.0294,5.0614,5.0712,5.0712,5.0712,5.0712,5.0712,5.0712,5.0712,5.0712,5.0712,5.0712,5.0712,5.0712,5.0712,5.0712,5.0712,5.0712,5.0712,5.0712,5.0712,5.0712,5.0683,5.0633,5.0603,5.0604,5.0653,5.0713,5.0737,5.0965,5.1178,5.1294,5.1317,5.1317,5.1317,5.1377,5.14,5.139,5.1402,5.1406,5.1406,5.1406,5.1406,5.1406,5.1406,5.1406,5.1406,5.1406,5.1406,5.1406,5.1406,5.1406,5.1406,5.1406,5.1406,5.1406,5.1406,5.1406,5.1406,5.1406,5.1406,5.1386,5.4409,5.4409,5.4409,5.4409,5.4409,5.4409,5.4409,5.4409,5.4409,5.4409,5.4409,5.4472,5.4689,5.4719,5.4806,5.5012,5.5075,5.5128,5.5193,5.5408,5.5511,5.5511,5.57,5.5731,5.5576,5.5359,5.4955,5.4331,5.4213,5.3447,5.2114,5.1973,5.1548,5.0897,5.0908,5.0863,5.081,5.0766,5.0729,5.0729,5.0663,5.0654,5.0644,5.0654,5.0625,5.0567,5.0567,5.0545,5.0523,5.0523,5.0523,5.0523,5.0565,5.0604,5.0604,5.0673,5.0712,5.0712,5.0712,5.0712,5.0712,5.0712,5.0712,5.0712,5.0712,5.0712,5.0712,5.0712,5.0712,5.0712,5.0712,5.0712,5.0712,5.0712,5.0712,5.0673,5.0623,5.0603,5.0624,5.0681,5.0678,5.0782,5.0998,5.1218,5.135,5.1389,5.1378,5.1375,5.1389,5.1386,5.1402,5.1396,5.1405,5.1406,5.1406,5.1406,5.1406,5.1406,5.1406,5.1406,5.1406,5.1406,5.1406,5.1406,5.1406,5.1406,5.1406,5.1406,5.1406,5.1406,5.1406,5.1406,5.1406,5.1406,5.1406,5.1386,5.4409,5.4409,5.4409,5.4409,5.4409,5.4409,5.4409,5.4522,5.4581,5.4581,5.4704,5.4851,5.4971,5.4985,5.5107,5.5365,5.5389,5.5455,5.5566,5.572,5.5798,5.5798,5.594,5.6012,5.6012,5.5856,5.5662,5.5374,5.4987,5.4329,5.342,5.2597,5.1962,5.1493,5.1087,5.0888,5.0846,5.0846,5.0838,5.0801,5.0775,5.0738,5.0757,5.0758,5.073,5.0702,5.0702,5.0693,5.0712,5.0712,5.0712,5.0712,5.0712,5.0712,5.0712,5.0712,5.0712,5.0712,5.0712,5.0712,5.0712,5.0712,5.0712,5.0712,5.0712,5.0712,5.0712,5.0712,5.0712,5.0712,5.0712,5.0712,5.0712,5.0712,5.0663,5.0633,5.0603,5.0625,5.0653,5.0696,5.0809,5.0981,5.1213,5.1333,5.1403,5.1399,5.1391,5.1408,5.1399,5.1398,5.1391,5.1398,5.1405,5.1406,5.1406,5.1406,5.1406,5.1406,5.1406,5.1406,5.1406,5.1406,5.1406,5.1406,5.1406,5.1406,5.1406,5.1406,5.1406,5.1406,5.1406,5.1406,5.1406,5.1406,5.1362,5.1293,5.4409,5.4441,5.4474,5.4474,5.4505,5.4536,5.4536,5.4735,5.4861,5.4861,5.5067,5.5218,5.5256,5.5305,5.5431,5.5649,5.566,5.576,5.5995,5.6012,5.6012,5.6012,5.6012,5.6012,5.6012,5.6012,5.6012,5.6012,5.5335,5.4929,5.4774,5.3315,5.2542,5.2368,5.1481,5.1109,5.1087,5.0932,5.0829,5.0775,5.073,5.0711,5.0702,5.0702,5.0712,5.0712,5.0712,5.0712,5.0712,5.0712,5.0712,5.0712,5.0712,5.0712,5.0712,5.0712,5.0712,5.0712,5.0712,5.0712,5.0712,5.0712,5.0712,5.0712,5.0712,5.0712,5.0712,5.0712,5.0712,5.0712,5.0712,5.0683,5.0673,5.0673,5.0663,5.0634,5.0624,5.0699,5.0753,5.0758,5.0992,5.1213,5.1371,5.1406,5.1401,5.1403,5.1403,5.1403,5.139,5.1391,5.1399,5.1401,5.1405,5.1406,5.1406,5.1406,5.1406,5.1406,5.1406,5.1406,5.1406,5.1406,5.1406,5.1406,5.1406,5.1406,5.1406,5.1406,5.1406,5.1406,5.1406,5.1386,5.1386,5.1364,5.1288,5.117,5.4409,5.46,5.475,5.475,5.4947,5.5088,5.5088,5.5115,5.5141,5.5141,5.518,5.5293,5.5522,5.575,5.5902,5.5949,5.5949,5.5958,5.6003,5.6012,5.6012,5.6012,5.6012,5.6012,5.6012,5.6012,5.6012,5.6012,5.5896,5.549,5.4793,5.4499,5.396,5.3207,5.2333,5.1922,5.1799,5.1047,5.0711,5.0712,5.0702,5.0702,5.0702,5.0693,5.0712,5.0712,5.0712,5.0712,5.0712,5.0712,5.0712,5.0712,5.0712,5.0712,5.0712,5.0712,5.0712,5.0712,5.0712,5.0712,5.0712,5.0712,5.0712,5.0712,5.0712,5.0712,5.0712,5.0712,5.0712,5.0712,5.0712,5.0643,5.0613,5.0613,5.0701,5.0752,5.0698,5.0832,5.0972,5.1035,5.1236,5.1367,5.1394,5.1392,5.1396,5.1405,5.1398,5.1403,5.1402,5.14,5.1402,5.1406,5.1406,5.1406,5.1406,5.1406,5.1406,5.1406,5.1406,5.1406,5.1406,5.1406,5.1406,5.1406,5.1406,5.1406,5.1406,5.1406,5.1406,5.1406,5.1406,5.1363,5.1301,5.1255,5.1174,5.1103,5.4847,5.4928,5.5026,5.5026,5.5115,5.5205,5.5205,5.5317,5.5412,5.5412,5.5544,5.568,5.5818,5.594,5.6012,5.6012,5.6012,5.6012,5.6012,5.6012,5.6012,5.6012,5.6012,5.6012,5.6012,5.6005,5.6007,5.6007,5.6007,5.5814,5.5466,5.4899,5.4447,5.4042,5.3165,5.2752,5.2666,5.1799,5.1405,5.1337,5.0875,5.0712,5.0712,5.0712,5.0712,5.0712,5.0712,5.0712,5.0712,5.0712,5.0712,5.0712,5.0712,5.0712,5.0712,5.0712,5.0712,5.0712,5.0712,5.0712,5.0712,5.0712,5.0712,5.0712,5.0712,5.0712,5.0712,5.0712,5.0712,5.0702,5.0643,5.0613,5.0624,5.0701,5.0726,5.0764,5.0867,5.0978,5.1108,5.1245,5.136,5.1394,5.1394,5.1394,5.1398,5.1408,5.1409,5.1396,5.1404,5.1405,5.1405,5.1406,5.1406,5.1406,5.1406,5.1406,5.1406,5.1406,5.1406,5.1406,5.1406,5.1406,5.1406,5.1406,5.1406,5.1406,5.1406,5.1406,5.1406,5.1406,5.1362,5.1299,5.1242,5.118,5.1131,5.1093]}]]